     2              OBSERVATION DATA    GPS                 RINEX VERSION / TYPE
ASRINEXO V2.9.7 UX USGS/MENLO_PARK 26-APR-01 16:27          PGM / RUN BY / DATE
                                                            COMMENT
BIT 2 OF LLI (+4) FLAGS DATA COLLECTED UNDER "AS" CONDITION COMMENT
BIT 2 OF LLI (+4) FLAGS DATA COLLECTED UNDER "AS" CONDITION COMMENT
BIT 2 OF LLI (+4) FLAGS DATA COLLECTED UNDER "AS" CONDITION COMMENT
BIT 2 OF LLI (+4) FLAGS DATA COLLECTED UNDER "AS" CONDITION COMMENT
BIT 2 OF LLI (+4) FLAGS DATA COLLECTED UNDER "AS" CONDITION COMMENT
BIT 2 OF LLI (+4) FLAGS DATA COLLECTED UNDER "AS" CONDITION COMMENT
BIT 2 OF LLI (+4) FLAGS DATA COLLECTED UNDER "AS" CONDITION COMMENT
BIT 2 OF LLI (+4) FLAGS DATA COLLECTED UNDER "AS" CONDITION COMMENT
Original Marker Name: lae1 LAPE1__T6nR4e_S28S27_1919_GLO    COMMENT
Campaign Name: USGS Profiles                                COMMENT
4-Character Station Name: LAE1                              COMMENT
6-Character Antenna Code: DMRCHT                            COMMENT
Vertical Measurement Point: BCR                             COMMENT
Vertical Offset to Rinex Ref. Point: 0.0348                 COMMENT
Radial Measurement Point: ECF                               COMMENT
Radial Offset to Rinex Ref. Point: 0.1897                   COMMENT
Antenna Height from Field Measurement: 1.2040 m             COMMENT
Additional Antenna Identification Info.:                    COMMENT
Turborogue and Ashtech Choke Ring                           COMMENT
Original XYZ: -2350848.4378 -4703340.3220 3599618.4943      COMMENT
New XYZ position is based on association with SCEC monument COMMENT
E1F2J8I6+0011. Position of that monument is believed to be  COMMENT
valid to within 1 m horizontally; vertical accuracy         COMMENT
should be no worse than 3-times this value.                 COMMENT
                                                            COMMENT
Revised Rinex header created by UCSD GPS archive for        COMMENT
GSAC on 07-Jun-2001 (2001:158) 17:28:00 GMT                 COMMENT
For assistance contact dagnew@ucsd.edu                      COMMENT
or anderson@python.ucsd.edu                                 COMMENT
                                                            COMMENT
T6NR4E 528 527 533 534 1919                                 MARKER NAME
CHS US GEOLOGICAL SURVEY                                    OBSERVER / AGENCY
LP019992803 ASHTECH Z-XII3 CD00                             REC # / TYPE / VERS
CR14329 DORNE-MARGOL. TYPE T                                ANT # / TYPE
 -2350839.6563 -4703318.5399  3599600.5209                  APPROX POSITION XYZ
        1.1542        0.0000        0.0000                  ANTENNA: DELTA H/E/N
     1     1     0                                          WAVELENGTH FACT L1/2
     5    C1    L1    L2    P1    P2                        # / TYPES OF OBSERV
    30                                                      INTERVAL
  2001     4    23     0     1   30.000000                  TIME OF FIRST OBS
  2001     4    23    23    59    0.000000                  TIME OF LAST OBS
                                                            END OF HEADER
 01  4 23  0  1 30.0000000  0  9 17 21 14 22 23 06 15 26 03
  20813062.055   -26439994.829 9 -20321416.90747  20813061.407    20813066.9134
  21994680.366   -20101187.163 8 -15111088.18147  21994679.800    21994686.3004
  24040496.562    -4730704.673 7  -3640545.20945  24040496.112    24040511.0224
  24805954.175    -1223654.113 7   -721223.49545  24805953.345    24805966.0644
  20979456.970   -24541138.150 9 -19076069.32047  20979456.315    20979461.4834
  23544985.180   -12703887.901 8  -9886562.99445  23544984.945    23544996.4084
  20396388.179   -26642756.867 9 -20240339.83647  20396387.355    20396392.6324
  23436694.280    -6316311.031 8  -4657622.45445  23436694.254    23436700.8304
  22524400.922   -14574007.227 8 -11053340.47846  22524400.513    22524407.0394
 01  4 23  0  2  0.0000000  0 10 17 21 14 22 23 06 15 26 03 29
  20816867.409   -26419997.504 9 -20305834.58647  20816866.763    20816872.2784
  21986529.466   -20144020.179 8 -15144464.48847  21986528.893    21986535.3654
  24019007.119    -4843629.720 7  -3728538.07745  24019006.668    24019021.4994
  24818287.492    -1158842.563 7   -670721.14745  24818286.857    24818299.4644
  20985201.112   -24510952.372 9 -19052547.92747  20985200.468    20985205.6344
  23565773.408   -12594646.591 8  -9801440.22645  23565773.134    23565784.6454
  20395269.823   -26648633.819 9 -20244919.26647  20395269.009    20395274.2664
  23454680.231    -6221794.569 8  -4583973.29845  23454680.253    23454686.7944
  22511513.258   -14641731.948 8 -11106112.92546  22511512.854    22511519.3814
  24221928.300     -771652.76244                  24221927.469    24221945.0954
 01  4 23  0  2 30.0000000  0  9 17 21 14 23 06 15 26 03 29
  20820728.601   -26399706.841 9 -20290023.68347  20820727.960    20820733.4764
  21978423.009   -20186619.702 8 -15177658.85347  21978422.415    21978428.8664
  23997534.833    -4956465.030 7  -3816461.02545  23997534.444    23997549.0004
  20990987.373   -24480545.440 9 -19028854.20747  20990986.722    20990991.8774
  23586589.860   -12485256.691 8  -9716201.68245  23586589.513    23586601.2074
  20394207.007   -26654218.688 9 -20249271.09647  20394206.205    20394211.4694
  23472730.346    -6126940.910 8  -4510061.39845  23472730.287    23472736.8534
  22498707.540   -14709025.963 8 -11158549.76346  22498707.179    22498713.6784
  24201170.149    -1127958.42117   -856647.19045  24201170.798    24201187.6544
 01  4 23  0  3  0.0000000  0  9 17 21 14 23 06 15 26 03 29
  20824644.654   -26379127.935 9 -20273988.17247  20824644.009    20824649.5334
  21970359.788   -20228991.930 8 -15210676.10247  21970359.217    21970365.6504
  23976078.917    -5069213.956 7  -3904316.65845  23976078.487    23976092.9584
  20996814.307   -24449924.830 9 -19004993.98647  20996813.648    20996818.7804
  23607432.910   -12375726.820 8  -9630854.06645  23607432.673    23607444.3224
  20393198.889   -26659516.284 9 -20253399.08647  20393198.093    20393203.3574
  23490842.869    -6031758.787 7  -4435893.54045  23490842.878    23490849.4764
  22485983.144   -14775893.216 8 -11210654.05146  22485982.748    22485989.2564
  24180425.870    -1236971.424 7   -941591.72045  24180425.790    24180442.8064
 01  4 23  0  3 30.0000000  0  9 17 21 14 23 06 15 26 03 29
  20828615.666   -26358259.965 9 -20257727.42047  20828615.040    20828620.5624
  21962339.748   -20271137.516 8 -15243516.75247  21962339.179    21962345.5874
  23954639.993    -5181874.041 7  -3992103.07545  23954639.469    23954653.7694
  21002681.523   -24419092.150 9 -18980968.51247  21002680.887    21002686.0214
  23628302.142   -12266059.431 8  -9545399.29645  23628301.917    23628313.5844
  20392245.673   -26664525.522 9 -20257302.37047  20392244.883    20392250.1494
  23509017.287    -5936251.232 8  -4361472.08745  23509017.346    23509023.9894
  22473340.348   -14842331.456 8 -11262424.05446  22473339.971    22473346.4814
  24159694.019    -1345917.772 7  -1026484.28445  24159693.632    24159710.3744
 01  4 23  0  4  0.0000000  0 10 17 21 14 23 06 09 15 26 03 29
  20832642.129   -26337100.668 9 -20241239.65947  20832641.502    20832647.0544
  21954362.870   -20313055.759 8 -15276180.24747  21954362.301    21954368.7074
  23933218.637    -5294441.232 7  -4079817.12645  23933218.259    23933232.3324
  21008589.170   -24388047.315 9 -18956777.71647  21008588.517    21008593.6724
  23649197.370   -12156255.619 8  -9459838.22845  23649197.101    23649208.8744
  24456381.463    -1039264.458 7   -798464.20945  24456380.890    24456391.7134
  20391347.746   -26669244.116 9 -20260979.17747  20391346.944    20391352.2004
  23527253.480    -5840419.686 8  -4286798.17745  23527253.501    23527260.0424
  22460779.878   -14908337.088 8 -11313856.94646  22460779.466    22460785.9474
  24138975.448    -1454793.559 7  -1111321.86245  24138974.915    24138991.6804
 01  4 23  0  4 30.0000000  0 10 17 21 14 23 06 09 15 26 03 29
  20836724.545   -26315647.517 9 -20224522.92647  20836723.886    20836729.4604
  21946429.651   -20354744.917 8 -15308665.23447  21946429.093    21946435.4544
  23911815.837    -5406911.067 7  -4167455.31145  23911815.337    23911829.3334
  21014537.212   -24356790.031 9 -18932421.38747  21014536.569    21014541.7164
  23670118.396   -12046316.198 8  -9374171.50045  23670118.207    23670130.0104
  24444165.402    -1103458.124 7   -848485.03945  24444164.408    24444175.9764
  20390505.691   -26673669.238 9 -20264427.30447  20390504.897    20390510.1394
  23545551.113    -5744265.316 8  -4211872.73445  23545551.034    23545557.7124
  22448302.407   -14973906.178 8 -11364949.68546  22448302.014    22448308.5034
  24118271.043    -1563594.623 7  -1196101.21945  24118270.419    24118287.2044
 01  4 23  0  5  0.0000000  0 10 17 21 14 23 06 09 15 26 03 29
  20840862.672   -26293901.299 9 -20207577.83147  20840862.022    20840867.6374
  21938539.600   -20396207.031 8 -15340973.30047  21938539.046    21938545.3884
  23890431.803    -5519282.384 7  -4255016.74745  23890431.280    23890445.0714
  21020525.141   -24325323.234 9 -18907901.79747  21020524.474    21020529.6404
  23691064.521   -11936245.136 8  -9288402.19345  23691064.266    23691076.0834
  24431989.988    -1167438.305 7   -898339.49545  24431988.896    24432000.7794
  20389719.324   -26677801.557 9 -20267647.27747  20389718.512    20389723.7634
  23563909.303    -5647792.623 8  -4136699.22345  23563909.215    23563915.9014
  22435908.138   -15039037.878 8 -11415701.58846  22435907.804    22435914.3014
  24097580.879    -1672320.363 7  -1280821.87445  24097580.372    24097596.8574
 01  4 23  0  5 30.0000000  0 10 17 21 14 23 06 09 15 26 03 29
  20845056.614   -26271861.828 9 -20190404.22747  20845055.998    20845061.5784
  21930692.604   -20437443.153 8 -15373105.27847  21930692.028    21930698.3704
  23869066.749    -5631553.531 7  -4342500.15545  23869066.311    23869079.8434
  21026552.511   -24293649.154 9 -18883220.68847  21026551.851    21026557.0294
  23712034.986   -11826045.770 7  -9202532.92445  23712034.749    23712046.7944
  24419855.635    -1231202.660 7   -948025.76445  24419854.996    24419866.8914
  20388988.718   -26681640.758 9 -20270638.85047  20388987.907    20388993.1534
  23582327.445    -5551005.474 8  -4061280.69145  23582327.324    23582333.9864
  22423597.484   -15103730.785 8 -11466111.58246  22423597.107    22423603.6074
  24076905.395    -1780968.786 7  -1365482.29045  24076904.967    24076921.2724
 01  4 23  0  6  0.0000000  0 10 17 21 14 23 06 09 15 26 03 29
  20849306.758   -26249527.450 9 -20173000.83247  20849306.106    20849311.6934
  21922888.581   -20478453.192 8 -15405061.08147  21922888.021    21922894.3604
  23847721.535    -5743720.912 7  -4429902.70945  23847721.087    23847734.5134
  21032619.223   -24261768.347 9 -18858378.50347  21032618.581    21032623.7504
  23733029.535   -11715719.800 8  -9116564.99445  23733029.265    23733041.4054
  24407763.312    -1294746.999 7   -997540.60945  24407762.648    24407774.7864
  20388314.260   -26685184.882 9 -20273400.48847  20388313.464    20388318.7184
  23600804.984    -5453905.652 8  -3985618.50445  23600804.883    23600811.4614
  22411370.861   -15167982.212 8 -11516177.55946  22411370.471    22411376.9434
  24056245.210    -1889536.817 7  -1450080.06745  24056244.739    24056260.7434
 01  4 23  0  6 30.0000000  0 10 17 21 14 23 06 09 15 26 03 29
  20853613.074   -26226897.536 9 -20155367.14847  20853612.435    20853618.0374
  21915127.457   -20519237.784 8 -15436841.21147  21915126.894    21915133.2064
  23826396.628    -5855781.970 7  -4517222.43345  23826396.110    23826409.3894
  21038725.003   -24229682.284 9 -18833376.37247  21038724.344    21038729.5054
  23754047.796   -11605269.816 8  -9030500.42345  23754047.545    23754059.6994
  24395713.421    -1358068.475 7  -1046881.78045  24395712.500    24395725.0684
  20387696.108   -26688433.137 9 -20275931.57847  20387695.322    20387700.5724
  23619341.339    -5356496.310 8  -3909715.16245  23619341.241    23619347.7894
  22399228.625   -15231789.923 8 -11565897.78846  22399228.227    22399234.6484
  24035600.715    -1998021.855 7  -1534613.15745  24035600.420    24035616.2134
 01  4 23  0  7  0.0000000  0 10 17 21 14 23 06 09 15 26 03 29
  20857975.845   -26203971.045 9 -20137502.36547  20857975.214    20857980.7984
  21907409.175   -20559797.361 8 -15468446.00247  21907408.607    21907414.9244
  23805092.423    -5967734.079 7  -4604457.26445  23805091.938    23805104.9234
  21044869.559   -24197392.501 9 -18808215.49747  21044868.901    21044874.0694
  23775089.129   -11494698.262 7  -8944341.13645  23775088.828    23775101.1354
  24383706.650    -1421164.036 7  -1096046.92545  24383705.742    24383718.1794
  20387134.509   -26691384.413 9 -20278231.26247  20387133.701    20387138.9414
  23637936.025    -5258780.232 8  -3833572.75545  23637935.938    23637942.5164
  22387171.220   -15295151.710 8 -11615270.54146  22387170.824    22387177.2194
  24014972.428    -2106421.592 7  -1619079.78945  24014972.182    24014987.7744
 01  4 23  0  7 30.0000000  0 10 17 21 14 23 06 09 15 26 03 29
  20862395.210   -26180747.198 9 -20119405.87047  20862394.575    20862400.1584
  21899733.691   -20600131.913 8 -15499875.45547  21899733.130    21899739.4484
  23783809.476    -6079574.740 8  -4691605.25945  23783809.023    23783821.7284
  21051052.551   -24164900.497 9 -18782897.04947  21051051.910    21051057.0704
  23796153.085   -11384007.801 8  -8858089.21345  23796152.855    23796165.1554
  24371743.378    -1484030.373 7  -1145033.43945  24371742.584    24371754.9544
  20386629.531   -26694037.999 9 -20280298.98147  20386628.731    20386633.9734
  23656588.621    -5160760.553 8  -3757193.80645  23656588.565    23656595.0394
  22375199.042   -15358065.426 8 -11664294.15846  22375198.652    22375205.0304
  23994360.796    -2214733.600 7  -1703478.06045  23994360.530    23994376.0944
 01  4 23  0  8  0.0000000  0 10 17 21 14 23 06 09 15 26 03 29
  20866871.299   -26157225.136 9 -20101077.00147  20866870.686    20866876.2674
  21892100.893   -20640242.296 8 -15531130.23847  21892100.334    21892106.6154
  23762548.277    -6191300.848 8  -4778664.01445  23762547.891    23762560.3904
  21057273.817   -24132207.554 9 -18757422.03247  21057273.193    21057278.3014
  23817239.241   -11273200.526 7  -8771746.25645  23817239.028    23817251.4694
  24359824.295    -1546664.140 7  -1193838.77345  24359823.625    24359835.9404
  20386181.459   -26696392.521 9 -20282133.66947  20386180.661    20386185.8874
  23675298.439    -5062439.889 8  -3680580.31245  23675298.372    23675304.8284
  22363312.582   -15420528.830 8 -11712966.88446  22363312.221    22363318.5634
  23973766.500    -2322955.180 7  -1787805.89345  23973766.188    23973781.5594
 01  4 23  0  8 30.0000000  0 10 17 21 14 23 06 09 15 26 03 29
  20871404.297   -26133404.191 9 -20082515.23447  20871403.668    20871409.2434
  21884510.559   -20680129.604 8 -15562211.19347  21884509.989    21884516.2654
  23741309.379    -6302910.065 7  -4865631.70345  23741309.055    23741321.2724
  21063533.031   -24099315.159 9 -18731791.59347  21063532.400    21063537.5144
  23838347.166   -11162279.290 7  -8685314.51645  23838346.876    23838359.4484
  24347950.295    -1609062.289 7  -1242460.47345  24347949.605    24347961.7934
  20385790.481   -26698447.183 9 -20283734.69247  20385789.672    20385794.8964
  23694064.991    -4963821.371 8  -3603734.73545  23694064.880    23694071.3394
  22351512.233   -15482539.956 8 -11761287.18346  22351511.860    22351518.1984
  23953189.829    -2431084.106 7  -1872061.53445  23953189.663    23953204.6634
 01  4 23  0  9  0.0000000  0 10 17 21 14 23 06 09 15 26 03 29
  20875994.335   -26109283.374 9 -20063719.79847  20875993.710    20875999.2764
  21876962.805   -20719793.072 8 -15593117.72847  21876962.214    21876968.4744
  23720093.226    -6414399.853 7  -4952506.31745  23720092.763    23720104.9924
  21069829.960   -24066224.446 9 -18706006.62447  21069829.351    21069834.4824
  23859476.354   -11051246.595 7  -8598795.92345  23859475.878    23859488.6474
  24336121.311    -1671221.844 7  -1290896.26945  24336120.885    24336133.0394
  20385456.751   -26700200.762 9 -20285101.10447  20385455.943    20385461.1704
  23712887.672    -4864907.832 8  -3526659.28145  23712887.490    23712893.8814
  22339798.434   -15544096.416 8 -11809253.19746  22339798.030    22339804.3264
  23932631.198    -2539117.763 8  -1956242.95145  23932631.046    23932645.8324
 01  4 23  0  9 30.0000000  0 10 17 21 14 23 06 09 15 26 03 29
  20880641.426   -26084862.718 9 -20044690.71447  20880640.813    20880646.3734
  21869457.346   -20759234.247 8 -15623851.04747  21869456.750    21869462.9904
  23698900.212    -6525768.049 7  -5039286.18845  23698899.664    23698911.8074
  21076164.231   -24032937.572 9 -18680068.78747  21076163.625    21076168.7424
  23880626.059   -10940105.456 7  -8512192.82845  23880625.537    23880638.5424
  24324338.501    -1733140.275 7  -1339144.18945  24324338.111    24324350.0474
  20385180.400   -26701652.951 9 -20286232.67047  20385179.614    20385184.8204
  23731765.744    -4765702.921 7  -3449356.77745  23731765.410    23731771.7924
  22328171.352   -15605196.727 8 -11856863.77046  22328170.959    22328177.2694
  23912091.053    -2647054.541 7  -2040348.88445  23912090.835    23912105.4854
 01  4 23  0 10  0.0000000  0 10 17 21 14 23 06 09 15 26 03 29
  20885345.978   -26060140.129 9 -20025426.37047  20885345.386    20885350.9564
  21861994.304   -20798452.534 8 -15654410.69347  21861993.717    21861999.9514
  23677730.981    -6637011.053 7  -5125968.52645  23677730.379    23677742.4024
  21082535.810   -23999454.771 9 -18653978.29747  21082535.185    21082540.3234
  23901796.044   -10828857.233 7  -8425506.31545  23901795.671    23901808.7704
  24312602.473    -1794813.292 7  -1387200.86545  24312602.116    24312613.7724
  20384961.806   -26702801.734 9 -20287127.81547  20384961.015    20384966.1964
  23750698.905    -4666208.343 7  -3371828.57945  23750698.533    23750704.8224
  22316631.663   -15665838.139 8 -11904116.77346  22316631.228    22316637.4874
  23891570.005    -2754890.691 7  -2124376.40745  23891569.782    23891584.3404
 01  4 23  0 10 30.0000000  0 10 17 21 14 23 06 09 15 26 03 29
  20890107.915   -26035115.975 9 -20005927.03647  20890107.300    20890112.8894
  21854573.329   -20837449.573 9 -15684797.93547  21854572.744    21854578.9814
  23656585.933    -6748127.002 7  -5212551.87845  23656585.428    23656597.1534
  21088944.158   -23965778.644 9 -18627737.15547  21088943.538    21088948.6484
  23922985.863   -10717505.601 7  -8338739.21845  23922985.611    23922998.6474
  24300913.492    -1856238.778 7  -1435064.67145  24300913.058    24300924.7064
  20384800.924   -26703647.207 9 -20287786.61847  20384800.117    20384805.3044
  23769686.338    -4566428.219 7  -3294077.85045  23769686.079    23769692.3664
  22305179.512   -15726019.352 8 -11951011.17346  22305179.076    22305185.3244
  23871068.388    -2862624.901 7  -2208324.49845  23871068.194    23871082.5774
 01  4 23  0 11  0.0000000  0 10 17 21 14 23 06 09 15 26 03 29
  20894927.643   -26009788.137 9 -19986191.07347  20894927.043    20894932.6174
  21847194.612   -20876224.791 9 -15715012.33047  21847194.032    21847200.2434
  23635465.719    -6859112.253 7  -5299033.37245  23635465.209    23635476.8654
  21095389.276   -23931909.267 9 -18601345.43447  21095388.676    21095393.7884
  23944195.150   -10606051.778 7  -8251892.50545  23944194.848    23944208.0194
  24289272.437    -1917412.252 7  -1482732.11545  24289272.087    24289283.5104
  20384698.189   -26704187.109 9 -20288207.31247  20384697.368    20384702.5714
  23788727.861    -4466364.053 7  -3216105.81245  23788727.596    23788734.0494
  22293815.578   -15785737.091 8 -11997544.42246  22293815.143    22293821.3624
  23850586.865    -2970253.569 7  -2292190.34945  23850586.713    23850600.8564
 01  4 23  0 11 30.0000000  0 10 17 21 14 23 06 09 15 26 03 29
  20899804.999   -25984157.652 9 -19966219.28047  20899804.387    20899809.9724
  21839857.754   -20914780.126 9 -15745055.39047  21839857.142    21839863.3724
  23614370.537    -6969965.842 7  -5385412.30445  23614370.053    23614381.6884
  21101870.584   -23897849.790 9 -18574805.58447  21101869.969    21101875.0894
  23965423.151   -10494500.037 7  -8164969.49645  23965422.743    23965436.0074
  24277679.481    -1978332.454 7  -1530202.20145  24277679.183    24277690.6744
  20384653.440   -26704422.240 9 -20288390.52347  20384652.619    20384657.8194
  23807822.555    -4366020.612 7  -3137916.15745  23807822.317    23807828.8854
  22282539.934   -15844990.912 8 -12043716.17846  22282539.509    22282545.6864
  23830125.582    -3077775.850 7  -2375973.31445  23830125.509    23830139.4834
 01  4 23  0 12  0.0000000  0 10 17 21 14 23 06 09 15 26 03 29
  20904740.225   -25958222.716 9 -19946010.24947  20904739.630    20904745.2034
  21832562.834   -20953114.938 9 -15774926.61447  21832562.222    21832568.4194
  23593301.093    -7080684.032 7  -5471685.73245  23593300.639    23593312.1444
  21108387.998   -23863600.609 9 -18548117.91147  21108387.397    21108392.4964
  23986669.460   -10382852.013 7  -8077971.45445  23986668.824    23986682.4624
  24266135.413    -2038995.487 7  -1577471.89045  24266135.165    24266146.6924
  20384667.076   -26704350.528 9 -20288334.63647  20384666.269    20384671.4604
  23826970.014    -4265399.707 7  -3059510.24345  23826969.981    23826976.4824
  22271353.085   -15903777.929 8 -12089524.19046  22271352.654    22271358.8684
  23809685.146    -3185188.215 7  -2459670.64445  23809685.090    23809698.9764
 01  4 23  0 12 30.0000000  0 10 17 21 14 23 06 09 15 26 03 29
  20909733.672   -25931982.021 9 -19925562.96847  20909733.063    20909738.6434
  21825309.851   -20991229.341 9 -15804626.09347  21825309.233    21825315.4164
  23572258.166    -7191263.863 8  -5557851.36745  23572257.647    23572269.0194
  21114941.335   -23829162.598 9 -18521283.11247  21114940.731    21114945.8074
  24007933.688   -10271109.772 7  -7990900.00945  24007932.963    24007946.6594
  24254641.112    -2099397.717 7  -1624538.36645  24254640.941    24254652.2794
  20384739.382   -26703970.451 9 -20288038.47047  20384738.569    20384743.7724
  23846169.912    -4164503.939 7  -2980890.18145  23846169.881    23846176.4874
  22260255.534   -15962095.535 8 -12134966.43346  22260255.106    22260261.3144
  23789266.095    -3292488.115 7  -2543280.33645  23789266.015    23789279.8904
 01  4 23  0 13  0.0000000  0 10 17 21 14 23 06 09 15 26 03 29
  20914785.190   -25905436.260 9 -19904877.97247  20914784.586    20914790.1634
  21818098.442   -21029125.302 9 -15834155.35247  21818097.845    21818103.9994
  23551241.760    -7301703.984 8  -5643908.14445  23551241.206    23551252.4564
  21121530.139   -23794538.394 9 -18494303.21447  21121529.499    21121534.5894
  24029215.013   -10159277.091 7  -7903758.09045  24029214.400    24029228.1834
  24243196.770    -2159537.449 7  -1671400.28845  24243196.595    24243207.8684
  20384870.288   -26703282.444 9 -20287502.35747  20384869.488    20384874.6704
  23865421.143    -4063337.567 7  -2902059.28045  23865421.034    23865427.8274
  22249247.419   -16019943.094 8 -12180042.40546  22249247.037    22249253.2584
  23768868.906    -3399674.263 7  -2626801.41945  23768868.736    23768882.4694
 01  4 23  0 13 30.0000000  0 10 17 21 14 23 06 09 15 26 03 29
  20919895.081   -25878583.642 9 -19883953.86547  20919894.468    20919900.0234
  21810928.667   -21066802.538 9 -15863514.17547  21810928.059    21810934.1954
  23530252.589    -7412000.931 8  -5729853.39045  23530252.046    23530263.1374
  21128154.236   -23759728.547 9 -18467178.66347  21128153.594    21128158.7014
  24050513.257   -10047355.535 8  -7816546.91345  24050512.746    24050526.5414
  24231803.085    -2219410.714 8  -1718054.57945  24231803.002    24231814.1694
  20385060.196   -26702284.644 9 -20286724.84547  20385059.387    20385064.5614
  23884723.578    -3961902.655 7  -2823019.17745  23884723.490    23884730.2764
  22238329.344   -16077317.749 8 -12224749.88446  22238328.956    22238335.1774
  23748493.926    -3506743.243 7  -2710231.22545  23748493.762    23748507.2834
 01  4 23  0 14  0.0000000  0 10 17 21 14 23 06 09 15 26 03 29
  20925063.414   -25851423.818 9 -19862790.37847  20925062.791    20925068.3644
  21803800.288   -21104261.913 9 -15892703.24547  21803799.723    21803805.8364
  23509291.086    -7522152.276 8  -5815685.17345  23509290.628    23509301.5864
  21134813.327   -23724734.770 9 -18439910.78847  21134812.684    21134817.7814
  24071827.931    -9935347.909 7  -7729268.66245  24071827.460    24071841.2414
  24220460.744    -2279014.458 8  -1764498.87345  24220460.645    24220471.7404
  20385309.078   -26700976.444 9 -20285705.46447  20385308.265    20385313.4804
  23904076.537    -3860202.348 7  -2743772.19645  23904076.562    23904083.2904
  22227501.512   -16134217.999 8 -12269087.70146  22227501.131    22227507.3254
  23728141.561    -3613693.022 7  -2793568.14445  23728141.401    23728154.7664
 01  4 23  0 14 30.0000000  0 10 17 21 14 23 06 09 15 26 03 29
  20930290.378   -25823956.171 9 -19841387.02747  20930289.752    20930295.3124
  21796713.402   -21141503.902 9 -15921722.92347  21796712.810    21796718.8654
  23488357.740    -7632155.466 8  -5901401.53145  23488357.360    23488368.1524
  21141507.112   -23689558.657 9 -18412500.83047  21141506.470    21141511.5794
  24093158.507    -9823256.862 7  -7641925.41945  24093158.073    24093171.8954
  24209170.391    -2338345.641 8  -1810730.76145  24209170.191    24209181.2244
  20385617.282   -26699356.856 9 -20284443.44047  20385616.491    20385621.6744
  23923479.480    -3758239.700 8  -2664320.78345  23923479.439    23923486.2594
  22216764.327   -16190642.170 8 -12313054.54446  22216763.944    22216770.1114
  23707812.350    -3720521.330 7  -2876810.42845  23707812.134    23707825.3354
 01  4 23  0 15  0.0000000  0 10 17 21 14 23 06 09 15 26 03 29
  20935576.054   -25796179.671 9 -19819743.01147  20935575.433    20935581.0354
  21789667.724   -21178528.777 9 -15950573.41647  21789667.147    21789673.1894
  23467453.144    -7742007.860 8  -5987000.39145  23467452.761    23467463.4034
  21148235.369   -23654201.402 9 -18384949.72247  21148234.722    21148239.8274
  24114504.344    -9711084.804 7  -7554519.06145  24114504.015    24114518.0794
  24197932.358    -2397401.422 7  -1856748.06845  24197932.180    24197943.1074
  20385984.975   -26697424.630 9 -20282937.79347  20385984.157    20385989.3644
  23942931.903    -3656017.402 8  -2584667.06145  23942931.773    23942938.6214
  22206118.210   -16246587.761 8 -12356648.46946  22206117.835    22206123.9494
  23687506.784    -3827225.431 7  -2959955.94545  23687506.582    23687519.5594
 01  4 23  0 15 30.0000000  0 10 17 21 14 23 06 09 15 26 03 29
  20940920.599   -25768093.834 9 -19797857.95347  20940919.993    20940925.5884
  21782663.224   -21215337.432 9 -15979255.43647  21782662.656    21782668.6864
  23446577.796    -7851706.867 8  -6072479.74245  23446577.433    23446587.9574
  21154997.842   -23618664.357 9 -18357258.51747  21154997.200    21155002.3114
  24135865.018    -9598834.294 7  -7467051.57745  24135864.698    24135879.0004
  24186747.164    -2456178.675 7  -1902548.32345  24186747.014    24186757.9784
  20386412.280   -26695178.992 9 -20281187.93147  20386411.491    20386416.6814
  23962433.085    -3553538.564 8  -2504813.44545  23962432.963    23962439.6854
  22195563.411   -16302053.133 8 -12399868.19546  22195563.042    22195569.1684
  23667225.303    -3933803.084 7  -3043002.94145  23667225.152    23667237.9994
 01  4 23  0 16  0.0000000  0 10 17 21 14 23 06 09 15 26 03 29
  20946324.291   -25739697.273 9 -19775730.77547  20946323.702    20946329.2894
  21775699.903   -21251929.703 9 -16007768.84147  21775699.337    21775705.3414
  23425732.306    -7961249.572 8  -6157837.31745  23425731.824    23425742.1384
  21161794.345   -23582948.370 9 -18329427.87247  21161793.705    21161798.8054
  24157240.360    -9486507.407 7  -7379524.61645  24157239.980    24157254.4014
  24175615.722    -2514673.861 7  -1948128.78145  24175615.540    24175626.5374
  20386899.515   -26692618.534 9 -20279192.75147  20386898.724    20386903.9384
  23981982.448    -3450805.630 8  -2424761.83445  23981982.379    23981989.2544
  22185100.482   -16357035.931 8 -12442711.89946  22185100.135    22185106.2074
  23646968.491    -4040251.402 8  -3125949.15645  23646968.345    23646980.9854
 01  4 23  0 16 30.0000000  0 10 17 21 14 23 06 09 15 26 03 29
  20951787.018   -25710990.472 9 -19753361.84547  20951786.430    20951792.0104
  21768777.419   -21288307.348 9 -16036115.00447  21768776.839    21768782.8734
  23404916.721    -8070634.197 8  -6243071.72645  23404916.304    23404926.4554
  21168624.436   -23547055.931 9 -18301459.73547  21168623.797    21168628.9064
  24178629.612    -9374107.562 7  -7291940.76445  24178629.342    24178643.7134
  24164538.357    -2572885.001 7  -1993487.90445  24164538.189    24164549.1384
  20387446.602   -26689743.405 9 -20276952.37247  20387445.805    20387451.0124
  24001579.417    -3347822.506 7  -2344515.28845  24001579.363    24001586.3474
  22174729.608   -16411535.228 8 -12485178.84246  22174729.225    22174735.3134
  23626736.591    -4146568.902 8  -3208793.46245  23626736.342    23626748.8214
 01  4 23  0 17  0.0000000  0 10 17 21 14 23 06 09 15 26 03 29
  20957309.221   -25681971.144 9 -19730749.39147  20957308.617    20957314.2214
  21761895.933   -21324469.591 9 -16064293.32647  21761895.373    21761901.3834
  23384131.925    -8179856.803 8  -6328179.87245  23384131.633    23384141.6854
  21175488.139   -23510987.060 9 -18273354.12047  21175487.505    21175492.6204
  24200032.506    -9261636.090 7  -7204301.11645  24200032.306    24200046.8104
  24153516.012    -2630807.582 7  -2038622.18445  24153515.720    24153526.5684
  20388054.017   -26686551.281 9 -20274464.98147  20388053.215    20388058.4374
  24021223.823    -3244590.817 8  -2264075.01245  24021223.763    24021230.6914
  22164451.359   -16465547.751 8 -12527266.48147  22164450.970    22164457.0794
  23606530.280    -4252751.899 7  -3291532.96545  23606530.020    23606542.3564
 01  4 23  0 17 30.0000000  0 10 17 21 14 23 06 09 15 26 03 29
  20962890.792   -25652639.885 9 -19707893.88247  20962890.173    20962895.8144
  21755055.151   -21360418.047 9 -16092305.06347  21755054.569    21755060.5414
  23363378.338    -8288916.002 8  -6413160.71245  23363378.011    23363387.9494
  21182384.906   -23474744.192 9 -18245112.92847  21182384.270    21182389.4014
  24221448.382    -9149096.626 7  -7116608.49045  24221448.209    24221462.7894
  24142548.818    -2688440.242 7  -2083530.57945  24142548.412    24142559.3574
  20388721.729   -26683042.382 9 -20271730.76447  20388720.932    20388726.1324
  24040914.727    -3141114.587 7  -2183444.19845  24040914.650    24040921.4884
  22154265.778   -16519073.044 8 -12568974.46347  22154265.391    22154271.5024
  23586349.746    -4358799.196 8  -3374166.73745  23586349.501    23586361.7484
 01  4 23  0 18  0.0000000  0 10 17 21 14 23 06 09 15 26 03 29
  20968531.917   -25622995.736 9 -19684794.56047  20968531.288    20968536.9154
  21748255.045   -21396152.676 9 -16120150.17747  21748254.477    21748260.4064
  23342656.344    -8397808.831 8  -6498011.90245  23342655.976    23342665.9704
  21189314.613   -23438328.410 9 -18216736.99447  21189313.973    21189319.1154
  24242876.792    -9036491.623 7  -7028864.78445  24242876.625    24242891.1164
  24131637.349    -2745779.302 7  -2128210.19245  24131636.946    24131647.8254
  20389449.963   -26679215.552 9 -20268748.80247  20389449.148    20389454.3764
  24060651.663    -3037396.542 7  -2102624.97145  24060651.527    24060658.3884
  22144173.433   -16572108.866 8 -12610301.02847  22144173.038    22144179.0974
  23566195.577    -4464708.117 7  -3456692.69945  23566195.413    23566207.3544
 01  4 23  0 18 30.0000000  0 10 17 21 14 23 06 09 15 26 03 29
  20974232.711   -25593037.839 9 -19661450.76647  20974232.091    20974237.7104
  21741495.567   -21431673.857 9 -16147828.97447  21741494.986    21741500.8954
  23321966.522    -8506532.477 8  -6582731.27145  23321966.200    23321976.2514
  21196276.962   -23401740.955 9 -18188227.30147  21196276.323    21196281.4544
  24264317.338    -8923823.357 7  -6941071.80745  24264316.942    24264331.6364
  24120782.329    -2802821.508 7  -2172658.48645  24120782.041    24120792.7844
  20390238.904   -26675069.628 9 -20265518.20547  20390238.122    20390243.3084
  24080434.114    -2933439.435 7  -2021619.45545  24080433.883    24080440.6374
  22134174.544   -16624653.011 8 -12651244.46947  22134174.150    22134180.2314
  23546068.100    -4570476.124 7  -3539108.85045  23546067.897    23546079.8764
 01  4 23  0 19  0.0000000  0 10 17 21 14 23 06 09 15 26 03 29
  20979993.476   -25562764.908 9 -19637861.48447  20979992.853    20979998.4854
  21734776.596   -21466981.997 9 -16175341.76247  21734776.028    21734781.9254
  23301309.587    -8615084.125 8  -6667316.63845  23301309.170    23301319.2204
  21203271.833   -23364982.593 9 -18159584.42347  21203271.181    21203276.3424
  24285769.433    -8811093.858 7  -6853231.11345  24285769.081    24285783.7494
  24109984.416    -2859563.294 7  -2216872.70345  24109984.255    24109995.1034
  20391088.785   -26670603.285 9 -20262037.93047  20391087.984    20391093.1704
  24100261.514    -2829245.770 8  -1940429.59145  24100261.366    24100268.1154
  22124269.620   -16676703.362 8 -12691803.13147  22124269.257    22124275.3554
  23525968.163    -4676100.201 7  -3621412.85945  23525967.952    23525979.8504
 01  4 23  0 19 30.0000000  0 10 17 21 14 23 06 09 15 26 03 29
  20985814.152   -25532177.074 9 -19614026.82647  20985813.524    20985819.1644
  21728097.939   -21502078.381 9 -16202689.55147  21728097.371    21728103.2514
  23280685.785    -8723461.621 8  -6751766.29445  23280685.387    23280695.3204
  21210298.871   -23328055.269 9 -18130809.89047  21210298.236    21210303.3874
  24307232.484    -8698306.194 7  -6765345.11345  24307232.143    24307247.0904
  24099244.348    -2916002.473 7  -2260851.10745  24099243.921    24099254.7774
  20391999.735   -26665816.125 9 -20258307.66947  20391998.943    20392004.1284
  24120133.296    -2724819.004 7  -1859058.06645  24120133.129    24120139.8054
  22114458.914   -16728258.850 8 -12731976.19147  22114458.539    22114464.6164
  23505895.837    -4781578.752 7  -3703603.49045  23505895.718    23505907.5344
 01  4 23  0 20  0.0000000  0 10 17 21 14 23 06 09 15 26 03 29
  20991694.943   -25501273.385 9 -19589946.04547  20991694.332    20991699.9434
  21721459.511   -21536963.588 9 -16229872.78847  21721458.917    21721464.7764
  23260095.712    -8831662.072 8  -6836078.00745  23260095.232    23260105.1364
  21217357.809   -23290960.140 9 -18101904.59647  21217357.179    21217362.3374
  24328706.183    -8585462.894 7  -6677415.76245  24328705.787    24328720.8484
  24088562.387    -2972135.797 7  -2304591.20345  24088562.055    24088572.7044
  20392971.971   -26660706.950 9 -20254326.49547  20392971.180    20392976.3894
  24140048.813    -2620161.946 7  -1777507.11745  24140048.552    24140055.3594
  22104742.715   -16779317.543 8 -12771762.13647  22104742.345    22104748.4134
  23485851.713    -4886909.070 7  -3785678.61345  23485851.614    23485863.4314
 01  4 23  0 20 30.0000000  0 10 17 21 14 23 06 09 15 26 03 29
  20997635.928   -25470053.321 9 -19565618.73847  20997635.319    20997640.9564
  21714861.130   -21571638.060 9 -16256891.81447  21714860.535    21714866.3884
  23239539.780    -8939683.141 8  -6920249.95845  23239539.282    23239549.1084
  21224448.408   -23253698.769 9 -18072869.75747  21224447.800    21224452.9414
  24350189.961    -8472566.421 7  -6589444.98445  24350189.534    24350204.7424
  24077939.101    -3027960.371 7  -2348090.68945  24077938.840    24077949.2374
  20394005.613   -26655275.176 9 -20250093.93847  20394004.834    20394010.0284
  24160007.602    -2515277.546 7  -1695779.04345  24160007.305    24160014.2024
  22095121.397   -16829877.698 8 -12811159.60847  22095121.026    22095127.1104
  23465836.134    -4992089.018 7  -3867636.57345  23465836.061    23465847.8314
 01  4 23  0 21  0.0000000  0 10 17 21 14 23 06 09 15 26 03 29
  21003637.548   -25438514.739 9 -19541043.23547  21003636.925    21003642.5584
  21708303.019   -21606100.890 9 -16283745.92847  21708302.445    21708308.2564
  23219018.662    -9047520.953 8  -7004279.11245  23219018.219    23219027.8854
  21231570.724   -23216270.968 9 -18043705.23947  21231570.090    21231575.2284
  24371683.742    -8359617.769 7  -6501433.56045  24371683.444    24371698.7384
  24067375.415    -3083472.049 7  -2391346.36545  24067375.272    24067385.5424
  20395101.095   -26649518.442 9 -20245608.16147  20395100.296    20395105.4974
  24180009.401    -2410167.390 7  -1613875.06245  24180009.238    24180015.9494
  22085595.555   -16879936.199 8 -12850166.19347  22085595.190    22085601.2324
  23445850.069    -5097114.743 8  -3949474.37645  23445849.987    23445861.5574
 01  4 23  0 21 30.0000000  0 10 17 21 14 23 06 09 15 26 03 29
  21009699.343   -25406660.029 9 -19516221.40347  21009698.728    21009704.3464
  21701784.431   -21640356.162 9 -16310438.30747  21701783.858    21701789.6524
  23198532.424    -9155175.805 8  -7088165.70645  23198531.981    23198541.5374
  21238723.843   -23178681.154 9 -18014414.47547  21238723.228    21238728.3424
  24393186.444    -8246622.603 7  -6413385.87345  24393186.178    24393201.5514
  24056871.331    -3138670.862 7  -2434358.24245  24056871.025    24056881.3624
  20396257.975   -26643438.802 9 -20240870.77747  20396257.195    20396262.3764
  24200053.090    -2304837.284 7  -1531799.64045  24200053.012    24200059.5604
  22076164.929   -16929494.389 8 -12888782.92747  22076164.559    22076170.5874
  23425893.152    -5201986.872 8  -4031192.50545  23425893.092    23425904.5564
 01  4 23  0 22  0.0000000  0 10 17 21 14 23 06 09 15 26 03 29
  21015821.657   -25374487.027 9 -19491151.54047  21015821.050    21015826.6344
  21695305.716   -21674401.789 9 -16336967.32147  21695305.153    21695310.9244
  23178081.764    -9262643.695 8  -7171906.60645  23178081.249    23178090.7724
  21245907.870   -23140928.973 9 -17984997.19047  21245907.244    21245912.3324
  24414697.793    -8133581.738 7  -6325302.57845  24414697.545    24414712.9224
  24046427.515    -3193552.304 7  -2477122.81945  24046427.166    24046437.5004
  20397476.795   -26637033.843 9 -20235879.89447  20397476.001    20397481.1894
  24220138.350    -2199288.613 7  -1449553.91645  24220138.327    24220144.6984
  22066830.168   -16978548.766 8 -12927007.06847  22066829.782    22066835.8224
  23405966.354    -5306701.309 8  -4112787.78845  23405966.297    23405977.7064
 01  4 23  0 22 30.0000000  0 10 17 21 14 23 06 09 15 26 03 29
  21022004.725   -25341994.701 9 -19465832.85447  21022004.129    21022009.7454
  21688866.773   -21708238.424 9 -16363333.48947  21688866.210    21688871.9714
  23157667.247    -9369921.444 8  -7255499.34945  23157666.771    23157676.1464
  21253122.543   -23103015.526 9 -17955454.24547  21253121.910    21253127.0194
  24436217.306    -8020497.527 7  -6237185.52245  24436217.118    24436232.6824
  24036044.748    -3248112.980 7  -2519637.46945  24036044.453    24036054.9414
  20398757.777   -26630302.264 9 -20230634.50147  20398756.994    20398762.1754
  24240264.708    -2093523.969 7  -1367139.90445  24240264.714    24240271.1454
  22057591.685   -17027097.568 8 -12964837.26547  22057591.267    22057597.2704
  23386069.998    -5411255.569 8  -4194258.25045  23386069.952    23386081.2154
 01  4 23  0 23  0.0000000  0 10 17 21 14 23 06 09 15 26 03 29
  21028248.748   -25309182.289 9 -19440264.75347  21028248.127    21028253.7274
  21682467.411   -21741867.276 9 -16389537.74847  21682466.831    21682472.5814
  23137289.397    -9477006.694 8  -7338942.10445  23137288.859    23137298.1734
  21260367.699   -23064942.000 9 -17925786.57747  21260367.074    21260372.1414
  24457744.775    -7907372.297 7  -6149036.50845  24457744.445    24457760.1134
  24025723.705    -3302349.837 7  -2561899.76045  24025723.528    24025733.9434
  20400101.148   -26623242.797 9 -20225133.60647  20400100.374    20400105.5334
  24260431.551    -1987546.201 7  -1284559.79445  24260431.642    24260437.9714
  22048449.705   -17075138.861 8 -13002272.00547  22048449.276    22048455.2474
  23366204.722    -5515646.987 8  -4275601.83745  23366204.634    23366215.7994
 01  4 23  0 23 30.0000000  0 10 17 21 14 23 06 09 15 26 03 29
  21034553.875   -25276048.746 9 -19414446.42247  21034553.262    21034558.8624
  21676107.561   -21775288.259 9 -16415580.02647  21676107.003    21676112.7364
  23116948.781    -9583896.208 8  -7422232.34445  23116948.261    23116957.4034
  21267643.212   -23026709.054 9 -17895994.66647  21267642.577    21267647.6284
  24479279.586    -7794208.057 7  -6060857.09345  24479279.326    24479294.9834
  24015464.847    -3356259.473 7  -2603907.08545  24015464.591    24015475.0084
  20401507.092   -26615854.453 9 -20219376.44847  20401506.301    20401511.4654
  24280638.523    -1881357.765 8  -1201815.55645  24280638.574    24280645.0484
  22039404.568   -17122670.696 8 -13039309.75847  22039404.188    22039410.1854
  23346370.875    -5619872.833 8  -4356816.41845  23346370.855    23346381.8714
 01  4 23  0 24  0.0000000  0 10 17 21 14 23 06 09 15 26 03 29
  21040919.820   -25242595.512 9 -19388378.97747  21040919.195    21040924.8284
  21669786.848   -21808503.710 9 -16441462.15747  21669786.289    21669791.9924
  23096645.575    -9690589.340 8  -7505369.57145  23096645.026    23096653.9674
  21274948.349   -22988320.170 9 -17866081.24947  21274947.720    21274952.7984
  24500820.964    -7681009.523 7  -5972650.96345  24500820.794    24500836.6454
  24005268.428    -3409840.895 7  -2645658.65345  24005268.389    24005278.5774
  20402975.428   -26608138.248 9 -20213363.81247  20402974.665    20402979.8174
  24300884.619    -1774963.605 8  -1118911.02045  24300884.737    24300891.2284
  22030456.445   -17169693.326 8 -13075950.73047  22030456.063    22030462.0174
  23326568.674    -5723932.760 8  -4437901.70845  23326568.603    23326579.5654
 01  4 23  0 24 30.0000000  0 10 17 21 14 23 06 09 15 26 03 29
  21047347.171   -25208819.802 9 -19362060.25547  21047346.545    21047352.1794
  21663505.501   -21841512.306 9 -16467183.09647  21663504.938    21663510.6454
  23076380.607    -9797081.364 8  -7588350.07945  23076380.055    23076388.8694
  21282283.390   -22949774.431 9 -17836045.61547  21282282.772    21282287.8274
  24522368.930    -7567776.895 7  -5884418.26845  24522368.666    24522384.5744
  23995135.474    -3463089.189 7  -2687150.66245  23995135.354    23995145.5124
  20404506.688   -26600091.223 9 -20207093.39647  20404505.914    20404511.0914
  24321169.768    -1668364.322 7  -1035846.65345  24321169.924    24321176.4154
  22021605.906   -17216203.132 8 -13112192.09347  22021605.500    22021611.4764
  23306798.933    -5827822.180 8  -4518854.15045  23306798.909    23306809.6394
 01  4 23  0 25  0.0000000  0  9 17 21 14 23 09 15 26 03 29
  21053836.573   -25174717.957 9 -19335487.40747  21053835.942    21053841.5564
  21657264.052   -21874311.133 9 -16492740.58447  21657263.478    21657269.1864
  23056155.024    -9903366.761 8  -7671169.59445  23056154.417    23056163.0694
  21289648.525   -22911070.253 9 -17805886.51047  21289647.894    21289652.9734
  23985067.188    -3515998.353 7  -2728378.42145  23985066.983    23985077.0474
  20406101.705   -26591709.504 9 -20200562.17747  20406100.930    20406106.0924
  24341493.999    -1561559.874 7   -952622.43145  24341493.984    24341500.5994
  22012853.734   -17262195.724 8 -13148030.44047  22012853.349    22012859.3454
  23287062.601    -5931535.930 8  -4599669.71145  23287062.563    23287073.1204
 01  4 23  0 25 30.0000000  0  9 17 21 14 23 09 15 26 03 29
  21060387.220   -25140294.128 9 -19308663.66347  21060386.588    21060392.1774
  21651061.471   -21906905.613 9 -16518138.83447  21651060.913    21651066.6164
  23035968.191   -10009447.735 8  -7753829.81445  23035967.642    23035976.2174
  21297042.736   -22872213.473 9 -17775608.50347  21297042.124    21297047.1784
  23975063.064    -3568570.121 7  -2769343.27145  23975062.889    23975072.7664
  20407759.692   -26582996.699 9 -20193772.96547  20407758.902    20407764.0644
  24361855.883    -1454557.840 7   -869244.24245  24361855.848    24361862.5014
  22004199.509   -17307673.874 8 -13183467.92047  22004199.100    22004205.1224
  23267359.308    -6035076.203 8  -4680350.10145  23267359.213    23267369.6244
 01  4 23  0 26  0.0000000  0  9 17 21 14 23 09 15 26 03 29
  21066999.113   -25105548.469 9 -19281589.14347  21066998.460    21067004.0944
  21644897.554   -21939297.126 9 -16543378.92547  21644896.980    21644902.6774
  23015820.656   -10115322.589 8  -7836329.42945  23015820.080    23015828.6504
  21304465.629   -22833206.169 9 -17745213.20547  21304464.996    21304470.0434
  23965123.397    -3620802.498 7  -2810043.65845  23965123.221    23965133.1894
  20409480.709   -26573952.635 9 -20186725.63447  20409479.911    20409485.0844
  24382254.643    -1347361.763 7   -785714.76245  24382254.517    24382261.3064
  21995643.278   -17352636.998 8 -13218504.08447  21995642.874    21995648.8724
  23247689.382    -6138441.396 8  -4760894.06645  23247689.171    23247699.5284
 01  4 23  0 26 30.0000000  0  9 17 21 14 23 09 15 26 03 29
  21073672.594   -25070479.047 9 -19254262.33747  21073671.981    21073677.6234
  21638772.251   -21971485.330 9 -16568460.59847  21638771.700    21638777.4314
  22995713.107   -10220987.397 8  -7918665.37346  22995712.510    22995721.0364
  21311917.119   -22794048.312 9 -17714700.59147  21311916.467    21311921.5244
  23955249.172    -3672691.601 7  -2850476.58645  23955248.966    23955258.8494
  20411265.184   -26564575.157 9 -20179418.49847  20411264.376    20411269.5504
  24402689.949    -1239973.254 7   -702035.35345  24402689.830    24402696.5114
  21987185.696   -17397081.990 8 -13253136.51247  21987185.278    21987191.2114
  23228053.389    -6241627.903 8  -4841298.80545  23228053.144    23228063.3494
 01  4 23  0 27  0.0000000  0  9 17 21 14 23 09 15 26 03 29
  21080407.781   -25035085.389 9 -19226682.88147  21080407.168    21080412.8244
  21632685.575   -22003470.921 9 -16593384.38847  21632685.014    21632690.7404
  22975646.063   -10326439.545 8  -8000835.62246  22975645.412    22975653.9784
  21319397.034   -22754741.038 9 -17684071.54547  21319396.409    21319401.4444
  23945440.779    -3724234.419 7  -2890639.67245  23945440.567    23945450.5144
  20413113.203   -26554863.609 9 -20171851.04147  20413112.416    20413117.5694
  24423161.226    -1132395.350 7   -618208.34845  24423161.157    24423167.7874
  21978826.871   -17441007.499 8 -13287364.14647  21978826.485    21978832.4504
  23208451.766    -6344633.469 8  -4921562.54945  23208451.594    23208461.6594
 01  4 23  0 27 30.0000000  0  9 17 21 14 23 09 15 26 03 29
  21087204.851   -24999366.404 9 -19198849.92547  21087204.242    21087209.9204
  21626637.525   -22035253.540 9 -16618150.01647  21626636.961    21626642.6824
  22955620.026   -10431676.024 8  -8082837.81546  22955619.396    22955627.9074
  21326905.228   -22715285.148 9 -17653326.70647  21326904.601    21326909.6384
  23935698.997    -3775427.559 7  -2930530.29645  23935698.810    23935708.6074
  20415025.079   -26544816.609 9 -20164022.19747  20415024.273    20415029.4274
  24443668.196    -1024630.348 7   -534235.58445  24443668.200    24443674.8694
  21970567.336   -17484411.459 8 -13321185.37947  21970566.953    21970572.9044
  23188885.081    -6447455.192 8  -5001683.04645  23188884.970    23188895.0474
 01  4 23  0 28  0.0000000  0  9 17 21 14 23 09 15 26 03 29
  21094063.968   -24963321.602 9 -19170763.08947  21094063.364    21094069.0564
  21620627.886   -22066834.207 9 -16642758.28347  21620627.321    21620633.0174
  22935635.445   -10536694.604 8  -8164670.22046  22935634.800    22935643.2414
  21334441.457   -22675681.973 9 -17622467.09547  21334440.834    21334445.8814
  23926024.312    -3826268.143 8  -2970146.18045  23926024.059    23926033.7924
  20417000.977   -26534433.261 9 -20155931.26247  20417000.195    20417005.3104
  24464210.252     -916681.055 7   -450119.19145  24464210.300    24464216.8944
  21962407.302   -17527292.628 8 -13354599.23547  21962406.942    21962412.8314
  23169353.847    -6550090.692 8  -5081658.43145  23169353.780    23169363.8554
 01  4 23  0 28 30.0000000  0  9 17 21 14 23 09 15 26 03 29
  21100985.089   -24926951.112 9 -19142422.47447  21100984.472    21100990.1524
  21614656.440   -22098214.175 9 -16667210.16247  21614655.885    21614661.5374
  22915692.566   -10641493.518 8  -8246331.45846  22915691.987    22915700.3624
  21342005.338   -22635933.575 9 -17591494.32747  21342004.728    21342009.7724
  23916417.120    -3876754.022 7  -3009485.66945  23916416.779    23916426.6394
  20419040.802   -26523713.720 9 -20147578.36047  20419040.023    20419045.1394
  24484786.655     -808551.377 7   -365862.28545  24484786.685    24484793.3624
  21954346.915   -17569650.079 8 -13387605.00047  21954346.542    21954352.4274
  23149858.465    -6652538.660 8  -5161487.69445  23149858.317    23149868.3184
 01  4 23  0 29  0.0000000  0  9 17 21 14 23 09 15 26 03 29
  21107968.555   -24890252.791 9 -19113826.40947  21107967.938    21107973.6244
  21608723.388   -22129392.402 9 -16691504.84047  21608722.823    21608728.4724
  22895792.400   -10746068.231 8  -8327818.01346  22895791.883    22895800.2054
  21349596.960   -22596039.416 9 -17560407.98447  21349596.332    21349601.3954
  23906878.215    -3926880.752 8  -3048545.32045  23906877.913    23906887.7574
  20421145.170   -26512655.264 9 -20138961.37647  20421144.376    20421149.4844
  24505397.017     -700242.245 7   -281465.56145  24505396.987    24505404.0054
  21946386.765   -17611480.826 8 -13420200.35147  21946386.373    21946392.2794
  23130399.513    -6754794.791 8  -5241167.48545  23130399.318    23130409.3474
 01  4 23  0 29 30.0000000  0 10 17 21 14 31 23 09 15 26 03 29
  21115013.140   -24853233.248 9 -19084980.03247  21115012.531    21115018.2404
  21602827.243   -22160376.642 9 -16715648.36047  21602826.685    21602832.3094
  22875934.044   -10850423.777 8  -8409133.78346  22875933.482    22875941.7554
  24458720.232    -3457253.486 7  -2682071.03845  24458719.651    24458727.6274
  21357214.644   -22556008.048 9 -17529214.71547  21357214.028    21357219.0964
  23897406.727    -3976652.953 8  -3087328.69445  23897406.480    23897416.3504
  20423312.758   -26501264.480 9 -20130085.43247  20423311.965    20423317.0804
  24526039.697     -591763.777 7   -196936.80745  24526039.726    24526046.6864
  21938525.648   -17652791.020 8 -13452390.06947  21938525.265    21938531.1874
  23110976.048    -6856864.328 8  -5320701.87646  23110975.935    23110985.8134
 01  4 23  0 30  0.0000000  0  9 17 21 14 31 23 09 15 03 29
  21122120.110   -24815886.046 9 -19055878.34147  21122119.481    21122125.2024
  21596969.013   -22191161.690 9 -16739636.65947  21596968.450    21596974.0894
  22856119.048   -10954551.344 8  -8490271.90946  22856118.489    22856126.7514
  24441642.210    -3546999.215 7  -2752002.75545  24441641.674    24441649.5724
  21364859.410   -22515834.602 9 -17497910.73247  21364858.776    21364863.8704
  23888004.422    -4026061.711 7  -3125828.87245  23888004.229    23888013.9544
  20425544.897   -26489534.397 9 -20120945.09847  20425544.110    20425549.2164
  21930765.085   -17693572.799 8 -13484168.03447  21930764.718    21930770.6484
  23091589.800    -6958738.681 8  -5400084.18846  23091589.646    23091599.5284
 01  4 23  0 30 30.0000000  0  9 17 21 14 31 23 09 15 03 29
  21129290.101   -24778207.479 9 -19026518.44247  21129289.487    21129295.2224
  21591149.154   -22221745.023 9 -16763467.78547  21591148.599    21591154.2224
  22836348.546   -11058445.325 8  -8571228.03346  22836347.975    22836356.1524
  24424622.474    -3636438.101 7  -2821695.39645  24424622.015    24424629.6424
  21372531.480   -22475517.374 9 -17466494.72047  21372530.855    21372535.9674
  23878672.398    -4075101.221 8  -3164041.30545  23878672.190    23878681.8294
  20427842.356   -26477461.182 9 -20111537.39447  20427841.560    20427846.6764
  21923105.937   -17733821.865 8 -13515530.91047  21923105.560    21923111.4694
  23072241.603    -7060412.682 8  -5479310.38446  23072241.500    23072251.3164
 01  4 23  0 31  0.0000000  0  9 17 21 14 31 23 09 15 03 29
  21136523.028   -24740198.303 8 -18996900.92947  21136522.400    21136528.1414
  21585367.298   -22252128.677 9 -16787143.31947  21585366.732    21585372.3204
  22816622.773   -11162104.563 8  -8652001.23646  22816622.142    22816630.2304
  24407661.493    -3725568.408 7  -2891147.54945  24407660.879    24407668.5484
  21380230.468   -22435058.693 9 -17434968.48447  21380229.855    21380235.0134
  23869410.962    -4123769.617 7  -3201964.58645  23869410.771    23869420.2894
  20430205.049   -26465045.130 9 -20101862.55447  20430204.244    20430209.3604
  21915548.196   -17773537.896 8 -13546478.42947  21915547.832    21915553.7264
  23052932.000    -7161885.013 8  -5558379.44346  23052931.748    23052941.5194
 01  4 23  0 31 30.0000000  0  9 17 21 14 31 23 09 15 03 29
  21143818.986   -24701857.899 8 -18967025.30947  21143818.359    21143824.0544
  21579623.558   -22282312.188 9 -16810662.88947  21579622.968    21579628.5474
  22796942.015   -11265526.436 8  -8732589.48446  22796941.456    22796949.4534
  24390759.709    -3814387.499 8  -2960357.18645  24390759.229    24390766.8334
  21387956.164   -22394459.733 9 -17403332.93847  21387955.566    21387960.7414
  23860220.593    -4172064.539 8  -3239596.82945  23860220.364    23860229.9404
  20432633.147   -26452285.401 9 -20091919.90947  20432632.333    20432637.4674
  21908092.079   -17812719.713 8 -13577009.67847  21908091.724    21908097.6554
  23033661.137    -7263153.350 8  -5637289.54846  23033660.879    23033670.5194
 01  4 23  0 32  0.0000000  0  9 17 21 14 31 23 09 15 03 29
  21151177.753   -24663187.367 8 -18936892.44947  21151177.115    21151182.8204
  21573917.239   -22312298.665 9 -16834028.92847  21573916.678    21573922.2664
  22777306.676   -11368710.044 8  -8812992.08646  22777306.099    22777314.0684
  24373917.332    -3902894.477 7  -3029323.62845  24373916.859    24373924.3124
  21395708.076   -22353723.188 9 -17371590.17947  21395707.460    21395712.6574
  23851101.617    -4219984.705 8  -3276937.07545  23851101.386    23851111.0094
  20435126.481   -26439182.840 9 -20081710.12247  20435125.667    20435130.7924
  21900737.592   -17851367.541 8 -13607124.83047  21900737.245    21900743.1644
  23014429.065    -7364216.991 8  -5716040.17046  23014428.873    23014438.4134
 01  4 23  0 32 30.0000000  0  9 17 21 14 31 23 09 15 03 29
  21158599.547   -24624185.380 8 -18906501.31447  21158598.907    21158604.6724
  21568248.480   -22342088.021 9 -16857241.36847  21568247.913    21568253.5024
  22757717.353   -11471651.905 8  -8893206.29846  22757716.771    22757724.6654
  24357134.978    -3991085.770 7  -3098044.08545  24357134.247    24357141.8894
  21403486.178   -22312849.255 9 -17339740.35647  21403485.565    21403490.7194
  23842054.678    -4267526.370 7  -3313982.35845  23842054.360    23842064.0424
  20437685.365   -26425735.674 9 -20071231.81547  20437684.585    20437689.7214
  21893485.202   -17889479.168 8 -13636822.17447  21893484.856    21893490.7384
  22995236.610    -7465072.830 8  -5794628.86246  22995236.419    22995245.8584
 01  4 23  0 33  0.0000000  0  9 17 21 14 31 23 09 15 03 29
  21166084.433   -24584851.822 8 -18875851.80647  21166083.825    21166089.6204
  21562617.093   -22371681.082 9 -16880300.85747  21562616.531    21562622.1214
  22738174.416   -11574350.014 8  -8973230.60446  22738173.830    22738181.5744
  24340413.030    -4078959.377 7  -3166516.95845  24340412.423    24340420.1304
  21411290.060   -22271839.597 9 -17307784.77947  21411289.423    21411294.5704
  23833080.215    -4314687.075 7  -3350730.82145  23833079.862    23833089.4854
  20440309.906   -26411943.597 9 -20060484.73847  20440309.098    20440314.2424
  21886334.968   -17927053.755 8 -13666101.03747  21886334.616    21886340.4894
  22976084.094    -7565719.020 8  -5873054.20646  22976083.869    22976093.1924
 01  4 23  0 33 30.0000000  0  9 17 21 14 31 23 09 15 03 29
  21173632.534   -24545186.251 8 -18844943.58847  21173631.960    21173637.7404
  21557022.969   -22401078.347 9 -16903207.77847  21557022.394    21557027.9644
  22718678.308   -11676801.873 8  -9053063.00746  22718677.717    22718685.4244
  24323752.113    -4166513.086 7  -3234740.52945  24323751.417    24323759.2034
  21419119.517   -22230695.595 9 -17275724.51447  21419118.863    21419124.0354
  23824178.574    -4361464.321 7  -3387180.46445  23824178.205    23824187.9424
  20443000.262   -26397805.707 9 -20049468.20447  20442999.456    20443004.5964
  21879287.118   -17964090.169 8 -13694960.55447  21879286.755    21879292.6454
  22956971.881    -7666153.184 8  -5951314.33146  22956971.660    22956980.9234
 01  4 23  0 34  0.0000000  0  9 17 21 14 31 23 09 15 03 29
  21181243.775   -24505189.092 8 -18813776.99047  21181243.190    21181248.9474
  21551465.768   -22430281.519 9 -16925963.45747  21551465.201    21551470.7794
  22699229.296   -11779006.003 8  -9132702.37746  22699228.751    22699236.3814
  24307152.308    -4253745.021 7  -3302713.36545  24307151.689    24307159.4904
  21426974.121   -22189419.242 9 -17243561.11647  21426973.505    21426978.6354
  23815350.308    -4407856.462 8  -3423330.02745  23815349.947    23815359.6704
  20445756.400   -26383322.115 9 -20038182.28847  20445755.598    20445760.7224
  21872341.812   -18000587.867 8 -13723400.28947  21872341.443    21872347.3294
  22937900.299    -7766374.009 8  -6029408.21846  22937900.143    22937909.2514
 01  4 23  0 34 30.0000000  0  9 17 21 14 31 23 09 15 03 29
  21188918.383   -24464859.030 8 -18782350.98547  21188917.768    21188923.5364
  21545945.579   -22459290.069 9 -16948567.48147  21545945.003    21545950.5694
  22679828.110   -11880959.033 8  -9212146.09146  22679827.522    22679835.1494
  24290614.457    -4340651.770 7  -3370432.81445  24290613.779    24290621.5644
  21434853.852   -22148010.859 9 -17211294.84747  21434853.230    21434858.3914
  23806596.023    -4453859.987 8  -3459176.78345  23806595.637    23806605.3354
  20448578.615   -26368491.247 9 -20026625.76547  20448577.824    20448582.9414
  21865499.347   -18036545.042 8 -13751418.83647  21865498.970    21865504.8444
  22918869.845    -7866378.459 8  -6107333.51546  22918869.707    22918878.7284
 01  4 23  0 35  0.0000000  0  9 17 21 14 31 23 09 15 03 29
  21196656.381   -24424195.533 8 -18750665.15947  21196655.800    21196661.5824
  21540462.258   -22488104.736 9 -16971020.42947  21540461.689    21540467.2434
  22660475.207   -11982658.225 8  -9291392.00546  22660474.660    22660482.2034
  24274139.053    -4427230.380 7  -3437896.53645  24274138.314    24274146.3484
  21442758.506   -22106471.506 9 -17178926.51147  21442757.908    21442763.0614
  23797916.386    -4499471.953 7  -3494718.41645  23797915.896    23797925.5424
  20451467.137   -26353312.032 9 -20014797.80447  20451466.335    20451471.4594
  21858760.123   -18071959.940 8 -13779014.83047  21858759.746    21858765.6184
  22899881.082    -7966164.043 8  -6185088.26346  22899880.913    22899889.8444
 01  4 23  0 35 30.0000000  0  9 17 21 14 31 23 09 15 03 29
  21204457.890   -24383198.508 8 -18718719.44647  21204457.310    21204463.0884
  21535015.712   -22516726.569 9 -16993323.12247  21535015.149    21535020.6584
  22641171.026   -12084101.597 8  -9370438.59646  22641170.464    22641177.9264
  24257726.312    -4513479.053 7  -3505103.17845  24257725.656    24257733.7094
  21450687.805   -22064803.008 9 -17146457.55447  21450687.198    21450692.3704
  23789311.401    -4544690.101 7  -3529953.15845  23789311.063    23789320.6734
  20454421.947   -26337784.435 9 -20002698.38147  20454421.149    20454426.2344
  21852124.137   -18106832.062 8 -13806187.88447  21852123.789    21852129.6474
  22880934.367    -8065728.938 8  -6262671.05346  22880934.109    22880943.0164
 01  4 23  0 36  0.0000000  0  9 17 21 14 31 23 09 15 03 29
  21212323.020   -24341867.239 8 -18686513.28347  21212322.435    21212328.1894
  21529605.788   -22545155.793 9 -17015475.72747  21529605.195    21529610.7074
  22621916.045   -12185286.625 8  -9449283.87146  22621915.444    22621922.8764
  24241377.254    -4599394.798 7  -3572050.43145  24241376.524    24241384.5114
  21458641.572   -22023005.753 9 -17113888.26347  21458640.942    21458646.1154
  23780782.059    -4589511.509 8  -3564878.76645  23780781.638    23780791.3084
  20457443.304   -26321907.308 9 -19990326.59347  20457442.497    20457447.5574
  21845591.742   -18141159.948 8 -13832936.85447  21845591.372    21845597.1984
  22862030.045    -8165070.573 8  -6340079.86546  22862029.797    22862038.6854
 01  4 23  0 36 30.0000000  0  9 17 21 14 31 23 09 15 03 29
  21220251.761   -24300201.561 8 -18654046.54047  21220251.176    21220256.9184
  21524232.355   -22573393.196 9 -17037478.85647  21524231.784    21524237.2864
  22602710.620   -12286210.952 8  -9527926.00446  22602710.000    22602717.3684
  24225091.715    -4684975.568 7  -3638736.66045  24225090.999    24225098.9044
  21466619.495   -21981081.301 9 -17081219.84947  21466618.879    21466624.0534
  23772328.621    -4633933.785 7  -3599493.35245  23772328.300    23772337.8374
  20460531.255   -26305679.952 9 -19977681.90247  20460530.450    20460535.5184
  21839163.070   -18174942.790 8 -13859261.11747  21839162.682    21839168.5144
  22843168.616    -8264186.929 8  -6417313.15046  22843168.384    22843177.2444
 01  4 23  0 37  0.0000000  0  9 17 21 14 31 23 09 15 03 29
  21228244.183   -24258201.082 8 -18621318.92047  21228243.602    21228249.3754
  21518895.221   -22601439.867 9 -17059333.37647  21518894.649    21518900.1464
  22583555.314   -12386871.941 8  -9606362.95346  22583554.711    22583562.0094
  24208870.407    -4770218.717 7  -3705159.79545  24208869.618    24208877.5554
  21474621.458   -21939030.811 9 -17048453.23147  21474620.819    21474626.0264
  23763951.608    -4677954.215 7  -3633794.80645  23763951.299    23763960.8134
  20463686.017   -26289101.722 9 -19964763.80147  20463685.215    20463690.2824
  21832838.354   -18208179.387 8 -13885159.73947  21832837.961    21832843.7734
  22824350.628    -8363075.710 8  -6494369.11646  22824350.361    22824359.1284
 01  4 23  0 37 30.0000000  0  9 17 21 14 31 23 09 15 03 29
  21236300.557   -24215864.750 8 -18588329.59347  21236299.985    21236305.7424
  21513594.504   -22629295.047 9 -17081038.67747  21513593.949    21513599.4324
  22564450.588   -12487266.848 8  -9684592.55746  22564450.027    22564457.2764
  24192713.809    -4855121.300 7  -3771317.57145  24192713.133    24192720.9604
  21482647.275   -21896854.792 9 -17015588.79947  21482646.643    21482651.8134
  23755651.602    -4721569.554 7  -3667780.61545  23755651.415    23755660.9164
  20466907.710   -26272171.495 9 -19951571.41747  20466906.915    20466912.0044
  21826617.877   -18240868.068 8 -13910631.40647  21826617.507    21826623.3074
  22805576.288    -8461734.345 8  -6571245.73546  22805576.069    22805584.8184
 01  4 23  0 38  0.0000000  0  9 17 21 14 31 23 09 15 03 29
  21244420.803   -24173192.786 8 -18555078.73847  21244420.204    21244425.9644
  21508329.840   -22656960.691 9 -17102596.28947  21508329.293    21508334.8014
  22545396.952   -12587393.618 8  -9762613.22446  22545396.417    22545403.6194
  24176622.435    -4939681.511 7  -3837208.55345  24176621.793    24176629.7234
  21490696.739   -21854554.874 9 -16982627.83047  21490696.111    21490701.2294
  23747429.254    -4764777.904 7  -3701449.29745  23747429.147    23747438.5634
  20470196.465   -26254888.812 9 -19938104.39047  20470195.688    20470200.7644
  21820501.807   -18273008.253 8 -13935675.67547  21820501.421    21820507.2164
  22786846.181    -8560160.857 8  -6647941.49346  22786845.926    22786854.6724
 01  4 23  0 38 30.0000000  0  9 17 21 14 31 23 09 15 03 29
  21252605.127   -24130183.899 8 -18521565.34547  21252604.538    21252610.3104
  21503101.345   -22684436.598 9 -17124006.05247  21503100.763    21503106.2624
  22526395.032   -12687248.950 8  -9840422.39746  22526394.432    22526401.5964
  24160597.016    -5023895.624 8  -3902829.85545  24160596.397    24160604.2424
  21498769.691   -21812131.233 9 -16949570.44847  21498769.082    21498774.1834
  23739284.820    -4807575.963 7  -3734798.26345  23739284.795    23739294.1104
  20473552.588   -26237252.486 9 -19924361.79347  20473551.805    20473556.8824
  21814490.442   -18304598.060 8 -13960291.07247  21814490.023    21814495.8714
  22768160.701    -8658352.359 8  -6724454.12946  22768160.531    22768169.1574
 01  4 23  0 39  0.0000000  0  9 17 21 14 31 23 09 15 03 29
  21260853.300   -24086839.495 8 -18487790.51447  21260852.718    21260858.5064
  21497908.576   -22711724.793 9 -17145269.54847  21497907.998    21497913.4584
  22507444.863   -12786832.058 8  -9918019.43146  22507444.281    22507451.4044
  24144637.625    -5107762.929 8  -3968180.91145  24144637.026    24144644.8404
  21506865.650   -21769586.670 9 -16916418.83447  21506865.047    21506870.1364
  23731218.897    -4849962.604 7  -3767826.65745  23731218.729    23731228.0254
  20476975.828   -26219263.175 9 -19910344.14847  20476975.045    20476980.1264
  21808583.679   -18335638.188 8 -13984478.14747  21808583.272    21808589.0964
  22749520.103    -8756308.167 8  -6800783.10746  22749520.006    22749528.5284
 01  4 23  0 39 30.0000000  0  9 17 21 14 31 23 09 15 03 29
  21269165.563   -24043158.360 8 -18453753.29147  21269164.974    21269170.7754
  21492751.589   -22738824.899 9 -17166386.47847  21492750.998    21492756.4574
  22488547.039   -12886140.054 8  -9995402.10146  22488546.463    22488553.5804
  24128744.758    -5191280.466 8  -4033259.43845  24128744.158    24128751.9224
  21514984.518   -21726921.630 9 -16883173.36147  21514983.907    21514989.0144
  23723231.912    -4891934.645 7  -3800531.97645  23723231.629    23723240.7854
  20480466.514   -26200919.358 9 -19896050.26947  20480465.729    20480470.8124
  21802781.818   -18366126.990 8 -14008235.62747  21802781.409    21802787.2014
  22730925.015    -8854025.399 8  -6876926.18846  22730924.868    22730933.3084
 01  4 23  0 40  0.0000000  0  9 17 21 14 31 23 09 15 03 29
  21277542.170   -23999139.060 8 -18419452.56547  21277541.594    21277547.3884
  21487630.389   -22765736.883 9 -17187356.82047  21487629.804    21487635.2494
  22469702.258   -12985169.160 8 -10072567.45946  22469701.710    22469708.7174
  24112919.063    -5274444.609 8  -4098062.58145  24112918.454    24112926.3114
  21523126.353   -21684136.095 9 -16849833.99247  21523125.740    21523130.8074
  23715324.317    -4933488.546 7  -3832911.51345  23715324.083    23715333.2364
  20484025.030   -26182219.413 9 -19881478.88047  20484024.235    20484029.3154
  21797085.237   -18396062.401 8 -14031561.88947  21797084.862    21797090.6334
  22712375.882    -8951500.878 8  -6952880.89346  22712375.729    22712384.1274
 01  4 23  0 40 30.0000000  0  9 17 21 14 31 23 09 15 03 29
  21285982.982   -23954782.395 8 -18384888.95747  21285982.381    21285988.1874
  21482544.639   -22792462.245 9 -17208181.74147  21482544.094    21482549.5214
  22450910.787   -13083918.372 8 -10149514.71846  22450910.228    22450917.1414
  24097160.897    -5357253.618 8  -4162589.00545  24097160.393    24097168.1174
  21531290.697   -21641232.309 9 -16816402.47947  21531290.058    21531295.1654
  23707496.823    -4974622.681 7  -3864963.94245  23707496.392    23707505.5374
  20487651.133   -26163163.865 9 -19866630.39647  20487650.355    20487655.4394
  21791494.028   -18425444.538 8 -14054457.02947  21791493.623    21791499.3804
  22693872.972    -9048733.441 8  -7028646.29946  22693872.799    22693881.1504
 01  4 23  0 41  0.0000000  0  9 17 21 14 31 23 09 15 03 29
  21294487.998   -23910088.049 8 -18350062.22547  21294487.413    21294493.2514
  21477494.334   -22819001.720 9 -17228861.82047  21477493.800    21477499.2254
  22432173.037   -13182385.011 8 -10226241.79546  22432172.491    22432179.3574
  24081470.876    -5439705.120 7  -4226836.86645  24081470.405    24081477.9274
  21539477.232   -21598211.438 9 -16782879.73647  21539476.631    21539481.7754
  23699749.409    -5015334.834 7  -3896687.53345  23699748.976    23699758.1374
  20491345.095   -26143751.866 9 -19851504.16047  20491344.318    20491349.4014
  21786008.134   -18454272.875 8 -14076920.64647  21786007.761    21786013.4934
  22675416.692    -9145721.000 8  -7104220.79746  22675416.466    22675424.7604
 01  4 23  0 41 30.0000000  0  9 17 21 14 31 23 09 15 03 29
  21303057.670   -23865054.304 8 -18314971.03047  21303057.080    21303062.9374
  21472479.463   -22845354.905 9 -17249396.73047  21472478.912    21472484.3134
  22413489.778   -13280565.584 8 -10302745.96046  22413489.205    22413496.0784
  24065849.530    -5521795.325 7  -4290803.19045  24065849.039    24065856.4614
  21547686.189   -21555073.166 9 -16749265.51147  21547685.568    21547690.7174
  23692083.065    -5055621.122 7  -3928079.28745  23692082.663    23692091.7324
  20495107.340   -26123981.328 9 -19836098.54647  20495106.563    20495111.6304
  21780628.168   -18482544.586 8 -14098950.51947  21780627.775    21780633.5394
  22657007.695    -9242459.862 8  -7179601.52746  22657007.520    22657015.7504
 01  4 23  0 42  0.0000000  0  9 17 21 14 31 23 09 15 03 29
  21311691.730   -23819682.176 8 -18279616.16247  21311691.133    21311697.0094
  21467499.655   -22871523.624 9 -17269787.90447  21467499.120    21467504.5714
  22394861.132   -13378458.897 8 -10379026.28846  22394860.521    22394867.4324
  24050297.151    -5603523.231 8  -4354487.19045  24050296.696    24050304.0764
  21555917.068   -21511819.909 9 -16715561.69147  21555916.419    21555921.5724
  23684497.978    -5095480.270 7  -3959138.20645  23684497.664    23684506.5514
  20498937.649   -26103852.834 9 -19820414.00547  20498936.871    20498941.9334
  21775354.123   -18510259.902 8 -14120546.84147  21775353.736    21775359.4944
  22638646.254    -9338949.156 8  -7254787.78546  22638646.052    22638654.2134
 01  4 23  0 42 30.0000000  0  9 17 21 14 31 23 09 15 03 29
  21320390.287   -23773971.268 8 -18243997.30647  21320389.671    21320395.5324
  21462554.983   -22897507.966 9 -17290035.41547  21462554.443    21462559.8794
  22376287.596   -13476062.441 8 -10455080.82546  22376287.009    22376293.9164
  24034814.298    -5684886.240 7  -4417886.86145  24034813.845    24034821.1424
  21564169.562   -21468452.757 9 -16681769.11547  21564168.936    21564174.0824
  23676994.747    -5134909.634 7  -3989862.22045  23676994.508    23677003.2494
  20502836.214   -26083365.694 9 -19804449.99947  20502835.432    20502840.5074
  21770186.084   -18537418.313 8 -14141709.21647  21770185.684    21770191.3974
  22620332.676    -9435186.785 8  -7329777.93846  22620332.510    22620340.5974
 01  4 23  0 43  0.0000000  0  9 17 21 14 31 23 09 15 03 29
  21329153.452   -23727920.496 8 -18208113.61947  21329152.835    21329158.6874
  21457645.308   -22923308.473 9 -17310139.66447  21457644.732    21457650.1494
  22357769.863   -13573373.182 8 -10530907.20546  22357769.249    22357776.1634
  24019401.260    -5765881.389 7  -4480999.90545  24019400.775    24019408.1864
  21572443.683   -21424971.956 9 -16647887.97747  21572443.048    21572448.1984
  23669573.879    -5173906.280 7  -4020249.03045  23669573.486    23669582.3174
  20506803.308   -26062518.624 9 -19788205.53447  20506802.536    20506807.5784
  21765124.240   -18564018.261 8 -14162436.42247  21765123.828    21765129.5474
  22602067.512    -9531169.780 8  -7404569.67346  22602067.324    22602075.3664
 01  4 23  0 43 30.0000000  0  9 17 21 14 31 23 09 15 03 29
  21337981.433   -23681529.437 8 -18171964.77747  21337980.833    21337986.6644
  21452770.533   -22948925.141 9 -17330100.66847  21452769.986    21452775.4314
  22339308.246   -13670388.766 8 -10606503.58946  22339307.670    22339314.5334
  24004058.809    -5846506.175 7  -4543824.32745  24004058.327    24004065.7544
  21580739.315   -21381378.100 9 -16613918.74847  21580738.676    21580743.8264
  23662235.707    -5212467.531 7  -4050296.59245  23662235.335    23662244.1664
  20510839.070   -26041310.675 9 -19771679.85647  20510838.292    20510843.3464
  21760168.797   -18590058.904 8 -14182727.81447  21760168.439    21760174.1654
  22583851.283    -9626895.800 8  -7479161.18346  22583851.135    22583859.1024
 01  4 23  0 44  0.0000000  0  9 17 21 14 31 23 09 15 03 29
  21346874.066   -23634798.714 8 -18135551.25647  21346873.417    21346879.2564
  21447930.540   -22974359.453 9 -17349919.57747  21447929.987    21447935.4094
  22320903.133   -13767107.536 8 -10681868.69546  22320902.571    22320909.3434
  23988787.088    -5926759.019 7  -4606358.92245  23988786.619    23988793.9874
  21589056.072   -21337673.337 9 -16579863.09247  21589055.438    21589060.5644
  23654980.686    -5250591.996 7  -4080003.79445  23654980.368    23654989.1734
  20514943.394   -26019742.206 9 -19754873.25847  20514942.611    20514947.6804
  21755319.901   -18615540.010 8 -14202583.20347  21755319.546    21755325.2774
  22565684.187    -9722363.620 8  -7553551.49846  22565684.033    22565691.9814
 01  4 23  0 44 30.0000000  0  9 17 21 14 31 23 09 15 03 29
  21355831.479   -23587727.165 8 -18098872.15947  21355830.846    21355836.7134
  21443125.203   -22999611.538 9 -17369596.49047  21443124.644    21443130.0504
  22302555.134   -13863526.389 8 -10757000.10146  22302554.583    22302561.2784
  23973586.824    -6006636.386 7  -4668600.96545  23973586.411    23973593.7224
  21597393.931   -21293857.724 9 -16545721.06247  21597393.286    21597398.4334
  23647809.454    -5288276.465 7  -4109368.13845  23647809.093    23647817.8854
  20519116.639   -25997811.709 9 -19737784.55647  20519115.862    20519120.9374
  21750577.824   -18640459.796 8 -14222001.19447  21750577.459    21750583.1724
  22547566.867    -9817570.180 8  -7627738.23046  22547566.675    22547574.5424
 01  4 23  0 45  0.0000000  0  9 17 21 14 31 23 09 15 03 29
  21364853.771   -23540314.896 8 -18061927.56947  21364853.140    21364859.0134
  21438354.336   -23024682.584 9 -17389132.34447  21438353.777    21438359.1434
  22284264.609   -13959643.272 8 -10831896.21846  22284264.026    22284270.6784
  23958458.465    -6086136.369 7  -4730548.92345  23958458.065    23958465.3004
  21605752.569   -21249932.777 9 -16511493.84347  21605751.929    21605757.0754
  23640722.396    -5325518.826 8  -4138387.99145  23640721.979    23640730.7334
  20523358.812   -25975518.947 9 -19720413.57647  20523358.025    20523363.1044
  21745942.544   -18664818.257 8 -14240981.80247  21745942.168    21745947.8354
  22529499.482    -9912513.737 8  -7701720.02546  22529499.342    22529507.1914
 01  4 23  0 45 30.0000000  0  9 17 21 14 31 23 09 15 03 29
  21373940.956   -23492561.571 8 -18024717.22347  21373940.319    21373946.2064
  21433617.974   -23049572.354 9 -17408526.94147  21433617.415    21433622.7574
  22266031.905   -14055455.784 8 -10906555.15646  22266031.378    22266037.9904
  23943402.231    -6165256.608 7  -4792200.97545  23943401.758    23943409.3154
  21614131.869   -21205899.374 9 -16477182.11447  21614131.238    21614136.3274
  23633719.917    -5362316.691 8  -4167061.48745  23633719.517    23633728.1584
  20527670.041   -25952863.245 9 -19702759.78047  20527669.260    20527674.3254
  21741414.226   -18688614.594 8 -14259524.38447  21741413.833    21741419.5174
  22511482.632   -10007191.984 8  -7775495.09146  22511482.505    22511490.3294
 01  4 23  0 46  0.0000000  0  9 17 21 14 31 23 09 15 03 29
  21383093.080   -23444466.973 8 -17987240.94447  21383092.433    21383098.3244
  21428915.922   -23074282.006 9 -17427781.18647  21428915.321    21428920.6444
  22247857.624   -14150961.579 8 -10980975.09946  22247857.149    22247863.6984
  23928418.858    -6243994.548 7  -4853555.13745  23928418.340    23928425.8714
  21622531.613   -21161758.521 9 -16442786.65047  21622530.953    21622536.0724
  23626802.526    -5398667.561 8  -4195386.67945  23626802.125    23626810.5994
  20532050.485   -25929843.872 9 -19684822.60447  20532049.718    20532054.7674
  21736992.998   -18711848.076 8 -14277628.37647  21736992.643    21736998.3254
  22493516.664   -10101602.970 8  -7849061.90846  22493516.552    22493524.3254
 01  4 23  0 46 30.0000000  0  9 17 21 14 31 23 09 15 03 29
  21392310.176   -23396031.041 8 -17949498.69247  21392309.522    21392315.4134
  21424247.904   -23098812.491 9 -17446895.81747  21424247.292    21424252.6124
  22229742.151   -14246158.566 8 -11055154.42246  22229741.670    22229748.1214
  23913508.629    -6322347.982 7  -4914609.70745  23913508.292    23913515.7334
  21630951.532   -21117511.471 9 -16408308.43147  21630950.904    21630956.0144
  23619970.576    -5434569.243 7  -4223361.85645  23619970.165    23619978.4184
  20536500.236   -25906460.308 9 -19666601.64047  20536499.467    20536504.5044
  21732679.108   -18734517.880 9 -14295293.14347  21732678.719    21732684.3664
  22475602.029   -10195744.712 8  -7922418.91746  22475601.905    22475609.5974
 01  4 23  0 47  0.0000000  0  9 17 21 14 31 23 09 15 03 29
  21401592.175   -23347253.600 8 -17911490.32747  21401591.546    21401597.4944
  21419613.890   -23123164.113 9 -17465871.07547  21419613.280    21419618.6024
  22211685.883   -14341044.465 8 -11129091.34146  22211685.360    22211691.7534
  23898672.144    -6400314.701 7  -4975362.92645  23898671.704    23898679.0944
  21639391.486   -21073159.144 9 -16373748.17747  21639390.851    21639395.9724
  23613224.378    -5470019.583 8  -4250985.34445  23613224.035    23613232.2834
  20541019.355   -25882712.255 9 -19648096.66147  20541018.579    20541023.5994
  21728472.523   -18756623.705 8 -14312518.44847  21728472.142    21728477.7864
  22457738.949   -10289615.242 8  -7995564.60246  22457738.802    22457746.4464
 01  4 23  0 47 30.0000000  0  9 17 21 14 31 23 09 15 03 29
  21410939.376   -23298133.917 8 -17873215.28347  21410938.726    21410944.6984
  21415013.946   -23147336.788 9 -17484706.89347  21415013.335    21415018.6524
  22193689.282   -14435616.557 8 -11202783.72546  22193688.789    22193695.1274
  23883909.663    -6477891.933 7  -5035812.64545  23883909.274    23883916.5974
  21647851.386   -21028702.126 8 -16339106.35247  21647850.755    21647855.8864
  23606564.623    -5505015.671 7  -4278254.87145  23606564.296    23606572.5094
  20545608.087   -25858598.416 9 -19629306.65747  20545607.292    20545612.3314
  21724373.391   -18778164.441 8 -14329303.41747  21724373.039    21724378.6934
  22439927.926   -10383211.964 8  -8068496.91746  22439927.772    22439935.4134
 01  4 23  0 48  0.0000000  0  9 17 21 14 31 23 09 15 03 29
  21420351.784   -23248671.438 8 -17834673.11347  21420351.150    21420357.1004
  21410447.965   -23171331.097 9 -17503403.72447  21410447.376    21410452.6664
  22175752.933   -14529872.134 8 -11276229.48246  22175752.436    22175758.7684
  23869221.900    -6555076.850 8  -5095956.67345  23869221.372    23869228.7424
  21656331.093   -20984140.892 8 -16304383.32247  21656330.464    21656335.6254
  23599991.906    -5539555.039 8  -4305168.50945  23599991.586    23599999.7214
  20550266.529   -25834117.895 9 -19610230.92247  20550265.747    20550270.7954
  21720382.140   -18799138.958 8 -14345647.17847  21720381.753    21720387.3674
  22422169.520   -10476532.242 8  -8141213.83946  22422169.396    22422176.9994
 01  4 23  0 48 30.0000000  0  9 17 21 14 31 23 09 15 03 29
  21429829.207   -23198867.096 8 -17795864.56647  21429828.608    21429834.5864
  21405915.530   -23195149.245 9 -17521963.29447  21405914.923    21405920.2164
  22157877.034   -14623810.209 8 -11349427.83846  22157876.501    22157882.7954
  23854608.963    -6631868.483 8  -5155794.24345  23854608.368    23854615.7314
  21664830.177   -20939477.719 9 -16269580.86047  21664829.561    21664834.7634
  23593506.201    -5573636.997 8  -4331725.73245  23593505.816    23593514.0494
  20554994.682   -25809271.161 9 -19590869.83247  20554993.904    20554998.9854
  21716498.364   -18819548.073 8 -14361550.36447  21716498.002    21716503.5844
  22404463.913   -10569575.266 8  -8213714.72046  22404463.733    22404471.3034
 01  4 23  0 49  0.0000000  0  9 17 21 14 31 23 09 15 03 29
  21439372.100   -23148719.218 8 -17756788.32447  21439371.482    21439377.4494
  21401416.843   -23218789.968 9 -17540384.60647  21401416.248    21401421.5074
  22140062.288   -14717426.907 8 -11422375.77446  22140061.724    22140067.9424
  23840071.586    -6708262.927 8  -5215322.32045  23840070.933    23840078.3294
  21673348.838   -20894711.896 8 -16234698.40647  21673348.233    21673353.4244
  23587108.356    -5607257.395 8  -4357923.31545  23587107.976    23587116.1604
  20559792.852   -25784056.598 9 -19571222.11747  20559792.082    20559797.1344
  21712722.640   -18839389.729 8 -14377011.37247  21712722.275    21712727.8054
  22386811.637   -10662337.633 8  -8285996.91746  22386811.454    22386819.0134
 01  4 23  0 49 30.0000000  0  9 17 21 14 31 23 09 15 03 29
  21448980.114   -23098228.777 8 -17717445.14647  21448979.530    21448985.4654
  21396951.594   -23242254.627 9 -17558668.72947  21396951.009    21396956.2784
  22122308.887   -14810721.084 8 -11495072.39646  22122308.315    22122314.5114
  23825609.962    -6784258.707 8  -5274539.73845  23825609.314    23825616.7394
  21681886.622   -20849845.595 9 -16199737.64747  21681886.013    21681891.1784
  23580798.615    -5640415.161 8  -4383760.41845  23580798.193    23580806.2364
  20564660.970   -25758474.448 9 -19551287.97947  20564660.202    20564665.2444
  21709054.779   -18858664.300 9 -14392030.50147  21709054.395    21709059.9704
  22369212.945   -10754818.151 8  -8358059.48846  22369212.796    22369220.3234
 01  4 23  0 50  0.0000000  0  9 17 21 14 31 23 09 15 03 29
  21458653.539   -23047394.749 8 -17677834.24347  21458652.974    21458658.9044
  21392519.864   -23265543.380 9 -17576815.78047  21392519.277    21392524.5374
  22104617.428   -14903689.716 8 -11567515.34646  22104616.892    22104623.0614
  23811224.800    -6859852.675 8  -5333444.04445  23811224.193    23811231.6704
  21690443.430   -20804879.082 8 -16164698.81547  21690442.819    21690448.0004
  23574577.498    -5673107.135 8  -4409234.57145  23574577.020    23574585.0064
  20569599.269   -25732523.468 9 -19531066.43147  20569598.503    20569603.5684
  21705495.076   -18877370.466 8 -14406606.70947  21705494.699    21705500.2824
  22351668.546   -10847014.080 8  -8429900.29846  22351668.352    22351675.8344
 01  4 23  0 50 30.0000000  0  9 17 21 14 31 23 09 15 03 29
  21468392.230   -22996217.812 8 -17637956.13947  21468391.662    21468397.5974
  21388121.249   -23288658.105 9 -17594827.22747  21388120.652    21388125.9374
  22086988.232   -14996331.303 8 -11639703.45446  22086987.697    22086993.8064
  23796916.342    -6935043.522 8  -5392034.23245  23796915.788    23796923.2734
  21699019.040   -20759814.029 8 -16129583.20247  21699018.432    21699023.6164
  23568445.247    -5705332.041 8  -4434344.75345  23568444.845    23568452.6314
  20574607.648   -25706204.106 9 -19510557.83547  20574606.866    20574611.9334
  21702043.446   -18895508.692 8 -14420740.36947  21702043.058    21702048.6384
  22334178.532   -10938924.182 8  -8501518.39646  22334178.350    22334185.8214
 01  4 23  0 51  0.0000000  0  9 17 21 14 31 23 09 15 03 29
  21478196.294   -22944697.214 8 -17597810.24347  21478195.715    21478201.6854
  21383755.846   -23311598.222 9 -17612702.61547  21383755.264    21383760.5614
  22069421.768   -15088643.094 8 -11711634.58546  22069421.268    22069427.3394
  23782685.247    -7009828.275 8  -5450307.98145  23782684.650    23782692.1444
  21707613.280   -20714650.697 8 -16094391.01147  21707612.682    21707617.9454
  23562402.311    -5737087.112 8  -4459088.83545  23562401.888    23562409.7544
  20579686.393   -25679515.205 9 -19489761.28847  20579685.610    20579690.6494
  21698700.127   -18913077.835 8 -14434430.59147  21698699.763    21698705.3584
  22316743.352   -11030545.636 8  -8572911.56946  22316743.250    22316750.6444
 01  4 23  0 51 30.0000000  0  9 17 21 14 31 23 09 15 03 29
  21488065.681   -22892833.408 8 -17557396.92347  21488065.102    21488071.0244
  21379423.355   -23334365.367 9 -17630443.22347  21379422.794    21379428.0624
  22051918.397   -15180623.237 8 -11783307.28846  22051917.905    22051923.9424
  23768531.763    -7084205.110 8  -5508263.88445  23768531.138    23768538.5634
  21716226.044   -20669390.435 8 -16059123.28247  21716225.460    21716230.7164
  23556449.032    -5768370.918 8  -4483465.69545  23556448.580    23556456.5454
  20584835.573   -25652456.264 9 -19468676.41147  20584834.775    20584839.8264
  21695465.141   -18930077.887 9 -14447677.37047  21695464.752    21695470.3484
  22299363.484   -11121877.089 8  -8644078.77946  22299363.332    22299370.6494
 01  4 23  0 52  0.0000000  0  9 17 21 14 31 23 09 15 03 29
  21498000.610   -22840625.321 8 -17516715.32447  21498000.034    21498005.9454
  21375123.933   -23356959.001 9 -17648048.62647  21375123.350    21375128.6224
  22034478.713   -15272268.781 8 -11854719.26146  22034478.198    22034484.1924
  23754456.344    -7158171.241 8  -5565899.72845  23754455.763    23754463.1694
  21724857.225   -20624033.396 8 -16023780.13147  21724856.635    21724861.8744
  23550586.035    -5799180.372 8  -4507472.93545  23550585.649    23550593.6744
  20590055.301   -25625026.226 9 -19447302.36147  20590054.522    20590059.5744
  21692338.614   -18946507.642 8 -14460479.75147  21692338.217    21692343.8174
  22282039.335   -11212915.704 8  -8715017.80746  22282039.175    22282046.3844
 01  4 23  0 52 30.0000000  0  9 17 21 14 31 23 09 15 03 29
  21508000.899   -22788073.490 8 -17475765.87747  21508000.311    21508006.2394
  21370857.249   -23379380.417 9 -17665519.83747  21370856.684    21370861.9524
  22017102.994   -15363578.024 8 -11925869.18146  22017102.517    22017108.4994
  23740459.503    -7231724.792 7  -5623214.10445  23740458.882    23740466.2654
  21733506.504   -20578581.051 8 -15988362.73547  21733505.927    21733511.1394
  23544813.637    -5829514.151 8  -4531109.52745  23544813.255    23544821.1534
  20595345.656   -25597225.284 9 -19425639.29947  20595344.899    20595349.9454
  21689320.577   -18962367.269 8 -14472837.88547  21689320.196    21689325.8164
  22264771.198   -11303659.940 8  -8785727.44446  22264771.040    22264778.1594
 01  4 23  0 53  0.0000000  0  9 17 21 14 31 23 09 15 03 29
  21518066.667   -22735177.442 8 -17434548.21047  21518066.093    21518072.0504
  21366623.369   -23401629.387 9 -17682856.66847  21366622.815    21366628.0894
  21999791.764   -15454548.556 8 -11996755.16346  21999791.252    21999797.2344
  23726541.641    -7304863.168 7  -5680204.96145  23726541.058    23726548.3694
  21742173.836   -20533034.053 8 -15952871.56747  21742173.257    21742178.4434
  23539132.304    -5859369.533 8  -4554373.31945  23539131.898    23539139.7144
  20600706.819   -25569052.306 9 -19403686.34147  20600706.038    20600711.0684
  21686411.159   -18977656.199 8 -14484751.31647  21686410.800    21686416.3984
  22247559.508   -11394107.427 8  -8856205.84946  22247559.356    22247566.4494
 01  4 23  0 53 30.0000000  0  9 17 21 14 31 23 09 15 03 29
  21528198.076   -22681936.651 8 -17393061.91547  21528197.499    21528203.4744
  21362422.229   -23423706.335 9 -17700059.46147  21362421.693    21362426.9334
  21982545.482   -15545177.666 8 -12067375.10746  21982544.961    21982550.9424
  23712703.208    -7377584.209 7  -5736870.61645  23712702.638    23712709.9934
  21750859.070   -20487392.950 8 -15917307.08147  21750858.484    21750863.6674
  23533542.322    -5888744.157 8  -4577262.51745  23533541.988    23533549.7144
  20606138.920   -25540506.540 9 -19381442.89447  20606138.137    20606143.1654
  21683610.544   -18992373.512 9 -14496219.33647  21683610.169    21683615.7524
  22230404.683   -11484256.000 8  -8926451.33746  22230404.521    22230411.5844
 01  4 23  0 54  0.0000000  0  9 17 21 14 31 23 09 15 03 29
  21538394.948   -22628351.867 8 -17351307.57147  21538394.390    21538400.3324
  21358253.589   -23445612.642 9 -17717129.28647  21358253.029    21358258.2884
  21965364.490   -15635463.978 8 -12137727.94246  21965363.955    21965369.8844
  23698944.527    -7449886.160 7  -5793209.71545  23698943.933    23698951.2114
  21759561.891   -20441659.267 8 -15881670.44747  21759561.289    21759566.5084
  23528044.321    -5917636.745 8  -4599776.08845  23528043.864    23528051.4584
  20611641.893   -25511588.181 9 -19358909.11147  20611641.098    20611646.1654
  21680918.625   -19006519.701 8 -14507242.32547  21680918.252    21680923.8084
  22213306.985   -11574104.293 8  -8996462.84246  22213306.808    22213313.8444
 01  4 23  0 54 30.0000000  0  9 17 21 14 31 23 09 15 03 29
  21548657.315   -22574422.914 8 -17309285.04147  21548656.745    21548662.6884
  21354117.262   -23467349.104 9 -17734066.76047  21354116.713    21354121.9504
  21948249.090   -15725405.438 8 -12207812.05546  21948248.584    21948254.4404
  23685266.034    -7521766.512 7  -5849220.28545  23685265.472    23685272.7184
  21768282.185   -20395833.762 8 -15845962.27947  21768281.572    21768286.8024
  23522638.081    -5946045.220 8  -4621912.46245  23522637.768    23522645.3894
  20617215.837   -25482296.808 9 -19336084.66847  20617215.069    20617220.1204
  21678335.402   -19020094.636 9 -14517820.17947  21678335.021    21678340.5684
  22196266.870   -11663650.243 8  -9066238.75046  22196266.685    22196273.6334
 01  4 23  0 55  0.0000000  0  9 17 21 14 31 23 09 15 03 29
  21558985.510   -22520148.061 8 -17266992.98647  21558984.935    21558990.9284
  21350013.469   -23488914.475 9 -17750870.91747  21350012.914    21350018.1644
  21931200.117   -15814998.035 8 -12277624.33146  21931199.596    21931205.3694
  23671668.645    -7593221.262 7  -5904899.23145  23671667.975    23671675.2924
  21777020.081   -20349915.707 8 -15810181.99347  21777019.493    21777024.7144
  23517325.070    -5973965.877 8  -4643668.70745  23517324.645    23517332.2194
  20622861.192   -25452630.325 9 -19312967.93147  20622860.431    20622865.4814
  21675861.284   -19033096.227 8 -14527951.27547  21675860.914    21675866.4514
  22179284.931   -11752890.168 8  -9135776.21146  22179284.751    22179291.6744
 01  4 23  0 55 30.0000000  0  9 17 21 14 31 23 09 15 03 29
  21569378.912   -22465530.288 8 -17224433.71647  21569378.360    21569384.3434
  21345941.534   -23510312.552 9 -17767544.71647  21345940.973    21345946.2154
  21914217.305   -15904242.723 8 -12347165.50246  21914216.794    21914222.5524
  23658152.036    -7664251.629 7  -5960247.50245  23658151.393    23658158.5064
  21785774.911   -20303909.032 8 -15774332.64547  21785774.312    21785779.5114
  23512104.311    -6001399.713 8  -4665045.60145  23512103.999    23512111.6654
  20628577.409   -25422591.367 9 -19289560.94947  20628576.644    20628581.7014
  21673495.681   -19045527.380 9 -14537637.87047  21673495.281    21673500.8494
  22162360.998   -11841825.271 8  -9205076.12446  22162360.787    22162367.7474
 01  4 23  0 56  0.0000000  0  9 17 21 14 31 23 09 15 03 29
  21579838.041   -22410567.193 8 -17181605.37247  21579837.499    21579843.5194
  21341901.784   -23531541.451 9 -17784086.68847  21341901.219    21341906.4394
  21897301.528   -15993134.860 8 -12416431.97247  21897301.014    21897306.7864
  23644716.931    -7734852.970 8  -6015261.45645  23644716.394    23644723.4294
  21794546.860   -20257812.192 8 -15738413.04147  21794546.260    21794551.4554
  23506976.955    -6028342.507 8  -4686039.89945  23506976.808    23506984.4674
  20634365.036   -25392177.150 9 -19265861.56747  20634364.277    20634369.3314
  21671239.148   -19057385.396 9 -14546877.87547  21671238.783    21671244.3074
  22145495.878   -11930451.228 8  -9274135.17846  22145495.683    22145502.5764
 01  4 23  0 56 30.0000000  0  9 17 21 14 31 23 09 15 03 29
  21590362.888   -22355258.970 8 -17138508.09547  21590362.323    21590368.3714
  21337894.075   -23552601.943 9 -17800497.42947  21337893.524    21337898.7314
  21880453.281   -16081672.580 8 -12485422.26847  21880452.738    21880458.5054
  23631363.889    -7805023.560 8  -6069939.77445  23631363.298    23631370.2474
  21803335.735   -20211626.391 8 -15702424.11247  21803335.145    21803340.3264
  23501943.877    -6054792.378 8  -4706650.06545  23501943.423    23501951.0344
  20640224.135   -25361387.411 9 -19241869.56747  20640223.371    20640228.4144
  21669091.731   -19068670.312 8 -14555671.30547  21669091.340    21669096.8494
  22128689.935   -12018766.152 8  -9342951.85046  22128689.777    22128696.6274
 01  4 23  0 57  0.0000000  0  9 17 21 14 31 23 09 15 03 29
  21600953.326   -22299605.852 8 -17095142.06347  21600952.771    21600958.8474
  21333918.167   -23573495.509 9 -17816778.09547  21333917.626    21333922.8224
  21863672.770   -16169854.100 8 -12554135.01047  21863672.245    21863677.9494
  23618093.288    -7874761.132 8  -6124280.67645  23618092.595    23618099.4434
  21812141.350   -20165352.624 8 -15666366.64147  21812140.759    21812145.9214
  23497004.589    -6080747.623 8  -4726874.82045  23497004.322    23497011.8414
  20646154.713   -25330222.054 9 -19217584.87647  20646153.935    20646158.9824
  21667053.278   -19079382.239 8 -14564018.25247  21667052.882    21667058.4144
  22111943.571   -12106768.407 8  -9411524.88946  22111943.390    22111950.1934
 01  4 23  0 57 30.0000000  0  9 17 21 14 31 23 09 15 03 29
  21611609.377   -22243608.060 8 -17051507.46847  21611608.804    21611614.8604
  21329974.060   -23594221.958 9 -17832928.55147  21329973.487    21329978.6694
  21846960.418   -16257677.639 8 -12622568.80647  21846959.885    21846965.5614
  23604905.361    -7944063.734 8  -6178282.65145  23604904.684    23604911.5744
  21820963.552   -20118991.769 8 -15630241.30847  21820962.942    21820968.0934
  23492159.702    -6106206.882 8  -4746713.09945  23492159.437    23492166.9924
  20652156.827   -25298680.948 9 -19193007.39747  20652156.060    20652161.0674
  21665123.865   -19089521.233 9 -14571918.76147  21665123.487    21665129.0024
  22095256.949   -12194456.506 8  -9479853.13346  22095256.782    22095263.5124
 01  4 23  0 58  0.0000000  0  9 17 21 14 31 23 09 15 03 29
  21622331.020   -22187265.468 8 -17007604.20047  21622330.452    21622336.5484
  21326061.618   -23614781.837 9 -17848949.20347  21326061.035    21326066.2194
  21830316.602   -16345140.760 8 -12690721.75747  21830316.107    21830321.7184
  23591800.591    -8012929.237 8  -6231944.01945  23591799.997    23591806.8714
  21829802.228   -20072544.436 8 -15594048.58747  21829801.623    21829806.7694
  23487409.829    -6131167.827 8  -4766163.09545  23487409.474    23487417.1034
  20658230.548   -25266763.451 9 -19168136.63047  20658229.765    20658234.7674
  21663303.619   -19099086.688 8 -14579372.35247  21663303.237    21663308.7584
  22078630.559   -12281828.350 8  -9547934.93446  22078630.403    22078637.1144
 01  4 23  0 58 30.0000000  0  9 17 21 14 31 23 09 15 03 29
  21633118.239   -22130578.269 8 -16963432.40846  21633117.684    21633123.7884
  21322180.570   -23635176.745 9 -17864841.31047  21322179.992    21322185.1374
  21813741.751   -16432241.898 8 -12758592.64447  21813741.241    21813746.8194
  23578779.237    -8081355.874 8  -6285263.41845  23578778.781    23578785.6184
  21838657.098   -20026011.812 8 -15557789.40747  21838656.493    21838661.6314
  23482755.040    -6155628.962 8  -4785223.61745  23482754.708    23482762.2424
  20664375.899   -25234469.189 9 -19142972.28047  20664375.111    20664380.1404
  21661592.338   -19108079.260 9 -14586379.53747  21661591.972    21661597.5224
  22062064.694   -12368882.088 8  -9615768.87746  22062064.531    22062071.2074
 01  4 23  0 59  0.0000000  0  9 17 21 14 31 23 09 15 03 29
  21643971.229   -22073545.630 8 -16918991.44046  21643970.661    21643976.7554
  21318331.043   -23655406.076 9 -17880604.40247  21318330.477    21318335.5844
  21797236.361   -16518977.725 8 -12826178.87147  21797235.848    21797241.4224
  23565842.171    -8149340.391 8  -6338238.28445  23565841.737    23565848.6504
  21847528.187   -19979393.856 8 -15521463.74747  21847527.571    21847532.7354
  23478195.678    -6179587.594 8  -4803892.57545  23478195.414    23478202.9214
  20670593.182   -25201797.216 9 -19117513.60647  20670592.397    20670597.4334
  21659990.315   -19116497.903 8 -14592939.52147  21659989.941    21659995.4934
  22045559.804   -12455614.998 8  -9683352.82146  22045559.637    22045566.3104
 01  4 23  0 59 30.0000000  0  9 17 21 14 31 23 09 15 03 29
  21654889.810   -22016168.490 8 -16874282.03246  21654889.242    21654895.3174
  21314512.820   -23675470.799 9 -17896239.22047  21314512.260    21314517.3704
  21780800.689   -16605347.220 8 -12893479.65547  21780800.206    21780805.7254
  23552989.406    -8216881.689 8  -6390867.77545  23552988.875    23552995.9294
  21856415.203   -19932692.325 8 -15485072.95047  21856414.589    21856419.7344
  23473732.253    -6203042.864 8  -4822169.31245  23473731.974    23473739.3324
  20676882.224   -25168748.067 9 -19091761.02847  20676881.443    20676886.4854
  21658497.399   -19124343.326 8 -14599052.82847  21658497.005    21658502.5634
  22029116.213   -12542026.154 8  -9750686.03846  22029116.051    22029122.7134
 01  4 23  1  0  0.0000000  0  9 17 21 14 31 23 09 15 03 29
  21665874.184   -21958445.448 8 -16829303.07846  21665873.618    21665879.6834
  21310726.059   -23695370.196 9 -17911745.21247  21310725.502    21310730.6134
  21764435.415   -16691346.846 8 -12960492.22847  21764434.905    21764440.3894
  23540221.719    -8283976.344 8  -6443149.24845  23540221.064    23540228.1624
  21865318.276   -19885906.433 8 -15448616.42247  21865317.665    21865322.8014
  23469365.225    -6225991.329 8  -4840051.14545  23469364.877    23469372.2424
  20683243.384   -25135319.729 9 -19065712.97947  20683242.599    20683247.6704
  21657113.764   -19131614.080 8 -14604718.34347  21657113.393    21657118.9454
  22012734.437   -12628112.223 8  -9817765.95346  22012734.251    22012740.9274
 01  4 23  1  0 30.0000000  0  9 17 21 14 31 23 09 15 03 29
  21676923.873   -21900379.121 8 -16784056.64146  21676923.258    21676929.3844
  21306970.145   -23715107.698 9 -17927125.05447  21306969.552    21306974.6594
  21748140.371   -16776977.466 8 -13027217.27047  21748139.876    21748145.2894
  23527538.928    -8350624.719 8  -6495082.98445  23527538.364    23527545.3364
  21874236.703   -19839039.714 8 -15412096.93047  21874236.102    21874241.2654
  23465094.478    -6248433.849 8  -4857538.73145  23465094.183    23465101.5144
  20689676.293   -25101514.507 9 -19039371.25947  20689675.536    20689680.6114
  21655839.049   -19138312.835 9 -14609938.15147  21655838.675    21655844.2034
  21996414.403   -12713873.936 8  -9884593.11546  21996414.210    21996420.8764
 01  4 23  1  1  0.0000000  0  9 17 21 14 31 23 09 15 03 29
  21688039.311   -21841967.030 8 -16738540.77146  21688038.693    21688044.8684
  21303245.421   -23734681.099 9 -17942377.02447  21303244.851    21303249.9694
  21731916.464   -16862234.205 8 -13093650.97747  21731915.948    21731921.3204
  23514941.868    -8416822.190 8  -6546665.35945  23514941.315    23514948.2054
  21883170.880   -19792090.325 8 -15375513.00047  21883170.286    21883175.4594
  23460920.898    -6270366.064 8  -4874628.67545  23460920.533    23460927.8434
  20696181.452   -25067329.490 9 -19012733.59547  20696180.702    20696185.8004
  21654673.703   -19144436.828 9 -14614710.09247  21654673.322    21654678.8314
  21980156.929   -12799306.888 8  -9951164.11446  21980156.735    21980163.3854
 01  4 23  1  1 30.0000000  0  9 17 21 14 31 23 09 15 03 29
  21699220.298   -21783210.703 8 -16692756.66846  21699219.713    21699225.9224
  21299551.445   -23754092.590 9 -17957502.82847  21299550.898    21299556.0464
  21715763.781   -16947116.436 8 -13159792.86247  21715763.260    21715768.6474
  23502430.822    -8482568.190 8  -6597895.95345  23502430.286    23502437.1254
  21892120.389   -19745060.322 8 -15338866.25747  21892119.821    21892124.9994
  23456844.420    -6291787.861 8  -4891320.87845  23456844.015    23456851.3544
  20702758.759   -25032765.571 9 -18985800.67147  20702757.999    20702763.1054
  21653617.414   -19149987.720 9 -14619035.45147  21653617.043    21653622.5324
  21963962.122   -12884410.656 8 -10017478.59846  21963961.916    21963968.5474
 01  4 23  1  2  0.0000000  0  9 17 21 14 31 23 09 15 03 29
  21710466.914   -21724109.728 8 -16646704.01046  21710466.337    21710472.5274
  21295888.319   -23773342.306 9 -17972502.58247  21295887.764    21295892.9064
  21699682.905   -17031621.828 8 -13225641.10747  21699682.363    21699687.7184
  23490006.104    -8547860.053 8  -6648772.67145  23490005.598    23490012.4674
  21901085.209   -19697949.994 8 -15302156.92447  21901084.615    21901089.7784
  23452865.463    -6312696.944 8  -4907613.58345  23452865.030    23452872.3634
  20709408.290   -24997822.115 9 -18958572.01547  20709407.516    20709412.6544
  21652670.242   -19154965.245 9 -14622914.03847  21652669.848    21652675.3294
  21947830.439   -12969182.911 8 -10083534.77246  21947830.224    21947836.8154
 01  4 23  1  2 30.0000000  0  9 17 21 14 31 23 09 15 03 29
  21721779.147   -21664663.830 8 -16600382.58146  21721778.565    21721784.7564
  21292255.904   -23792430.657 9 -17987376.59547  21292255.328    21292260.4884
  21683674.140   -17115747.900 8 -13291193.78847  21683673.625    21683678.9454
  23477668.346    -8612695.491 8  -6699293.75345  23477667.809    23477674.6384
  21910065.171   -19650760.041 8 -15265385.54547  21910064.568    21910069.7124
  23448984.464    -6333091.399 8  -4923505.28745  23448984.006    23448991.4064
  20716130.128   -24962498.688 9 -18931047.27747  20716129.372    20716134.5194
  21651832.217   -19159369.179 9 -14626345.67747  21651831.839    21651837.3104
  21931762.158   -13053621.686 8 -10149331.09246  21931761.937    21931768.5184
 01  4 23  1  3  0.0000000  0  9 17 21 14 31 23 09 15 03 29
  21733156.945   -21604873.247 8 -16553792.56546  21733156.339    21733162.5344
  21288654.204   -23811357.502 9 -18002124.75947  21288653.662    21288658.8154
  21667737.924   -17199492.709 8 -13356449.37647  21667737.408    21667742.7324
  23465417.730    -8677072.752 8  -6749457.79745  23465417.240    23465423.9434
  21919060.235   -19603490.977 8 -15228552.51847  21919059.621    21919064.7484
  23445201.589    -6352969.529 8  -4938994.65145  23445201.276    23445208.6644
  20722924.376   -24926794.766 9 -18903226.04847  20722923.618    20722928.7644
  21651103.284   -19163199.458 8 -14629330.30247  21651102.923    21651108.3934
  21915757.753   -13137724.947 8 -10214865.96946  21915757.527    21915764.0744
 01  4 23  1  3 30.0000000  0  9 17 21 14 31 23 09 15 03 29
  21744600.247   -21544738.365 8 -16506934.27046  21744599.657    21744605.8194
  21285082.977   -23830124.234 9 -18016748.16247  21285082.414    21285087.5684
  21651874.609   -17282854.701 8 -13421406.67147  21651874.060    21651879.3914
  23453254.643    -8740990.193 8  -6799263.54445  23453254.130    23453260.7824
  21928070.130   -19556143.777 8 -15191658.60447  21928069.493    21928074.6234
  23441517.439    -6372329.812 8  -4954080.49245  23441517.075    23441524.4324
  20729791.013   -24890710.389 9 -18875108.36347  20729790.265    20729795.4094
  21650483.448   -19166456.520 9 -14631868.26847  21650483.093    21650488.5794
  21899817.458   -13221491.161 8 -10280138.22046  21899817.262    21899823.7534
 01  4 23  1  4  0.0000000  0  9 17 21 14 31 23 09 15 03 29
  21756109.102   -21484259.136 8 -16459807.65746  21756108.480    21756114.7374
  21281542.245   -23848730.920 9 -18031246.86247  21281541.685    21281546.8144
  21636084.482   -17365831.828 8 -13486064.06547  21636083.931    21636089.2514
  23441179.463    -8804445.599 8  -6848709.26645  23441178.920    23441185.6384
  21937094.779   -19508718.894 8 -15154704.15847  21937094.156    21937099.3124
  23437932.054    -6391170.521 8  -4968761.48645  23437931.688    23437939.0434
  20736730.126   -24854245.237 9 -18846693.97547  20736729.391    20736734.5184
  21649972.702   -19169140.508 9 -14633959.68247  21649972.346    21649977.7944
  21883941.681   -13304918.521 8 -10345146.42946  21883941.493    21883947.9214
 01  4 23  1  4 30.0000000  0  9 17 21 14 31 23 09 15 03 29
  21767683.685   -21423434.324 8 -16412411.75846  21767683.097    21767689.3634
  21278031.998   -23867177.055 9 -18045620.43747  21278031.455    21278036.6024
  21620368.280   -17448420.655 8 -13550418.89447  21620367.711    21620373.0164
  23429192.682    -8867435.771 8  -6897792.46145  23429192.138    23429198.9154
  21946134.342   -19461215.745 8 -15117688.72747  21946133.688    21946138.8744
  23434446.029    -6409488.791 8  -4983035.38645  23434445.791    23434453.1424
  20743742.016   -24817397.614 9 -18817981.55147  20743741.267    20743746.3744
  21649571.200   -19171250.434 9 -14635603.77847  21649570.834    21649576.2794
  21868130.953   -13388004.024 8 -10409888.26046  21868130.758    21868137.1184
 01  4 23  1  5  0.0000000  0  9 17 21 14 31 23 09 15 03 29
  21779323.590   -21362266.633 8 -16364748.68146  21779322.978    21779329.2964
  21274551.803   -23885465.569 9 -18059871.20147  21274551.255    21274556.3924
  21604725.800   -17530621.745 8 -13614471.59247  21604725.290    21604730.5384
  23417294.412    -8929961.178 8  -6946513.50345  23417293.895    23417300.6854
  21955188.101   -19413637.893 8 -15080615.07847  21955187.450    21955192.6604
  23431059.405    -6427285.454 8  -4996902.84245  23431059.066    23431066.4404
  20750826.204   -24780169.924 9 -18788972.97847  20750825.433    20750830.5644
  21649278.410   -19172789.049 9 -14636802.70147  21649278.027    21649283.4684
  21852385.164   -13470748.216 8 -10474364.13946  21852384.999    21852391.2874
 01  4 23  1  5 30.0000000  0  9 17 21 14 31 23 09 15 03 29
  21791028.950   -21300754.733 8 -16316817.39846  21791028.355    21791034.6524
  21271101.800   -23903595.293 9 -18073998.23647  21271101.263    21271106.3874
  21589157.830   -17612431.549 8 -13678219.39147  21589157.298    21589162.5354
  23405485.274    -8992018.157 8  -6994869.53845  23405484.720    23405491.5604
  21964256.275   -19365984.247 8 -15043482.38547  21964255.622    21964260.8214
  23427772.527    -6444557.390 8  -5010361.41845  23427772.182    23427779.5784
  20757983.103   -24742560.052 9 -18759666.60247  20757982.368    20757987.4984
  21649094.613   -19173754.900 9 -14637555.30647  21649094.244    21649099.6964
  21836704.881   -13553147.964 8 -10538571.62547  21836704.714    21836710.9834
 01  4 23  1  6  0.0000000  0  9 17 21 14 31 23 09 15 03 29
  21802799.872   -21238898.117 8 -16268617.48546  21802799.296    21802805.6064
  21267681.882   -23921566.861 9 -18088002.03647  21267681.351    21267686.4854
  21573664.707   -17693847.878 8 -13741660.58047  21573664.183    21573669.4354
  23393765.717    -9053604.483 8  -7042858.81045  23393765.194    23393772.0394
  21973338.831   -19318254.916 8 -15006290.70647  21973338.205    21973343.4194
  23424585.970    -6461302.514 8  -5023409.49845  23424585.637    23424592.9764
  20765212.859   -24704567.433 9 -18730061.98547  20765212.113    20765217.2674
  21649019.912   -19174147.435 9 -14637861.17447  21649019.546    21649025.0044
  21821090.574   -13635200.897 8 -10602508.86047  21821090.444    21821096.7134
 01  4 23  1  6 30.0000000  0  9 17 21 14 31 23 09 15 03 29
  21814636.012   -21176699.010 8 -16220150.71646  21814635.442    21814641.7484
  21264291.712   -23939382.413 9 -18101884.25847  21264291.168    21264296.2914
  21558246.429   -17774870.744 9 -13804795.18147  21558245.937    21558251.2144
  23382135.735    -9114720.256 8  -7090481.41845  23382135.165    23382142.0874
  21982435.255   -19270452.576 8 -14969042.14347  21982434.617    21982439.9194
  23421499.783    -6477521.397 8  -5036047.52045  23421499.273    23421506.5004
  20772515.076   -24666193.974 9 -18700160.60847  20772514.328    20772519.4864
  21649053.815   -19173969.326 9 -14637722.38547  21649053.442    21649058.8974
  21805542.301   -13716907.150 8 -10666175.96347  21805542.177    21805548.3954
 01  4 23  1  7  0.0000000  0  9 17 21 14 31 23 09 15 03 29
  21826537.613   -21114155.677 8 -16171415.70646  21826537.043    21826543.4084
  21260931.521   -23957040.108 9 -18115643.47447  21260930.984    21260936.1094
  21542903.827   -17855496.316 9 -13867620.19547  21542903.318    21542908.5634
  23370596.047    -9175361.537 8  -7137734.30545  23370595.483    23370602.4414
  21991545.832   -19222576.038 8 -14931735.75947  21991545.230    21991550.5324
  23418513.935    -6493210.578 8  -5048272.77845  23418513.660    23418520.8614
  20779890.271   -24627437.166 9 -18669960.51647  20779889.502    20779894.6994
  21649196.663   -19173218.649 9 -14637137.44147  21649196.303    21649201.7204
  21790060.714   -13798263.161 8 -10729570.14847  21790060.575    21790066.7444
 01  4 23  1  7 30.0000000  0  9 17 21 14 31 23 09 15 03 29
  21838504.503   -21051269.251 8 -16122413.36046  21838503.958    21838510.4044
  21257601.112   -23974541.440 9 -18129280.85447  21257600.569    21257605.6954
  21527637.061   -17935723.479 9 -13930134.76447  21527636.558    21527641.7474
  23359146.863    -9235527.326 8  -7184616.67345  23359146.270    23359153.2194
  22000670.296   -19174626.809 8 -14894372.72347  22000669.673    22000674.9714
  23415629.387    -6508369.387 8  -5060084.77545  23415628.988    23415636.1384
  20787338.279   -24588297.690 9 -18639462.23647  20787337.506    20787342.6904
  21649448.244   -19171896.585 9 -14636107.26147  21649447.889    21649453.3014
  21774645.937   -13879268.012 8 -10792690.70047  21774645.786    21774651.9354
 01  4 23  1  8  0.0000000  0  9 17 21 14 31 23 09 15 03 29
  21850536.782   -20988039.284 8 -16073143.32546  21850536.228    21850542.7204
  21254300.371   -23991886.851 9 -18142796.74947  21254299.824    21254304.9274
  21512446.547   -18015549.600 9 -13992336.83447  21512446.054    21512451.2364
  23347788.587    -9295215.095 8  -7231126.55145  23347788.063    23347795.0074
  22009808.542   -19126604.929 8 -14856953.09647  22009807.957    22009813.2214
  23412846.001    -6522995.673 8  -5071481.78745  23412845.674    23412852.7504
  20794859.231   -24548774.806 9 -18608665.20547  20794858.449    20794863.6734
  21649808.540   -19170002.992 9 -14634631.73447  21649808.170    21649813.6364
  21759298.374   -13959919.522 8 -10855535.92347  21759298.241    21759304.3614
 01  4 23  1  8 30.0000000  0  9 17 21 14 31 23 09 15 03 29
  21862634.254   -20924467.073 8 -16023606.61146  21862633.704    21862640.2024
  21251029.125   -24009077.461 9 -18156192.01447  21251028.579    21251033.6954
  21497332.471   -18094974.288 9 -14054226.10247  21497331.967    21497337.1324
  23336521.290    -9354424.102 8  -7277263.37845  23336520.793    23336527.7794
  22018960.347   -19078512.005 8 -14819478.10947  22018959.742    22018964.9994
  23410164.183    -6537089.239 8  -5082463.70445  23410163.751    23410170.6984
  20802452.990   -24508869.142 9 -18577569.90247  20802452.232    20802457.4664
  21650277.289   -19167539.434 9 -14632712.08847  21650276.945    21650282.4284
  21744018.222   -14040216.932 8 -10918105.22047  21744018.070    21744024.1774
 01  4 23  1  9  0.0000000  0  9 17 21 14 31 23 09 15 03 29
  21874797.161   -20860551.069 8 -15973801.99646  21874796.563    21874803.0534
  21247787.547   -24026112.031 9 -18169465.68547  21247786.993    21247792.1134
  21482295.485   -18173993.712 9 -14115799.57847  21482294.977    21482300.1194
  23325346.044    -9413150.758 8  -7323024.33845  23325345.529    23325352.3484
  22028125.825   -19030347.088 8 -14781947.02247  22028125.226    22028130.4764
  23407583.877    -6550646.820 8  -5093027.98145  23407583.737    23407590.7114
  20810119.922   -24468579.073 9 -18546175.05647  20810119.174    20810124.4444
  21650854.806   -19164504.637 9 -14630347.31547  21650854.445    21650859.9084
  21728806.059   -14120156.886 8 -10980395.98447  21728805.911    21728811.9494
 01  4 23  1  9 30.0000000  0  9 17 21 14 31 23 09 15 03 29
  21887025.085   -20796292.998 8 -15923730.86046  21887024.498    21887031.0054
  21244575.279   -24042992.513 9 -18182619.29347  21244574.707    21244579.8104
  21467335.708   -18252607.499 9 -14177056.97447  21467335.203    21467340.3214
  23314262.483    -9471394.698 8  -7368409.14945  23314261.873    23314268.8804
  22037304.687   -18982112.094 8 -14744361.32547  22037304.072    22037309.3074
  23405105.930    -6563668.764 8  -5103174.87745  23405105.673    23405112.6774
  20817859.753   -24427906.109 9 -18514481.85647  20817859.006    20817864.2594
  21651540.615   -19160900.659 9 -14627539.03147  21651540.271    21651545.7054
  21713661.965   -14199739.198 8 -11042408.06847  21713661.805    21713667.8064
 01  4 23  1 10  0.0000000  0  9 17 21 14 31 23 09 15 03 29
  21899318.117   -20731693.067 8 -15873393.32646  21899317.548    21899324.0254
  21241392.215   -24059719.387 9 -18195653.21247  21241391.661    21241396.7564
  21452453.451   -18330813.790 9 -14237996.84147  21452452.936    21452458.0544
  23303271.143    -9529154.053 8  -7413416.37845  23303270.592    23303277.5044
  22046496.755   -18933807.444 8 -14706721.34647  22046496.128    22046501.3794
  23402730.274    -6576153.283 8  -5112902.99645  23402729.877    23402736.8744
  20825672.580   -24386849.725 9 -18482489.88547  20825671.827    20825677.0624
  21652334.709   -19156727.751 8 -14624287.41647  21652334.371    21652339.8044
  21698586.259   -14278962.071 8 -11104140.06647  21698586.112    21698592.0904
 01  4 23  1 10 30.0000000  0  9 17 21 14 31 23 09 15 03 29
  21911676.397   -20666750.229 8 -15822788.59146  21911675.803    21911682.2944
  21238238.626   -24076291.595 9 -18208566.61047  21238238.094    21238243.1894
  21437649.313   -18408609.521 9 -14298616.79447  21437648.805    21437653.9464
  23292372.681    -9586425.855 8  -7458043.68945  23292372.126    23292378.9014
  22055702.239   -18885432.464 8 -14669026.56947  22055701.605    22055706.8774
  23400457.260    -6588097.821 8  -5122210.34345  23400456.791    23400463.8374
  20833558.654   -24345408.314 9 -18450197.89347  20833557.888    20833563.1264
  21653237.202   -19151985.166 9 -14620591.90647  21653236.846    21653242.3234
  21683579.481   -14357822.582 8 -11165589.71147  21683579.351    21683585.3114
 01  4 23  1 11  0.0000000  0  9 17 21 14 31 23 09 15 03 29
  21924099.477   -20601467.073 8 -15771918.68446  21924098.832    21924105.3434
  21235113.776   -24092712.712 9 -18221362.26947  21235113.227    21235118.3204
  21422923.179   -18485995.249 9 -14358917.27047  21422922.699    21422927.8044
  23281566.931    -9643210.587 8  -7502291.46545  23281566.317    23281573.0184
  22064920.515   -18836990.222 8 -14631279.38347  22064919.904    22064925.1254
  23398286.710    -6599503.515 8  -5131097.81945  23398286.324    23398293.3834
  20841517.536   -24303584.162 9 -18417607.66347  20841516.768    20841522.0014
  21654247.556   -19146675.421 8 -14616454.45447  21654247.227    21654252.7354
  21668641.559   -14436321.505 8 -11226757.60247  21668641.402    21668647.3274
 01  4 23  1 11 30.0000000  0  9 17 21 14 31 23 09 15 03 29
  21936587.656   -20535841.395 8 -15720781.86846  21936587.017    21936593.5434
  21232018.175   -24108980.114 9 -18234038.14847  21232017.640    21232022.7204
  21408275.927   -18562966.700 9 -14418894.93147  21408275.460    21408280.5194
  23270854.617    -9699503.977 8  -7546156.38046  23270853.993    23270860.7434
  22074151.934   -18788478.820 8 -14593478.30647  22074151.333    22074156.5004
  23396219.298    -6610366.610 8  -5139562.51245  23396219.065    23396226.1654
  20849549.727   -24261374.717 9 -18384717.19947  20849548.968    20849554.1884
  21655366.219   -19140796.790 9 -14611873.72447  21655365.902    21655371.4524
  21653773.280   -14514454.329 8 -11287640.21647  21653773.125    21653779.0674
 01  4 23  1 12  0.0000000  0  9 17 21 14 31 23 09 15 03 29
  21949140.806   -20469874.292 8 -15669379.01346  21949140.186    21949146.7024
  21228951.574   -24125095.113 9 -18246595.27147  21228951.033    21228956.1074
  21393707.724   -18639522.728 9 -14478548.87647  21393707.255    21393712.2964
  23260235.934    -9755305.205 8  -7589637.78946  23260235.275    23260242.1064
  22083396.262   -18739899.536 8 -14555624.33047  22083395.653    22083400.8314
  23394255.336    -6620686.579 8  -5147603.97745  23394255.134    23394262.2324
  20857655.146   -24218780.666 9 -18351527.04147  20857654.376    20857659.5634
  21656592.910   -19134350.545 9 -14606850.68947  21656592.593    21656598.1364
  21638974.771   -14592220.569 8 -11348237.18847  21638974.620    21638980.5584
 01  4 23  1 12 30.0000000  0  9 17 21 14 31 23 09 15 03 29
  21961758.915   -20403566.027 8 -15617710.31246  21961758.301    21961764.8434
  21225913.883   -24141058.089 9 -18259033.93647  21225913.356    21225918.4334
  21379218.846   -18715661.758 9 -14537877.89347  21379218.385    21379223.4094
  23249711.224    -9810612.606 8  -7632734.40646  23249710.580    23249717.3424
  22092653.468   -18691252.765 8 -14517717.76547  22092652.865    22092658.0794
  23392395.227    -6630461.928 8  -5155221.05545  23392394.932    23392402.0164
  20865833.725   -24175802.026 9 -18318037.20347  20865832.964    20865838.1374
  21657927.508   -19127337.108 9 -14601385.68347  21657927.179    21657932.7174
  21624246.310   -14669618.545 8 -11408547.19247  21624246.176    21624252.0834
 01  4 23  1 13  0.0000000  0  9 17 21 14 31 23 09 15 03 29
  21974441.627   -20336917.920 8 -15565776.79646  21974441.051    21974447.6204
  21222904.841   -24156870.626 9 -18271355.38147  21222904.299    21222909.3884
  21364809.476   -18791383.032 9 -14596881.38747  21364809.021    21364814.0114
  23239280.740    -9865425.280 8  -7675445.51446  23239280.111    23239286.7234
  22101923.126   -18642540.269 8 -14479759.99847  22101922.527    22101927.7944
  23390638.525    -6639692.616 8  -5162413.70045  23390638.278    23390645.4634
  20874085.335   -24132439.515 9 -18284248.25147  20874084.572    20874089.7634
  21659369.768   -19119758.170 9 -14595480.03247  21659369.441    21659374.9964
  21609588.072   -14746647.713 8 -11468569.82347  21609587.924    21609593.7984
 01  4 23  1 13 30.0000000  0  9 17 21 14 31 23 09 15 03 29
  21987189.279   -20269928.681 8 -15513577.46746  21987188.766    21987195.2754
  21219924.627   -24172531.688 9 -18283558.79547  21219924.102    21219929.1914
  21350480.314   -18866683.308 9 -14655556.83747  21350479.801    21350484.7484
  23228945.005    -9919740.002 8  -7717768.61546  23228944.377    23228950.9004
  22111205.512   -18593761.113 8 -14441750.28147  22111204.911    22111210.1934
  23388986.008    -6648375.845 8  -5169179.78245  23388985.823    23388992.9924
  20882410.303   -24088691.483 9 -18250158.89447  20882409.539    20882414.7624
  21660919.794   -19111613.047 9 -14589133.20247  21660919.467    21660925.0054
  21595000.629   -14823304.884 8 -11528302.58747  21595000.473    21595006.3154
 01  4 23  1 14  0.0000000  0  9 17 21 14 31 23 09 15 03 29
  22000001.573   -20202600.204 8 -15461113.79046  22000001.046    22000007.5014
  21216972.813   -24188043.486 9 -18295645.89147  21216972.276    21216977.3564
  21336231.286   -18941562.162 9 -14713903.90647  21336230.775    21336235.6554
  23218704.009    -9973556.196 8  -7759703.25246  23218703.426    23218709.9084
  22120500.252   -18544917.152 8 -14403690.06547  22120499.627    22120504.8624
  23387437.889    -6656511.895 8  -5175519.50045  23387437.494    23387444.6744
  20890808.369   -24044559.290 9 -18215770.19147  20890807.615    20890812.8504
  21662577.107   -19102903.870 9 -14582346.84747  21662576.760    21662582.2964
  21580483.951   -14899589.853 8 -11587745.31647  21580483.802    21580489.6674
 01  4 23  1 14 30.0000000  0  9 17 21 14 31 23 09 15 03 29
  22012878.493   -20134931.856 8 -15408385.28246  22012877.961    22012884.4364
  21214049.594   -24203404.993 9 -18307615.87847  21214049.070    21214054.1514
  21322062.909   -19016017.093 9 -14771920.64847  21322062.383    21322067.2624
  23208558.455   -10026871.482 8  -7801247.57146  23208557.840    23208564.2374
  22129807.379   -18496007.935 8 -14365579.01247  22129806.753    22129811.9754
  23385993.759    -6664098.946 8  -5181431.41045  23385993.614    23386000.8504
  20899279.792   -24000041.852 9 -18181081.28847  20899279.030    20899284.2654
  21664341.792   -19093630.457 9 -14575120.83047  21664341.438    21664346.9834
  21566038.614   -14975500.285 8 -11646896.20347  21566038.453    21566044.3404
 01  4 23  1 15  0.0000000  0  9 17 21 14 31 23 09 15 03 29
  22025820.020   -20066924.276 8 -15355392.42846  22025819.462    22025825.8884
  21211154.810   -24218617.270 9 -18319469.57547  21211154.263    21211159.3164
  21307975.478   -19090046.666 9 -14829605.94347  21307974.966    21307979.8294
  23198508.336   -10079684.655 8  -7842400.62946  23198507.728    23198514.1934
  22139126.791   -18447034.293 8 -14327417.73747  22139126.162    22139131.3844
  23384654.593    -6671135.886 8  -5186914.66545  23384654.471    23384661.7774
  20907824.442   -23955139.317 9 -18146092.31547  20907823.715    20907828.9354
  21666213.793   -19083793.186 9 -14567455.44247  21666213.433    21666218.9734
  21551664.808   -15051034.905 8 -11705754.24347  21551664.643    21551670.4634
 01  4 23  1 15 30.0000000  0  9 17 21 14 31 23 09 15 03 29
  22038825.858   -19998578.118 8 -15302135.75946  22038825.329    22038831.7784
  21208288.356   -24233680.435 9 -18331207.09147  21208287.828    21208292.8454
  21293969.260   -19163649.525 9 -14886958.74547  21293968.742    21293973.5784
  23188554.011   -10131994.761 8  -7883161.70146  23188553.369    23188559.8744
  22148458.236   -18397997.068 8 -14289206.92447  22148457.632    22148462.8674
  23383420.510    -6677621.982 8  -5191968.69545  23383420.155    23383427.4164
  20916442.329   -23909852.079 9 -18110803.56947  20916441.589    20916446.8184
  21668192.753   -19073393.523 8 -14559351.81947  21668192.393    21668197.9954
  21537362.762   -15126192.492 8 -11764318.49747  21537362.564    21537368.3574
 01  4 23  1 16  0.0000000  0  9 17 21 14 31 23 09 15 03 29
  22051896.217   -19929893.371 8 -15248615.23846  22051895.650    22051902.1544
  21205450.204   -24248595.098 9 -18342828.89247  21205449.663    21205454.6514
  21280044.634   -19236823.457 9 -14943977.30947  21280044.132    21280048.9384
  23178695.839   -10183799.529 8  -7923528.99646  23178695.254    23178701.6984
  22157801.875   -18348896.080 8 -14250946.43547  22157801.263    22157806.5154
  23382291.350    -6683555.727 8  -5196592.33445  23382290.887    23382298.1214
  20925133.495   -23864179.637 9 -18075214.66847  20925132.762    20925138.0134
  21670278.766   -19062431.548 9 -14550810.04047  21670278.418    21670284.0024
  21523132.805   -15200970.892 8 -11822587.27547  21523132.626    21523138.3964
 01  4 23  1 16 30.0000000  0  9 17 21 14 31 23 09 15 03 29
  22065030.950   -19860870.218 8 -15194831.04246  22065030.327    22065036.9404
  21202640.268   -24263361.229 9 -18354334.94847  21202639.738    21202644.7234
  21266201.944   -19309566.896 9 -15000660.43447  21266201.445    21266206.2364
  23168934.236   -10235097.143 8  -7963501.13046  23168933.621    23168939.9524
  22167157.514   -18299731.769 8 -14212636.60247  22167156.907    22167162.1854
  23381267.273    -6688935.730 8  -5200784.47445  23381267.065    23381274.2504
  20933898.080   -23818121.640 9 -18039325.34447  20933897.334    20933902.5624
  21672471.649   -19050907.984 8 -14541830.65547  21672471.290    21672476.8764
  21508975.325   -15275368.586 8 -11880559.41147  21508975.146    21508980.8714
 01  4 23  1 17  0.0000000  0  9 17 21 14 31 23 09 15 03 29
  22078229.971   -19791509.280 8 -15140783.62646  22078229.340    22078235.9824
  21199858.441   -24277979.771 9 -18365725.99247  21199857.914    21199862.9054
  21252441.525   -19381878.173 9 -15057006.79547  21252441.011    21252445.7964
  23159269.423   -10285886.120 8  -8003076.90046  23159268.792    23159275.1164
  22176525.050   -18250504.920 8 -14174278.04547  22176524.461    22176529.7564
  23380349.199    -6693761.160 8  -5204544.47545  23380348.791    23380355.9154
  20942735.946   -23771678.366 9 -18003135.79347  20942735.196    20942740.4114
  21674771.181   -19038823.880 8 -14532414.48347  21674770.829    21674776.4174
  21494890.538   -15349384.295 8 -11938233.88647  21494890.347    21494896.0354
 01  4 23  1 17 30.0000000  0  9 17 21 14 31 23 09 15 03 29
  22091493.147   -19721811.071 8 -15086473.41646  22091492.518    22091499.1574
  21197104.615   -24292451.187 9 -18377002.39547  21197104.070    21197109.0684
  21238763.593   -19453755.813 9 -15113015.25247  21238763.090    21238767.8504
  23149701.605   -10336164.884 8  -8042255.10346  23149700.986    23149707.3984
  22185904.436   -18201216.036 8 -14135871.14047  22185903.828    22185909.1184
  23379536.514    -6698031.189 8  -5207871.69745  23379536.204    23379543.2554
  20951647.156   -23724849.786 9 -17966646.01347  20951646.397    20951651.6134
  21677177.208   -19026180.228 8 -14522562.30547  21677176.853    21677182.4234
  21480878.745   -15423016.313 8 -11995609.38647  21480878.567    21480884.2484
 01  4 23  1 18  0.0000000  0  9 17 21 14 31 23 09 15 03 29
  22104820.529   -19651775.872 8 -15031900.60746  22104819.911    22104826.5124
  21194378.819   -24306775.126 9 -18388163.88347  21194378.297    21194383.2944
  21225168.546   -19525198.136 9 -15168684.50747  21225168.022    21225172.7504
  23140231.124   -10385931.908 8  -8081034.54846  23140230.552    23140236.9524
  22195295.535   -18151865.530 8 -14097416.22847  22195294.917    22195300.2084
  23378829.782    -6701744.904 8  -5210765.43845  23378829.523    23378836.5214
  20960631.654   -23677636.080 9 -17929856.13347  20960630.887    20960636.1204
  21679689.592   -19012977.583 8 -14512274.53747  21679689.233    21679694.7954
  21466940.234   -15496263.344 8 -12052684.89347  21466940.047    21466945.7284
 01  4 23  1 18 30.0000000  0  9 17 21 14 31 23 09 15 03 29
  22118211.852   -19581404.337 8 -14977065.73246  22118211.241    22118217.7944
  21191680.941   -24320952.427 9 -18399211.10447  21191680.405    21191685.4084
  21211656.591   -19596203.789 9 -15224013.49947  21211656.056    21211660.7444
  23130858.302   -10435185.743 8  -8119414.10746  23130857.750    23130864.2074
  22204698.231   -18102454.047 8 -14058913.80647  22204697.637    22204702.9564
  23378229.331    -6704901.425 8  -5213224.99545  23378228.929    23378235.8004
  20969689.333   -23630037.531 9 -17892766.37647  20969688.587    20969693.8384
  21682308.124   -18999217.093 8 -14501552.08947  21682307.781    21682313.3164
  21453075.234   -15569124.169 8 -12109459.46647  21453075.035    21453080.6664
 01  4 23  1 19  0.0000000  0  9 17 21 14 31 23 09 15 03 29
  22131666.970   -19510697.021 8 -14921969.21046  22131666.386    22131673.0514
  21189010.848   -24334983.877 9 -18410144.67947  21189010.323    21189015.2994
  21198227.962   -19666771.339 9 -15279001.11547  21198227.433    21198232.0894
  23121583.502   -10483925.012 8  -8157392.70946  23121582.911    23121589.4404
  22214112.435   -18052982.080 8 -14020364.25047  22214111.841    22214117.1954
  23377735.007    -6707499.850 8  -5215249.67045  23377734.422    23377741.2664
  20978820.334   -23582053.968 9 -17855376.61347  20978819.585    20978824.8504
  21685032.649   -18984899.736 8 -14490395.71847  21685032.294    21685037.8554
  21439283.965   -15641597.398 8 -12165932.02447  21439283.773    21439289.3334
 01  4 23  1 19 30.0000000  0  9 17 21 14 31 23 09 15 03 29
  22145185.933   -19439654.484 8 -14866611.46846  22145185.347    22145192.0724
  21186368.450   -24348869.630 9 -18420964.71647  21186367.903    21186372.9024
  21184882.975   -19736899.130 9 -15333646.06047  21184882.461    21184887.1014
  23112406.919   -10532148.287 8  -8194969.23846  23112406.284    23112412.8274
  22223538.049   -18003450.137 8 -13981767.95247  22223537.475    22223542.8034
  23377346.692    -6709539.249 8  -5216838.73645  23377346.210    23377353.0874
  20988024.487   -23533685.710 9 -17817687.08747  20988023.743    20988029.0164
  21687862.933   -18970026.497 8 -14478806.19347  21687862.555    21687868.1824
  21425566.739   -15713681.573 8 -12222101.41547  21425566.559    21425572.0734
 01  4 23  1 20  0.0000000  0  9 17 21 14 31 23 09 15 03 29
  22158768.904   -19368275.867 8 -14810991.84346  22158768.314    22158775.0404
  21183753.917   -24362608.867 9 -18431670.59547  21183753.383    21183758.3634
  21171622.225   -19806584.604 9 -15387946.34547  21171621.721    21171626.3094
  23103328.969   -10579853.140 8  -8232141.80246  23103328.359    23103334.8324
  22232975.191   -17953857.584 8 -13943124.42346  22232974.602    22232979.9344
  23377065.274    -6711017.640 8  -5217990.65645  23377064.785    23377071.7644
  20997302.108   -23484931.503 9 -17779696.81747  20997301.371    20997306.6494
  21690799.053   -18954597.014 8 -14466783.23047  21690798.693    21690804.3374
  21411924.018   -15785374.148 8 -12277965.66347  21411923.844    21411929.3394
 01  4 23  1 20 30.0000000  0  9 17 21 14 31 23 09 15 03 29
  22172415.584   -19296562.139 8 -14755111.09646  22172414.996    22172421.7844
  21181167.070   -24376202.845 9 -18442263.29047  21181166.514    21181171.4824
  21158445.899   -19875826.391 9 -15441900.90047  21158445.393    21158449.9564
  23094349.842   -10627038.510 8  -8268909.57546  23094349.225    23094355.6854
  22242423.755   -17904205.052 8 -13904434.15446  22242423.201    22242428.5204
  23376890.499    -6711934.555 8  -5218705.05045  23376890.186    23376897.2504
  21006653.143   -23435791.627 9 -17741406.02747  21006652.407    21006657.6744
  21693840.812   -18938612.617 8 -14454327.86647  21693840.457    21693846.0834
  21398356.013   -15856674.083 8 -12333523.95747  21398355.837    21398361.2984
 01  4 23  1 21  0.0000000  0  9 17 21 14 31 23 09 15 03 29
  22186125.527   -19224516.148 8 -14698971.45546  22186124.935    22186131.7934
  21178607.405   -24389653.805 9 -18452744.52847  21178606.876    21178611.8464
  21145353.745   -19944625.690 9 -15495510.66147  21145353.237    21145357.7734
  23085469.354   -10673705.434 8  -8305273.37046  23085468.793    23085475.2044
  22251883.240   -17854495.458 8 -13865699.42746  22251882.632    22251887.9764
  23376822.574    -6712291.552 8  -5218983.13645  23376822.173    23376829.2294
  21016077.066   -23386268.569 9 -17702816.65147  21016076.323    21016081.5914
  21696987.426   -18922076.977 8 -14441442.96647  21696987.078    21696992.7224
  21384862.547   -15927582.266 8 -12388776.98947  21384862.368    21384867.8404
 01  4 23  1 21 30.0000000  0  9 17 21 14 31 23 09 15 03 29
  22199899.213   -19152135.326 8 -14642570.90646  22199898.620    22199905.4984
  21176075.442   -24402959.153 9 -18463112.30747  21176074.918    21176079.8744
  21132346.664   -20012977.918 9 -15548772.06247  21132346.171    21132350.7054
  23076688.419   -10719849.460 8  -8341229.71346  23076687.862    23076694.2614
  22261354.020   -17804726.083 8 -13826918.10346  22261353.426    22261358.8144
  23376861.901    -6712084.627 8  -5218821.84645  23376861.585    23376868.4884
  21025574.510   -23336359.317 9 -17663926.35047  21025573.768    21025579.0634
  21700239.399   -18904987.866 8 -14428126.78747  21700239.057    21700244.6324
  21371444.411   -15998094.553 8 -12443721.53847  21371444.237    21371449.6964
 01  4 23  1 22  0.0000000  0  9 17 21 14 31 23 09 15 03 29
  22213736.397   -19079420.755 8 -14585910.28446  22213735.821    22213742.6754
  21173571.079   -24416119.707 9 -18473367.26347  21173570.562    21173575.4824
  21119424.883   -20080882.099 9 -15601684.33547  21119424.377    21119428.8984
  23068007.137   -10765469.569 8  -8376777.78846  23068006.592    23068013.0274
  22270836.016   -17754897.887 8 -13788090.96246  22270835.401    22270840.8444
  23377008.407    -6711313.736 8  -5218221.07745  23377008.184    23377015.0834
  21035145.229   -23286064.800 9 -17624735.83747  21035144.492    21035149.8314
  21703596.430   -18887346.644 8 -14414380.39547  21703596.073    21703601.6484
  21358101.886   -16068209.794 8 -12498356.70147  21358101.694    21358107.1514
 01  4 23  1 22 30.0000000  0  9 17 21 14 31 23 09 15 03 29
  22227637.054   -19006372.758 8 -14528989.86146  22227636.457    22227643.3894
  21171094.211   -24429135.604 9 -18483509.49947  21171093.677    21171098.6274
  21106588.667   -20148336.478 9 -15654246.11047  21106588.153    21106592.6524
  23059425.801   -10810564.072 8  -8411916.30846  23059425.292    23059431.7754
  22280329.131   -17705011.146 8 -13749218.19246  22280328.520    22280333.9614
  23377262.552    -6709977.984 8  -5217180.16245  23377262.348    23377269.2004
  21044789.318   -23235384.966 9 -17585245.08447  21044788.556    21044793.9054
  21707058.300   -18869154.405 8 -14400204.63947  21707057.947    21707063.5224
  21344835.044   -16137926.845 8 -12552681.59247  21344834.879    21344840.3384
 01  4 23  1 23  0.0000000  0  9 17 21 14 31 23 09 15 03 29
  22241600.366   -18932995.422 8 -14471812.81546  22241599.791    22241606.7504
  21168644.142   -24442010.800 9 -18493542.10047  21168643.593    21168648.5514
  21093837.707   -20215343.066 9 -15706458.95647  21093837.210    21093841.6744
  23050944.094   -10855135.382 8  -8446647.15446  23050943.624    23050950.0964
  22289832.719   -17655069.647 8 -13710302.76546  22289832.120    22289837.5434
  23377623.669    -6708079.971 8  -5215701.13045  23377623.498    23377630.3104
  21054506.036   -23184323.153 9 -17545456.68547  21054505.279    21054510.6354
  21710624.106   -18850415.810 9 -14385603.15847  21710623.778    21710629.3474
  21331643.678   -16207247.457 8 -12606697.56847  21331643.531    21331648.9684
 01  4 23  1 23 30.0000000  0  9 17 21 14 31 23 09 15 03 29
  22255627.083   -18859285.082 8 -14414376.28046  22255626.500    22255633.4374
  21166221.372   -24454742.299 9 -18503462.72747  21166220.810    21166225.7994
  21081172.995   -20281896.345 9 -15758318.57747  21081172.478    21081176.9104
  23042563.033   -10899177.988 8  -8480966.02046  23042562.506    23042569.0114
  22299347.431   -17605069.563 8 -13671341.68746  22299346.823    22299352.2464
  23378092.747    -6705614.819 8  -5213780.17245  23378092.623    23378099.3444
  21064296.201   -23132875.428 9 -17505367.57647  21064295.442    21064300.8314
  21714294.461   -18831127.758 8 -14370573.53047  21714294.147    21714299.7754
  21318528.810   -16276166.350 8 -12660400.52047  21318528.650    21318534.0424
 01  4 23  1 24  0.0000000  0  9 17 21 14 31 23 09 15 03 29
  22269716.587   -18785244.658 8 -14356682.52646  22269715.996    22269722.9354
  21163825.608   -24467332.122 9 -18513272.96247  21163825.049    21163830.0574
  21068594.359   -20347997.155 9 -15809825.62347  21068593.846    21068598.2604
  23034282.492   -10942692.605 8  -8514873.47046  23034281.958    23034288.3954
  22308872.824   -17555013.560 8 -13632337.01946  22308872.189    22308877.6284
  23378669.441    -6702584.262 8  -5211418.63445  23378669.304    23378675.9074
  21074159.393   -23081044.201 9 -17464979.63447  21074158.644    21074164.0434
  21718068.767   -18811293.601 9 -14355118.36147  21718068.474    21718074.1084
  21305490.138   -16344684.536 8 -12713791.23747  21305489.986    21305495.3564
 01  4 23  1 24 30.0000000  0  9 17 21 14 31 23 09 15 03 29
  22283868.983   -18710873.444 8 -14298731.02946  22283868.369    22283875.3704
  21161457.006   -24479779.106 9 -18522971.90547  21161456.449    21161461.4434
  21056102.255   -20413643.038 9 -15860978.18647  21056101.754    21056106.1854
  23026102.846   -10985677.056 8  -8548367.80246  23026102.241    23026108.7494
  22318408.952   -17504900.882 8 -13593288.20646  22318408.337    22318413.7714
  23379353.958    -6698986.664 8  -5208615.28145  23379353.820    23379360.3864
  21084095.722   -23028828.457 9 -17424292.08047  21084094.985    21084100.3934
  21721947.063   -18790913.192 8 -14339237.54747  21721946.739    21721952.3634
  21292528.195   -16412799.502 8 -12766867.76547  21292528.040    21292533.3994
 01  4 23  1 25  0.0000000  0  9 17 21 14 31 23 09 15 03 29
  22298083.984   -18636173.330 8 -14240523.25246  22298083.378    22298090.4064
  21159115.305   -24492084.545 9 -18532560.54947  21159114.780    21159119.7764
  21043696.808   -20478833.796 9 -15911776.10547  21043696.312    21043700.7284
  23018024.070   -11028131.101 8  -8581448.84346  23018023.474    23018029.9624
  22327955.645   -17454733.051 8 -13554196.40346  22327955.008    22327960.3894
  23380146.450    -6694822.356 8  -5205370.29045  23380146.182    23380152.8374
  21094104.970   -22976229.552 9 -17383305.95747  21094104.235    21094109.6614
  21725928.796   -18769989.045 8 -14322933.04347  21725928.463    21725934.1234
  21279643.057   -16480511.072 8 -12819629.95247  21279642.890    21279648.2694
 01  4 23  1 25 30.0000000  0  9 17 21 14 31 23 09 15 03 29
  22312361.722   -18561143.628 8 -14182058.63446  22312361.124    22312368.1444
  21156800.654   -24504247.984 9 -18542038.54947  21156800.142    21156805.1264
  21031378.444   -20543566.946 9 -15962217.45247  21031377.930    21031382.3464
  23010046.673   -11070052.396 8  -8614114.75546  23010046.076    23010052.5524
  22337512.900   -17404509.277 8 -13515061.01246  22337512.282    22337517.6664
  23381046.932    -6690089.497 8  -5201682.30645  23381046.788    23381053.4224
  21104187.325   -22923246.391 9 -17342020.41147  21104186.606    21104192.0254
  21730013.992   -18748521.074 8 -14306204.77847  21730013.685    21730019.3414
  21266835.058   -16547817.000 8 -12872076.06247  21266834.897    21266840.2834
 01  4 23  1 26  0.0000000  0  9 17 21 14 31 23 09 15 03 29
  22326702.124   -18485784.779 8 -14123337.55546  22326701.506    22326708.5714
  21154513.051   -24516269.417 9 -18551405.89647  21154512.526    21154517.5224
  21019147.493   -20607840.773 9 -16012300.87947  21019146.988    21019151.3744
  23002170.927   -11111439.460 8  -8646364.38346  23002170.319    23002176.7444
  22347080.790   -17354229.405 8 -13475881.91046  22347080.179    22347085.6064
  23382055.945    -6684787.300 8  -5197550.66545  23382055.710    23382062.2934
  21114342.802   -22869879.203 9 -17300435.62447  21114342.075    21114347.4774
  21734202.502   -18726510.416 8 -14289053.63947  21734202.195    21734207.8574
  21254104.583   -16614715.767 8 -12924204.89747  21254104.430    21254109.8054
 01  4 23  1 26 30.0000000  0  9 17 21 14 31 23 09 15 03 29
  22341104.932   -18410097.876 8 -14064360.83946  22341104.335    22341111.3844
  21152252.196   -24528150.142 9 -18560663.59347  21152251.691    21152256.6794
  21007004.067   -20671654.512 9 -16062025.79347  21007003.564    21007007.9444
  22994396.992   -11152291.688 8  -8678197.24246  22994396.421    22994402.7984
  22356659.211   -17303894.426 8 -13436659.85946  22356658.657    22356664.0574
  23383173.188    -6678915.804 8  -5192975.42745  23383172.936    23383179.5014
  21124571.210   -22816128.709 9 -17258552.15247  21124570.484    21124575.8964
  21738493.957   -18703958.874 8 -14271481.03147  21738493.644    21738499.2924
  21241451.752   -16681206.477 8 -12976015.76347  21241451.609    21241456.9504
 01  4 23  1 27  0.0000000  0  9 17 21 14 31 23 09 15 03 29
  22355569.899   -18334084.421 8 -14005129.66646  22355569.301    22355576.3274
  21150017.978   -24539891.146 9 -18569812.42047  21150017.448    21150022.4264
  20994948.305   -20735007.532 9 -16111391.69847  20994947.810    20994952.1794
  22986724.833   -11192608.810 8  -8709613.13746  22986724.262    22986730.6724
  22366247.966   -17253505.402 8 -13397395.69346  22366247.409    22366252.8174
  23384398.725    -6672475.315 8  -5187956.81345  23384398.468    23384405.0274
  21134872.434   -22761995.643 9 -17216370.56447  21134871.683    21134877.1124
  21742887.920   -18680868.519 8 -14253488.56847  21742887.592    21742893.2564
  21228876.615   -16747288.969 8 -13027508.53047  21228876.475    21228881.7944
 01  4 23  1 27 30.0000000  0  9 17 21 14 31 23 09 15 03 29
  22370097.116   -18257743.723 8 -13945643.49446  22370096.524    22370103.5994
  21147810.614   -24551490.863 9 -18578851.14047  21147810.086    21147815.0544
  20982980.704   -20797897.431 9 -16160396.73947  20982980.205    20982984.5794
  22979155.033   -11232388.099 8  -8740609.95546  22979154.482    22979160.8384
  22375847.176   -17203061.393 8 -13358088.67546  22375846.624    22375851.9994
  23385732.848    -6665463.938 8  -5182493.33945  23385732.614    23385739.1704
  21145246.632   -22707478.944 9 -17173890.04747  21145245.901    21145251.3374
  21747384.496   -18657238.876 8 -14235075.88047  21747384.179    21747389.8554
  21216379.656   -16812960.522 8 -13078681.07647  21216379.526    21216384.8314
 01  4 23  1 28  0.0000000  0  9 17 21 14 31 23 09 15 03 29
  22384686.275   -18181077.717 8 -13885903.84346  22384685.645    22384692.8194
  21145629.786   -24562951.102 9 -18587781.17247  21145629.255    21145634.2204
  20971101.177   -20860324.341 9 -16209041.01147  20971100.699    20971105.0414
  22971687.596   -11271630.116 8  -8771188.10346  22971686.982    22971693.3624
  22385456.468   -17152564.014 8 -13318740.08246  22385455.932    22385461.3394
  23387175.556    -6657882.633 8  -5176585.76945  23387175.306    23387181.7754
  21155693.522   -22652580.381 9 -17131111.96947  21155692.759    21155698.2204
  21751983.096   -18633073.238 8 -14216245.53147  21751982.786    21751988.4634
  21203960.866   -16878221.446 8 -13129533.64847  21203960.744    21203965.9974
 01  4 23  1 28 30.0000000  0  9 17 21 14 31 23 09 15 03 29
  22399337.265   -18104086.510 8 -13825910.78646  22399336.682    22399343.8934
  21143475.552   -24574271.720 9 -18596602.43547  21143475.007    21143479.9714
  20959310.179   -20922286.192 9 -16257322.90447  20959309.702    20959314.0174
  22964322.613   -11310332.922 8  -8801346.09246  22964322.011    22964328.3814
  22395076.021   -17102012.915 8 -13279349.62646  22395075.462    22395080.9254
  23388726.881    -6649730.348 8  -5170233.27745  23388726.512    23388733.0424
  21166213.173   -22597299.392 9 -17088035.90747  21166212.416    21166217.8794
  21756683.641   -18608371.977 9 -14196997.81847  21756683.312    21756689.0054
  21191620.635   -16943069.688 9 -13180064.66347  21191620.497    21191625.7264
 01  4 23  1 29  0.0000000  0  9 17 21 14 31 23 09 15 03 29
  22414049.965   -18026770.902 8 -13765664.94746  22414049.396    22414056.5724
  21141347.719   -24585453.412 9 -18605315.41947  21141347.170    21141352.1774
  20947607.871   -20983781.966 9 -16305241.61147  20947607.393    20947611.6684
  22957060.507   -11348495.448 8  -8831083.08846  22957059.958    22957066.2574
  22404705.723   -17051408.704 8 -13239917.77846  22404705.126    22404710.6264
  23390386.985    -6641006.770 8  -5163435.61645  23390386.542    23390392.9404
  21176805.466   -22541636.460 9 -17044662.22347  21176804.713    21176810.2004
  21761485.797   -18583136.602 8 -14177333.90947  21761485.467    21761491.1504
  21179359.026   -17007504.514 9 -13230273.53547  21179358.885    21179364.0774
 01  4 23  1 29 30.0000000  0  9 17 21 14 31 23 09 15 03 29
  22428824.473   -17949130.856 8 -13705166.30446  22428823.888    22428831.0934
  21139246.515   -24596495.139 9 -18613919.33947  21139245.975    21139250.9894
  20935994.574   -21044809.920 9 -16352795.79347  20935994.073    20935998.3444
  22949901.470   -11386116.102 8  -8860397.84546  22949900.945    22949907.2474
  22414345.569   -17000750.815 8 -13200444.12446  22414344.982    22414350.5074
  23392155.925    -6631710.830 8  -5156191.97845  23392155.517    23392161.8454
  21187470.599   -22485590.989 9 -17000990.46247  21187469.850    21187475.3184
  21766389.463   -18557367.850 8 -14157254.38647  21766389.112    21766394.8164
  21167176.503   -17071523.909 8 -13280158.70047  21167176.339    21167181.5154
 01  4 23  1 30  0.0000000  0  9 17 21 14 31 23 09 15 03 29
  22443660.431   -17871167.819 8 -13644415.97546  22443659.847    22443667.0524
  21137171.739   -24607398.045 9 -18622415.07547  21137171.211    21137176.2294
  20924470.453   -21105369.202 9 -16399984.77247  20924469.971    20924474.2314
  22942845.640   -11423194.650 8  -8889290.17346  22942845.089    22942851.3854
  22423995.520   -16950040.139 8 -13160929.31546  22423994.941    22424000.4394
  23394033.579    -6621842.799 8  -5148502.54745  23394033.268    23394039.6064
  21198208.283   -22429164.150 8 -16957021.51447  21198207.526    21198213.0114
  21771394.182   -18531067.740 8 -14136760.81247  21771393.838    21771399.5714
  21155073.059   -17135127.571 9 -13329719.91347  21155072.928    21155078.0524
 01  4 23  1 30 30.0000000  0  9 17 21 14 31 23 09 15 03 29
  22458557.874   -17792881.415 8 -13583413.68046  22458557.295    22458564.5874
  21135123.451   -24618161.604 9 -18630802.23847  21135122.939    21135127.9264
  20913035.941   -21165457.736 9 -16446806.93547  20913035.457    20913039.6944
  22935893.439   -11459728.909 8  -8917758.38646  22935892.862    22935899.1354
  22433655.645   -16899275.957 8 -13121372.81646  22433655.084    22433660.5614
  23396020.456    -6611401.196 8  -5140366.18345  23396020.342    23396026.5624
  21209018.673   -22372355.303 9 -16912754.90747  21209017.922    21209023.4044
  21776499.997   -18504236.674 8 -14115853.51447  21776499.643    21776505.3784
  21143049.189   -17198313.322 9 -13378955.48547  21143049.032    21143054.1304
 01  4 23  1 31  0.0000000  0  9 17 21 14 31 23 09 15 03 29
  22473516.562   -17714273.017 8 -13522160.47446  22473516.018    22473523.4064
  21133101.602   -24628786.611 9 -18639081.43847  21133101.069    21133106.0394
  20901691.062   -21225075.152 9 -16493261.99347  20901690.581    20901694.8024
  22929044.850   -11495718.397 8  -8945802.11146  22929044.303    22929050.5574
  22443325.780   -16848459.108 8 -13081775.28046  22443325.210    22443330.6684
  23398116.364    -6600386.591 8  -5131783.31845  23398116.271    23398122.5034
  21219901.598   -22315165.342 9 -16868191.32647  21219900.858    21219906.3494
  21781706.436   -18476876.753 8 -14094534.11647  21781706.069    21781711.8124
  21131104.937   -17261080.465 9 -13427864.86547  21131104.781    21131109.8624
 01  4 23  1 31 30.0000000  0  9 17 21 14 31 23 09 15 03 29
  22488536.056   -17635345.329 8 -13460658.47146  22488535.560    22488542.9444
  21131105.722   -24639275.069 9 -18647254.24247  21131105.190    21131110.1164
  20890435.700   -21284222.131 9 -16539350.48947  20890435.203    20890439.4084
  22922299.774   -11531164.080 8  -8973422.10146  22922299.262    22922305.4384
  22453005.534   -16797591.817 8 -13042138.44846  22453004.938    22453010.3774
  23400321.154    -6588800.551 8  -5122755.18345  23400320.965    23400327.2694
  21230856.566   -22257596.723 9 -16823332.69047  21230855.824    21230861.2884
  21787012.851   -18448991.392 8 -14072805.29147  21787012.485    21787018.2544
  21119240.102   -17323430.255 9 -13476449.03847  21119239.945    21119245.0154
 01  4 23  1 32  0.0000000  0  9 17 21 14 31 23 09 15 03 29
  22503616.994   -17556094.909 8 -13398904.99646  22503616.470    22503623.8644
  21129136.441   -24649623.409 9 -18655317.85647  21129135.914    21129140.8534
  20879270.916   -21342893.238 9 -16585068.16847  20879270.442    20879274.6294
  22915659.033   -11566060.943 8  -9000614.43646  22915658.490    22915664.7344
  22462695.652   -16746670.245 8 -13002459.31246  22462695.040    22462700.4354
  23402635.462    -6576638.543 8  -5113278.25245  23402635.253    23402641.6324
  21241884.393   -22199645.229 9 -16778175.71647  21241883.640    21241889.1264
  21792419.800   -18420577.845 8 -14050664.88847  21792419.432    21792425.2104
  21107455.671   -17385357.383 9 -13524703.87047  21107455.513    21107460.5954
 01  4 23  1 32 30.0000000  0  9 17 21 14 31 23 09 15 03 29
  22518758.182   -17476527.753 8 -13336904.72146  22518757.568    22518765.0494
  21127192.822   -24659836.952 9 -18663276.44247  21127192.299    21127197.2324
  20868195.874   -21401092.797 9 -16630418.40147  20868195.389    20868199.5524
  22909121.923   -11600413.282 8  -9027382.45546  22909121.405    22909127.6394
  22472394.959   -16695699.985 8 -12962742.23946  22472394.345    22472399.7464
  23405058.285    -6563905.823 8  -5103356.59245  23405058.146    23405064.5564
  21252984.032   -22141316.377 9 -16732724.69947  21252983.286    21252988.7764
  21797925.978   -18391642.876 8 -14028118.18247  21797925.610    21797931.3414
  21095750.881   -17446865.915 9 -13572632.51447  21095750.746    21095755.8164
 01  4 23  1 33  0.0000000  0  9 17 21 14 31 23 09 15 03 29
  22533960.412   -17396639.631 8 -13274654.34146  22533959.834    22533967.3624
  21125275.847   -24669910.651 9 -18671126.05247  21125275.326    21125280.2564
  20857211.780   -21458814.443 9 -16675396.24047  20857211.293    20857215.4204
  22902689.565   -11634215.355 8  -9053721.70746  22902689.058    22902695.2974
  22482104.477   -16644676.139 8 -12922983.40846  22482103.864    22482109.2964
  23407590.721    -6550597.150 8  -5092986.14745  23407590.643    23407597.1174
  21264156.263   -22082605.884 8 -16686976.29647  21264155.531    21264161.0744
  21803531.949   -18362183.278 8 -14005162.67747  21803531.579    21803537.3284
  21084126.948   -17507949.744 9 -13620230.22947  21084126.813    21084131.8474
 01  4 23  1 33 30.0000000  0  9 17 21 14 31 23 09 15 03 29
  22549223.056   -17316434.327 8 -13212156.79546  22549222.468    22549230.0314
  21123384.808   -24679848.008 9 -18678869.42947  21123384.275    21123389.1994
  20846318.206   -21516060.320 9 -16720003.34847  20846317.715    20846321.8054
  22896361.697   -11667468.860 8  -9079633.49046  22896361.119    22896367.3234
  22491823.605   -16593601.741 8 -12883185.17546  22491822.985    22491828.3974
  23410232.361    -6536715.151 8  -5082168.96945  23410232.234    23410238.6444
  21275400.526   -22023516.949 9 -16640933.00247  21275399.807    21275405.3504
  21809236.958   -18332203.300 8 -13981801.68147  21809236.610    21809242.3474
  21072583.495   -17568610.924 9 -13667498.60447  21072583.344    21072588.3314
 01  4 23  1 34  0.0000000  0  9 17 21 14 31 23 09 15 03 29
  22564546.023   -17235911.821 8 -13149412.07946  22564545.440    22564553.0504
  21121519.852   -24689648.323 9 -18686506.01947  21121519.316    21121524.2274
  20835515.520   -21572828.581 9 -16764238.29747  20835515.023    20835519.0944
  22890138.447   -11700172.068 8  -9105116.47746  22890137.838    22890144.0744
  22501552.399   -16542476.421 8 -12843347.28046  22501551.800    22501557.2434
  23412983.380    -6522258.861 8  -5070904.29345  23412983.199    23412989.5614
  21286716.912   -21964049.058 9 -16594594.42247  21286716.173    21286721.7214
  21815040.866   -18301703.799 8 -13958035.86347  21815040.502    21815046.2334
  21061120.750   -17628847.597 9 -13714436.19847  21061120.600    21061125.5814
 01  4 23  1 34 30.0000000  0  9 17 21 14 31 23 09 15 03 29
  22579929.345   -17155072.485 8 -13086420.49246  22579928.800    22579936.3564
  21119680.944   -24699311.812 9 -18694035.99047  21119680.410    21119685.3124
  20824803.965   -21629117.802 9 -16808099.96247  20824803.479    20824807.5594
  22884019.972   -11732324.263 8  -9130170.09146  22884019.423    22884025.6694
  22511291.004   -16491299.869 8 -12803469.45846  22511290.408    22511295.8504
  23415843.695    -6507227.921 8  -5059191.82045  23415843.399    23415849.7684
  21298105.423   -21904202.218 9 -16547960.55047  21298104.709    21298110.2424
  21820943.352   -18270686.161 8 -13933866.30447  21820943.005    21820948.7214
  21049739.022   -17688658.517 9 -13761042.02447  21049738.889    21049743.8614
 01  4 23  1 35  0.0000000  0  9 17 21 14 31 23 09 15 03 29
  22595372.542   -17073918.369 8 -13023183.61546  22595371.989    22595379.5714
  21117867.843   -24708839.528 9 -18701460.15947  21117867.315    21117872.2244
  20814183.553   -21684927.996 9 -16851588.36147  20814183.081    20814187.1564
  22878006.494   -11763925.508 8  -9154794.39946  22878005.925    22878012.1194
  22521039.054   -16440073.352 8 -12763552.70346  22521038.450    22521043.9394
  23418813.007    -6491623.471 8  -5047032.49245  23418812.763    23418819.1714
  21309565.729   -21843978.090 8 -16501032.69547  21309564.985    21309570.4944
  21826943.929   -18239152.950 8 -13909295.00747  21826943.581    21826949.3184
  21038438.353   -17748043.749 9 -13807316.15547  21038438.212    21038443.1624
 01  4 23  1 35 30.0000000  0  9 17 21 14 31 23 09 15 03 29
  22610875.681   -16992449.321 8 -12959701.34146  22610875.097    22610882.7104
  21116080.697   -24718230.894 9 -18708778.09347  21116080.192    21116085.0814
  20803654.729   -21740257.184 9 -16894701.95247  20803654.270    20803658.3074
  22872098.115   -11794974.138 8  -9178988.11146  22872097.516    22872103.6964
  22530796.830   -16388796.094 8 -12723596.41246  22530796.224    22530801.6894
  23421891.807    -6475444.276 8  -5034425.29345  23421891.472    23421897.9454
  21321097.932   -21783376.066 8 -16453810.37647  21321097.182    21321102.7004
  21833042.499   -18207104.801 8 -13884322.45847  21833042.140    21833047.9084
  21027219.013   -17807001.524 9 -13853257.20547  21027218.849    21027223.7704
 01  4 23  1 36  0.0000000  0  9 17 21 14 31 23 09 15 03 29
  22626438.600   -16910666.018 8 -12895974.18946  22626438.063    22626445.7044
  21114319.554   -24727485.784 9 -18715989.67847  21114319.031    21114323.9344
  20793217.566   -21795104.460 9 -16937440.02547  20793217.095    20793221.1214
  22866295.084   -11825469.081 8  -9202750.37746  22866294.533    22866300.6694
  22540564.198   -16337468.340 8 -12683600.76946  22540563.593    22540569.0054
  23425079.865    -6458690.302 8  -5021370.21145  23425079.635    23425086.0644
  21332701.954   -21722396.667 8 -16406294.00047  21332701.208    21332706.7244
  21839238.712   -18174543.432 8 -13858949.99647  21839238.350    21839244.1984
  21016081.223   -17865530.693 9 -13898864.27847  21016081.060    21016085.9624
 01  4 23  1 36 30.0000000  0  9 17 21 14 31 23 09 15 03 29
  22642061.687   -16828565.821 8 -12832000.10646  22642061.177    22642068.8834
  21112585.079   -24736600.510 9 -18723092.03847  21112584.542    21112589.4414
  20782873.032   -21849465.104 9 -16979798.90347  20782872.547    20782876.5624
  22860598.117   -11855406.394 8  -9226078.10746  22860597.628    22860603.7644
  22550341.826   -16286086.614 8 -12643563.07146  22550341.214    22550346.6184
  23428377.976    -6441357.954 8  -5007864.45345  23428377.802    23428384.1654
  21344378.370   -21661036.797 8 -16358481.15147  21344377.625    21344383.1354
  21845532.996   -18141466.854 8 -13833176.07047  21845532.652    21845538.4564
  21005025.814   -17923626.867 9 -13944133.95447  21005025.654    21005030.5814
 01  4 23  1 37  0.0000000  0  9 17 21 14 31 23 09 15 03 29
  22657743.998   -16746155.539 8 -12767784.40246  22657743.400    22657751.1414
  21110875.990   -24745581.608 9 -18730090.27347  21110875.475    21110880.3644
  20772620.122   -21903344.260 9 -17021782.60047  20772619.645    20772623.6614
  22855006.365   -11884791.037 8  -9248975.20646  22855005.869    22855011.9624
  22560128.521   -16234657.251 8 -12603488.27246  22560127.918    22560133.2834
  23431785.262    -6423452.954 8  -4993912.47645  23431785.063    23431791.4274
  21356125.977   -21599302.784 8 -16310376.76847  21356125.242    21356130.7524
  21851923.883   -18107882.633 8 -13807006.58847  21851923.538    21851929.3404
  20994051.801   -17981295.115 9 -13989070.18847  20994051.651    20994056.5784
 01  4 23  1 37 30.0000000  0  9 17 21 14 31 23 09 15 03 29
  22673485.335   -16663434.858 8 -12703326.82346  22673484.723    22673492.4414
  21109192.489   -24754428.384 9 -18736983.85047  21109191.970    21109196.8574
  20762459.224   -21956739.795 9 -17063389.45147  20762458.739    20762462.7444
  22849520.178   -11913620.997 8  -9271440.07146  22849519.647    22849525.7894
  22569924.536   -16183179.050 8 -12563375.41046  22569923.897    22569929.2804
  23435301.658    -6404974.447 8  -4979513.61345  23435301.379    23435307.6934
  21367944.911   -21537193.998 8 -16261980.36347  21367944.180    21367949.6574
  21858411.223   -18073791.597 8 -13780442.18547  21858410.897    21858416.6974
  20983159.697   -18038533.251 9 -14033671.26947  20983159.581    20983164.4954
 01  4 23  1 38  0.0000000  0  9 17 21 14 31 23 09 15 03 29
  22689285.660   -16580403.744 8 -12638627.36446  22689285.104    22689292.8304
  21107534.654   -24763140.093 9 -18743772.17647  21107534.168    21107539.0484
  20752390.660   -22009650.108 9 -17104618.20747  20752390.180    20752394.1854
  22844139.778   -11941894.897 8  -9293471.65146  22844139.212    22844145.4404
  22579729.919   -16131651.292 8 -12523223.92846  22579729.289    22579734.7324
  23438927.226    -6385921.678 8  -4964667.27545  23438926.989    23438933.2234
  21379835.245   -21474710.007 8 -16213291.58947  21379834.518    21379840.0464
  21864994.873   -18039194.477 8 -13753483.43447  21864994.539    21865000.3284
  20972349.762   -18095339.540 9 -14077935.83347  20972349.645    20972354.5164
 01  4 23  1 38 30.0000000  0  9 17 21 14 31 23 09 15 03 29
  22705144.641   -16497064.282 8 -12573687.61846  22705144.106    22705151.9044
  21105902.345   -24771717.913 9 -18750456.17447  21105901.838    21105906.7254
  20742414.425   -22062075.277 9 -17145468.92947  20742413.956    20742417.9524
  22838865.182   -11969613.082 8  -9315070.20346  22838864.623    22838870.7994
  22589544.464   -16080075.374 8 -12483034.92546  22589543.844    22589549.2974
  23442661.905    -6366295.815 8  -4949374.35545  23442661.623    23442667.8874
  21391796.669   -21411852.513 8 -16164311.77047  21391795.938    21391801.5064
  21871674.256   -18004094.216 8 -13726132.62447  21871673.925    21871679.7244
  20961621.941   -18151714.402 9 -14121864.22847  20961621.811    20961626.6554
 01  4 23  1 39  0.0000000  0  9 17 21 14 31 23 09 15 03 29
  22721062.479   -16413416.318 8 -12508507.48246  22721061.906    22721069.7064
  21104295.803   -24780160.242 9 -18757034.60047  21104295.290    21104300.1704
  20732530.922   -22114013.170 9 -17185939.95447  20732530.448    20732534.4354
  22833696.646   -11996774.091 8  -9336234.59246  22833696.091    22833702.1864
  22599368.396   -16028450.168 8 -12442807.51846  22599367.783    22599373.3064
  23446505.759    -6346095.847 8  -4933634.09445  23446505.502    23446511.7614
  21403829.301   -21348620.642 8 -16115040.21947  21403828.578    21403834.1994
  21878449.267   -17968491.479 8 -13698390.27147  21878448.945    21878454.7584
  20950976.645   -18207655.679 9 -14165454.76447  20950976.501    20950981.3314
 01  4 23  1 39 30.0000000  0  9 17 21 14 31 23 09 15 03 29
  22737038.869   -16329460.291 8 -12443087.30046  22737038.276    22737046.1164
  21102714.950   -24788467.507 9 -18763507.77347  21102714.455    21102719.3194
  20722740.374   -22165462.581 9 -17226030.34347  20722739.906    20722743.8874
  22828634.254   -12023376.870 8  -9356964.01446  22828633.725    22828639.8334
  22609201.780   -15976775.468 8 -12402541.54446  22609201.166    22609206.6534
  23450458.990    -6325321.394 8  -4917446.17545  23450458.715    23450464.9764
  21415933.156   -21285014.487 8 -16065477.02347  21415932.428    21415938.0694
  21885319.714   -17932387.378 8 -13670257.24847  21885319.389    21885325.1644
  20940414.010   -18263162.238 9 -14208706.55447  20940413.873    20940418.6744
 01  4 23  1 40  0.0000000  0  9 17 21 14 31 23 09 15 03 29
  22753073.402   -16245198.165 8 -12377428.61046  22753072.855    22753080.6924
  21101159.715   -24796640.308 9 -18769876.17647  21101159.211    21101164.0674
  20713042.742   -22216423.841 9 -17265740.34747  20713042.249    20713046.2304
  22823677.935   -12049421.985 8  -9377258.87146  22823677.397    22823683.5624
  22619044.370   -15925052.448 8 -12362237.92546  22619043.752    22619049.2524
  23454521.140    -6303973.901 8  -4900811.74045  23454520.883    23454527.3074
  21428107.944   -21221035.820 8 -16015623.56447  21428107.210    21428112.8424
  21892284.906   -17895784.940 8 -13641735.90747  21892284.577    21892290.3964
  20929934.083   -18318234.388 9 -14251619.85047  20929933.948    20929938.7484
 01  4 23  1 40 30.0000000  0  9 17 21 14 31 23 09 15 03 29
  22769166.422   -16160629.259 8 -12311530.86145  22769165.865    22769173.7244
  21099630.270   -24804677.741 9 -18776139.09547  21099629.760    21099634.6194
  20703438.403   -22266894.475 9 -17305068.04747  20703437.928    20703441.8994
  22818828.286   -12074906.995 8  -9397117.30246  22818827.754    22818833.8724
  22628896.459   -15873279.613 8 -12321895.48546  22628895.861    22628901.3694
  23458692.745    -6282051.805 8  -4883729.55845  23458692.465    23458698.9744
  21440353.798   -21156683.538 8 -15965478.97547  21440353.072    21440358.6814
  21899344.923   -17858684.413 8 -13612826.44847  21899344.589    21899350.4574
  20919537.261   -18372869.670 9 -14294192.73447  20919537.136    20919541.9104
 01  4 23  1 41  0.0000000  0  9 17 21 14 31 23 09 15 03 29
  22785317.479   -16075755.379 8 -12245395.48245  22785316.913    22785324.8544
  21098126.344   -24812580.796 9 -18782297.31347  21098125.821    21098130.7004
  20693927.469   -22316874.481 9 -17344013.45347  20693927.013    20693930.9724
  22814085.218   -12099832.177 8  -9416539.49546  22814084.648    22814090.7844
  22638757.840   -15821457.807 8 -12281514.89946  22638757.244    22638762.7554
  23462973.552    -6259555.980 8  -4866200.31145  23462973.291    23462979.7574
  21452670.477   -21091959.074 8 -15915044.37647  21452669.736    21452675.3694
  21906499.232   -17821088.385 8 -13583530.89047  21906498.907    21906504.7674
  20909223.594   -18427068.165 9 -14336425.26447  20909223.466    20909228.2324
 01  4 23  1 41 30.0000000  0  9 17 21 14 31 23 09 15 03 29
  22801526.357   -15990577.463 8 -12179023.19245  22801525.792    22801533.6994
  21096648.006   -24820349.512 9 -18788350.84847  21096647.485    21096652.3554
  20684510.049   -22366363.137 9 -17382575.98647  20684509.572    20684513.5154
  22809448.615   -12124196.953 8  -9435525.01346  22809448.088    22809454.2804
  22648628.550   -15769587.058 8 -12241096.16446  22648627.941    22648633.4814
  23467363.522    -6236486.715 8  -4848224.23745  23467363.242    23467369.6394
  21465057.878   -21026862.913 8 -15864320.14747  21465057.170    21465062.8124
  21913747.461   -17782999.001 8 -13553850.89347  21913747.119    21913752.9404
  20898993.197   -18480828.970 9 -14378316.73547  20898993.078    20898997.8424
 01  4 23  1 42  0.0000000  0  9 17 21 14 31 23 09 15 03 29
  22817792.722   -15905097.555 8 -12112415.57045  22817792.180    22817800.0194
  21095194.954   -24827985.377 9 -18794300.85947  21095194.421    21095199.2774
  20675186.105   -22415360.576 9 -17420755.75047  20675185.627    20675189.5444
  22804918.635   -12148002.219 8  -9454074.55046  22804918.094    22804924.2944
  22658508.335   -15717668.664 8 -12200640.30946  22658507.712    22658513.2564
  23471862.159    -6212845.589 7  -4829802.54245  23471861.869    23471868.2984
  21477515.699   -20961396.865 8 -15813307.69747  21477514.976    21477520.6194
  21921088.989   -17744418.902 8 -13523788.52547  21921088.636    21921094.5244
  20888845.991   -18534152.512 9 -14419867.47547  20888845.883    20888850.6124
 01  4 23  1 42 30.0000000  0  9 17 21 14 31 23 09 15 03 29
  22834116.365   -15819316.285 8 -12045573.13945  22834115.890    22834123.7654
  21093767.245   -24835487.913 9 -18800146.98847  21093766.719    21093771.5844
  20665955.783   -22463865.859 9 -17458552.00847  20665955.307    20665959.2254
  22800495.299   -12171246.800 8  -9472187.18346  22800494.776    22800500.9964
  22668397.245   -15665702.126 8 -12160146.93946  22668396.635    22668402.1804
  23476469.723    -6188632.274 7  -4810935.00845  23476469.449    23476475.8974
  21490043.920   -20895560.891 8 -15762006.98747  21490043.193    21490048.8274
  21928523.549   -17705350.045 8 -13493345.29547  21928523.189    21928529.1174
  20878782.264   -18587037.723 9 -14461076.66347  20878782.140    20878786.8294
 01  4 23  1 43  0.0000000  0  9 17 21 14 31 23 09 15 03 29
  22850497.494   -15733233.527 8 -11978495.77345  22850497.050    22850504.8954
  21092365.135   -24842855.998 9 -18805888.34547  21092364.600    21092369.5044
  20656819.496   -22511877.225 9 -17495963.40347  20656819.032    20656822.9284
  22796178.940   -12193929.401 8  -9489861.91146  22796178.414    22796184.6274
  22678295.552   -15613686.725 8 -12119615.48046  22678294.883    22678300.4294
  23481186.364    -6163846.150 8  -4791621.10945  23481186.033    23481192.5534
  21502642.587   -20829354.582 8 -15710417.71347  21502641.861    21502647.5174
  21936051.009   -17665793.036 8 -13462521.69747  21936050.638    21936056.5984
  20868802.235   -18639482.826 9 -14501942.91247  20868802.109    20868806.7714
 01  4 23  1 43 30.0000000  0  9 17 21 14 31 23 09 15 03 29
  22866935.706   -15646850.925 8 -11911184.77745  22866935.190    22866943.1464
  21090988.495   -24850089.984 9 -18811525.20647  21090987.983    21090992.8984
  20647777.216   -22559394.460 9 -17532989.77547  20647776.752    20647780.6324
  22791969.537   -12216050.060 8  -9507098.77446  22791969.018    22791975.2204
  22688202.855   -15561623.221 8 -12079046.56546  22688202.234    22688207.7624
  23486011.766    -6138488.034 7  -4771861.51245  23486011.483    23486018.0114
  21515311.454   -20762779.407 8 -15658541.02347  21515310.730    21515316.4334
  21943670.848   -17625750.475 8 -13431319.74547  21943670.523    21943676.4914
  20858906.000   -18691487.661 9 -14542466.10647  20858905.890    20858910.5374
 01  4 23  1 44  0.0000000  0  9 17 21 14 31 23 09 15 03 29
  22883430.713   -15560169.520 8 -11843640.93045  22883430.221    22883438.1184
  21089637.381   -24857190.216 9 -18817057.84047  21089636.848    21089641.7514
  20638829.118   -22606416.983 9 -17569630.65547  20638828.636    20638832.4804
  22787867.081   -12237608.441 8  -9523897.48846  22787866.558    22787872.7014
  22698119.358   -15509511.603 8 -12038440.13546  22698118.789    22698124.2474
  23490946.004    -6112558.495 8  -4751656.65645  23490945.717    23490952.2284
  21528050.463   -20695835.834 8 -15606377.26447  21528049.741    21528055.4194
  21951382.724   -17585224.455 8 -13399741.06647  21951382.404    21951388.3694
  20849093.661   -18743051.634 9 -14582645.77147  20849093.533    20849098.1494
 01  4 23  1 44 30.0000000  0  9 17 21 14 31 23 09 15 03 29
  22899982.538   -15473189.475 8 -11775864.38445  22899981.992    22899989.9764
  21088311.759   -24864156.291 9 -18822485.94447  21088311.236    21088316.1234
  20629975.394   -22652943.306 9 -17605884.88147  20629974.926    20629978.7484
  22783871.796   -12258603.562 8  -9540257.31046  22783871.284    22783877.4294
  22708045.161   -15457351.136 8 -11997795.64846  22708044.598    22708050.0944
  23495989.088    -6086057.027 7  -4731006.12445  23495988.825    23495995.2304
  21540859.528   -20628523.973 8 -15553926.51447  21540858.794    21540864.4894
  21959186.399   -17544215.996 8 -13367786.46647  21959186.112    21959192.0714
  20839365.470   -18794173.390 9 -14622480.84847  20839365.358    20839369.9404
 01  4 23  1 45  0.0000000  0  9 17 21 14 31 23 09 15 03 29
  22916590.679   -15385913.262 8 -11707857.06645  22916590.095    22916598.1894
  21087011.530   -24870989.045 9 -18827810.16147  21087011.016    21087015.8724
  20621215.998   -22698973.979 9 -17641752.89147  20621215.520    20621219.3344
  22779983.585   -12279036.248 8  -9556178.86046  22779983.036    22779989.2124
  22717980.001   -15405142.995 8 -11957114.01546  22717979.490    22717985.0124
  23501140.733    -6058985.283 7  -4709911.20845  23501140.399    23501146.7204
  21553738.294   -20560845.639 8 -15501190.20847  21553737.588    21553743.2934
  21967081.283   -17502728.514 8 -13335458.60747  21967080.966    21967086.9114
  20829721.379   -18844853.286 9 -14661971.61847  20829721.254    20829725.8104
 01  4 23  1 45 30.0000000  0  9 17 21 14 31 23 09 15 03 29
  22933255.241   -15298340.660 8 -11639618.79245  22933254.669    22933262.8474
  21085736.718   -24877688.147 9 -18833030.23247  21085736.189    21085741.0664
  20612551.208   -22744507.464 9 -17677233.48147  20612550.738    20612554.5614
  22776202.620   -12298905.106 8  -9571661.06146  22776202.093    22776208.2744
  22727924.159   -15352886.282 8 -11916394.53346  22727923.606    22727929.1604
  23506400.927    -6031342.735 8  -4688371.53645  23506400.557    23506406.8284
  21566686.900   -20492800.426 8 -15448168.01347  21566686.184    21566691.9284
  21975067.085   -17460762.856 8 -13302758.13547  21975066.768    21975072.7134
  20820161.653   -18895089.741 9 -14701116.84347  20820161.502    20820166.0544
 01  4 23  1 46  0.0000000  0  9 17 21 14 31 23 09 15 03 29
  22949975.883   -15210473.626 8 -11571151.09245  22949975.312    22949983.4784
  21084487.141   -24884254.641 9 -18838146.97047  21084486.614    21084491.5144
  20603981.038   -22789543.982 9 -17712326.82447  20603980.571    20603984.3614
  22772528.991   -12318210.229 8  -9586704.00146  22772528.436    22772534.5794
  22737877.371   -15300581.718 8 -11875637.77046  22737876.845    22737882.4154
  23511769.527    -6003130.556 8  -4666387.96945  23511769.201    23511775.2964
  21579705.141   -20424389.403 8 -15394860.77747  21579704.421    21579710.1974
  21983143.324   -17418321.795 8 -13269687.22447  21983143.037    21983149.0224
  20810686.257   -18944882.997 9 -14739916.71647  20810686.112    20810690.6574
 01  4 23  1 46 30.0000000  0  9 17 21 14 31 23 09 15 03 29
  22966752.135   -15122314.176 8 -11502455.53145  22966751.519    22966759.7714
  21083262.720   -24890688.918 9 -18843160.68847  21083262.201    21083267.0784
  20595505.376   -22834083.666 9 -17747033.01747  20595504.919    20595508.6874
  22768962.474   -12336952.681 8  -9601308.50846  22768961.886    22768967.9954
  22747839.557   -15248230.339 8 -11834844.51446  22747839.008    22747844.5714
  23517246.175    -5974350.276 7  -4643961.74045  23517245.870    23517252.0324
  21592792.597   -20355614.390 8 -15341269.90147  21592791.901    21592797.6914
  21991309.515   -17375408.464 8 -13236248.30747  21991309.223    21991315.2154
  20801295.137   -18994233.415 9 -14778371.52047  20801294.993    20801299.5284
 01  4 23  1 47  0.0000000  0  9 17 21 14 31 23 09 15 03 29
  22983584.227   -15033861.098 8 -11433531.16345  22983583.706    22983591.9954
  21082063.889   -24896988.734 9 -18848069.62947  21082063.391    21082068.2394
  20587124.757   -22878123.845 9 -17781349.98947  20587124.300    20587128.0594
  22765503.390   -12355130.044 8  -9615472.67246  22765502.820    22765508.9254
  22757811.078   -15195830.029 8 -11794013.13346  22757810.505    22757816.0584
  23522831.255    -5945000.372 7  -4621091.64245  23522830.863    23522837.1784
  21605949.623   -20286474.001 8 -15287394.33647  21605948.933    21605954.7294
  21999565.571   -17332022.710 8 -13202441.27647  21999565.268    21999571.2754
  20791988.853   -19043138.027 9 -14816478.95347  20791988.716    20791993.2444
 01  4 23  1 47 30.0000000  0  9 17 21 14 31 23 09 15 03 29
  23000471.785   -14945117.136 8 -11364380.13945  23000471.265    23000479.4994
  21080890.315   -24903155.835 9 -18852875.15047  21080889.824    21080894.6634
  20578838.998   -22921665.660 9 -17815278.63047  20578838.547    20578842.2774
  22762151.611   -12372743.582 8  -9629197.48546  22762151.050    22762157.1474
  22767791.490   -15143382.371 8 -11753144.86746  22767790.966    22767796.5194
  23528524.329    -5915082.905 7  -4597779.29345  23528523.942    23528530.3414
  21619175.704   -20216970.573 8 -15233235.87347  21619175.017    21619180.8284
  22007910.847   -17288168.247 8 -13168269.01847  22007910.540    22007916.5404
  20782767.145   -19091598.100 9 -14854239.99947  20782767.010    20782771.5374
 01  4 23  1 48  0.0000000  0  9 17 21 14 31 23 09 15 03 29
  23017414.736   -14856081.890 8 -11295002.13945  23017414.225    23017422.4494
  21079742.170   -24909189.280 9 -18857576.51647  21079741.679    21079746.5444
  20570648.473   -22964707.038 9 -17848817.31448  20570648.007    20570651.7254
  22758907.380   -12389791.920 8  -9642481.88246  22758906.837    22758912.9384
  22777781.228   -15090885.955 8 -11712238.58946  22777780.710    22777786.3504
  23534325.504    -5884597.065 8  -4574024.06145  23534325.156    23534331.6484
  21632471.073   -20147103.214 8 -15178793.82047  21632470.363    21632476.2164
  22016345.207   -17243845.769 8 -13133732.05747  22016344.902    22016350.8884
  20773630.383   -19139611.729 9 -14891653.15447  20773630.255    20773634.7954
 01  4 23  1 48 30.0000000  0  9 17 21 14 31 23 09 15 03 29
  23034412.630   -14766758.024 8 -11225399.24045  23034412.108    23034420.2944
  21078619.254   -24915090.181 9 -18862174.61847  21078618.756    21078623.6214
  20562552.965   -23007248.990 9 -17881966.84848  20562552.501    20562556.2024
  22755770.531   -12406276.184 8  -9655326.75546  22755770.008    22755776.0234
  22787780.031   -15038342.009 8 -11671295.28046  22787779.478    22787785.2014
  23540234.593    -5853544.915 7  -4549827.53845  23540234.255    23540240.6054
  21645835.240   -20076874.212 8 -15124069.98247  21645834.540    21645840.3804
  22024867.847   -17199058.846 8 -13098833.20747  22024867.522    22024873.5484
  20764578.488   -19187179.558 9 -14928718.94047  20764578.372    20764582.8904
 01  4 23  1 49  0.0000000  0  9 17 21 14 31 23 09 15 03 29
  23051465.698   -14677144.472 8 -11155570.63045  23051465.082    23051473.3194
  21077522.068   -24920856.057 9 -18866667.49747  21077521.576    21077526.4484
  20554553.011   -23049288.718 9 -17914725.03448  20554552.539    20554556.2334
  22752741.436   -12422194.040 8  -9667730.25546  22752740.905    22752746.9634
  22797788.245   -14985748.630 8 -11630313.45046  22797787.710    22797793.4104
  23546251.587    -5821924.836 7  -4525188.50245  23546251.280    23546257.6424
  21659268.484   -20006282.508 8 -15069063.50847  21659267.731    21659273.6274
  22033478.940   -17153807.463 8 -13063572.43247  22033478.630    22033484.6874
  20755611.896   -19234299.010 9 -14965435.33847  20755611.759    20755616.2754
 01  4 23  1 49 30.0000000  0  9 17 21 14 31 23 09 15 03 29
  23068572.940   -14587245.283 8 -11085519.43445  23068572.389    23068580.7214
  21076449.839   -24926490.471 9 -18871057.94647  21076449.348    21076454.2334
  20546648.167   -23090828.746 9 -17947093.84148  20546647.702    20546651.3894
  22749819.632   -12437548.118 8  -9679694.45846  22749819.108    22749825.1434
  22807805.363   -14933108.719 8 -11589295.36346  22807804.825    22807810.4494
  23552376.028    -5789740.369 7  -4500109.65745  23552375.650    23552382.0434
  21672769.988   -19935331.547 8 -15013777.10047  21672769.264    21672775.1764
  22042177.439   -17108096.629 8 -13027953.64847  22042177.148    22042183.2044
  20746730.155   -19280972.600 9 -15001804.31947  20746730.018    20746734.5444
 01  4 23  1 50  0.0000000  0  9 17 21 14 31 23 09 15 03 29
  23085734.753   -14497059.600 8 -11015244.99845  23085734.288    23085742.6054
  21075403.099   -24931991.176 9 -18875344.20147  21075402.612    21075407.4574
  20538838.831   -23131866.902 9 -17979071.57748  20538838.358    20538842.0324
  22747005.492   -12452336.520 8  -9691217.86446  22747004.977    22747010.9744
  22817831.680   -14880420.169 8 -11548239.37446  22817831.124    22817836.7974
  23558608.156    -5756990.058 7  -4474589.92245  23558607.735    23558614.2404
  21686340.090   -19864020.119 8 -14958209.80847  21686339.360    21686345.3074
  22050963.357   -17061926.601 8 -12991977.04647  22050963.066    22050969.1304
  20737933.710   -19327197.905 9 -15037823.98247  20737933.577    20737938.0914
 01  4 23  1 50 30.0000000  0  9 17 21 14 31 23 09 15 03 29
  23102950.837   -14406589.197 8 -10944748.70345  23102950.310    23102958.7604
  21074381.680   -24937358.734 9 -18879526.71047  21074381.209    21074386.0504
  20531125.050   -23172402.921 9 -18010658.04348  20531124.568    20531128.2364
  22744298.841   -12466559.819 8  -9702300.93446  22744298.290    22744304.2934
  22827867.132   -14827683.633 8 -11507145.99646  22827866.577    22827872.2204
  23564947.735    -5723675.289 7  -4448630.32945  23564947.326    23564953.8854
  21699978.565   -19792349.553 8 -14902362.67047  21699977.848    21699983.8214
  22059836.135   -17015300.133 8 -12955644.77747  22059835.843    22059841.9004
  20729222.571   -19372974.982 9 -15073494.37247  20729222.448    20729226.9314
 01  4 23  1 51  0.0000000  0  9 17 21 14 31 23 09 15 03 29
  23120220.569   -14315836.610 8 -10874032.51545  23120220.035    23120228.5134
  21073385.364   -24942594.479 9 -18883606.48847  21073384.869    21073389.7174
  20523506.541   -23212438.196 9 -18041854.31948  20523506.073    20523509.7364
  22741699.536   -12480219.285 8  -9712944.65346  22741698.939    22741704.9804
  22837911.485   -14774900.434 8 -11466016.23946  22837910.883    22837916.5424
  23571394.258    -5689798.085 8  -4422232.47345  23571393.964    23571400.5044
  21713685.076   -19720321.828 8 -14846237.21947  21713684.359    21713690.3164
  22068795.079   -16968220.681 8 -12918959.53647  22068794.801    22068800.8484
  20720596.540   -19418304.817 9 -15108816.25547  20720596.420    20720600.9004
 01  4 23  1 51 30.0000000  0  9 17 21 14 31 23 09 15 03 29
  23137544.198   -14224800.681 8 -10803095.54645  23137543.692    23137552.1374
  21072414.467   -24947696.523 9 -18887582.09247  21072413.961    21072418.7974
  20515983.884   -23251969.839 9 -18072658.15348  20515983.410    20515987.0724
  22739207.918   -12493312.626 8  -9723147.23246  22739207.364    22739213.3884
  22847965.103   -14722068.262 8 -11424848.33646  22847964.484    22847970.1514
  23577948.102    -5655357.182 8  -4395395.37045  23577947.876    23577954.3474
  21727459.766   -19647935.742 8 -14789832.52647  21727459.043    21727464.9884
  22077840.158   -16920688.556 8 -12881921.55747  22077839.879    22077845.9554
  20712056.127   -19463184.644 9 -15143787.49747  20712056.022    20712060.5104
 01  4 23  1 52  0.0000000  0  9 17 21 14 31 23 09 15 03 29
  23154921.396   -14133483.600 8 -10731939.50445  23154920.822    23154929.2844
  21071468.811   -24952665.859 9 -18891454.29547  21071468.306    21071473.1704
  20508556.963   -23290998.414 9 -18103069.98348  20508556.492    20508560.1374
  22736823.921   -12505840.600 8  -9732909.26846  22736823.345    22736829.4234
  22858027.840   -14669188.007 8 -11383642.96546  22858027.267    22858032.9444
  23584609.025    -5620354.231 7  -4368120.30845  23584608.726    23584615.1634
  21741302.221   -19575193.098 8 -14733149.99647  21741301.500    21741307.4714
  22086970.759   -16872706.929 8 -12844533.31647  22086970.478    22086976.6154
  20703601.216   -19507615.102 9 -15178408.58447  20703601.105    20703605.5794
 01  4 23  1 52 30.0000000  0  9 17 21 14 31 23 09 15 03 29
  23172352.109   -14041884.955 8 -10660564.05945  23172351.565    23172360.0324
  21070548.760   -24957500.621 9 -18895221.62947  21070548.253    21070553.1084
  20501226.128   -23329521.928 9 -18133088.26148  20501225.667    20501229.2944
  22734547.713   -12517801.968 8  -9742229.80246  22734547.140    22734553.1584
  22868100.044   -14616258.273 8 -11342399.03646  22868099.444    22868105.1544
  23591376.819    -5584788.507 8  -4340406.73745  23591376.649    23591382.9964
  21755212.696   -19502093.256 8 -14676189.14247  21755211.980    21755217.9584
  22096186.815   -16824276.413 8 -12806795.29747  22096186.548    22096192.7394
  20695232.215   -19551594.198 9 -15212677.96547  20695232.099    20695236.5804
 01  4 23  1 53  0.0000000  0  9 17 21 14 31 23 09 15 03 29
  23189835.491   -13950009.479 8 -10588972.90045  23189834.931    23189843.3224
  21069653.652   -24962204.479 9 -18898886.94947  21069653.153    21069657.9814
  20493990.756   -23367543.805 9 -18162715.64948  20493990.296    20493993.9124
  22732378.718   -12529200.064 8  -9751111.41746  22732378.152    22732384.2194
  22878180.932   -14563282.457 8 -11301119.20146  22878180.385    22878186.1224
  23598251.087    -5548664.351 8  -4312258.02045  23598250.871    23598257.1284
  21769190.369   -19428640.299 8 -14618953.11547  21769189.663    21769195.6654
  22105487.144   -16775402.796 8 -12768712.00247  22105486.880    22105493.1064
  20686948.532   -19595125.076 9 -15246598.07447  20686948.414    20686952.8874
 01  4 23  1 53 30.0000000  0  9 17 21 14 31 23 09 15 03 29
  23207371.796   -13857856.144 7 -10517165.23745  23207371.151    23207379.6614
  21068783.905   -24966775.115 9 -18902448.47247  21068783.375    21068788.1874
  20486851.370   -23405061.402 9 -18191950.09548  20486850.928    20486854.5154
  22730317.289   -12540032.572 8  -9759552.32546  22730316.739    22730322.7764
  22888271.103   -14510258.142 8 -11259801.57546  22888270.600    22888276.3384
  23605231.751    -5511980.117 8  -4283672.87945  23605231.588    23605237.9064
  21783235.414   -19354832.998 8 -14561440.98747  21783234.730    21783240.7534
  22114871.860   -16726085.954 8 -12730283.34147  22114871.603    22114877.8254
  20678750.652   -19638204.913 9 -15280166.72547  20678750.539    20678755.0074
 01  4 23  1 54  0.0000000  0  9 17 21 14 31 23 09 15 03 29
  23224960.823   -13765425.618 7 -10445141.57945  23224960.164    23224968.7084
  21067939.572   -24971211.728 9 -18905905.55847  21067939.069    21067943.9134
  20479808.103   -23442073.837 9 -18220790.91148  20479807.654    20479811.2264
  22728363.476   -12550299.459 8  -9767552.48446  22728362.951    22728369.0414
  22898370.559   -14457184.845 8 -11218445.77446  22898370.089    22898375.8564
  23612319.001    -5474736.600 8  -4254651.93045  23612318.822    23612325.1374
  21797347.897   -19280671.845 8 -14503653.13447  21797347.181    21797353.2244
  22124340.576   -16676327.867 8 -12691510.85247  22124340.308    22124346.5124
  20670638.713   -19680833.221 9 -15313383.53647  20670638.615    20670643.0694
 01  4 23  1 54 30.0000000  0  9 17 21 14 31 23 09 15 03 29
  23242602.248   -13672719.463 7 -10372903.15145  23242601.602    23242610.2284
  21067120.879   -24975513.795 9 -18909257.80447  21067120.396    21067125.2414
  20472860.960   -23478581.141 9 -18249238.12648  20472860.504    20472864.0784
  22726517.359   -12560001.002 8  -9775112.12246  22726516.840    22726522.8814
  22908479.477   -14404062.606 8 -11177051.85946  22908478.970    22908484.7064
  23619512.384    -5436934.888 8  -4225196.01945  23619512.232    23619518.5294
  21811527.493   -19206157.910 8 -14445590.38847  21811526.774    21811532.7964
  22133892.788   -16626130.915 8 -12652396.39447  22133892.525    22133898.7174
  20662612.768   -19723009.720 9 -15346248.29147  20662612.671    20662617.0854
 01  4 23  1 55  0.0000000  0  9 17 21 14 31 23 09 15 03 29
  23260295.238   -13579742.719 7 -10300453.86345  23260294.653    23260303.2824
  21066326.805   -24979686.492 9 -18912509.23847  21066326.326    21066331.1834
  20466009.255   -23514586.734 9 -18277294.39448  20466008.817    20466012.4054
  22724778.111   -12569140.754 8  -9782233.99646  22724777.574    22724783.6724
  22918596.948   -14350895.232 8 -11135622.76246  22918596.426    22918602.1234
  23626811.057    -5398579.672 8  -4195308.81745  23626810.859    23626817.2254
  21825773.342   -19131295.637 8 -14387256.20347  21825772.632    21825778.6604
  22143527.292   -16575501.383 8 -12612944.85347  22143527.025    22143533.2814
  20654672.104   -19764737.972 9 -15378763.76547  20654671.988    20654676.3914
 01  4 23  1 55 30.0000000  0  9 17 21 14 31 23 09 15 03 29
  23278040.643   -13486490.791 7 -10227790.14545  23278039.998    23278048.7334
  21065558.653   -24983723.115 9 -18915654.64747  21065558.158    21065563.0134
  20459254.157   -23550084.799 9 -18304955.18948  20459253.713    20459257.2984
  22723146.707   -12577713.575 8  -9788914.12046  22723146.193    22723152.3684
  22928724.211   -14297676.779 8 -11094153.86846  22928723.655    22928729.3074
  23634216.019    -5359665.884 8  -4164986.35145  23634215.922    23634222.2334
  21840086.337   -19056080.363 8 -14328646.97547  21840085.633    21840091.7014
  22153244.778   -16524435.729 8 -12573153.49146  22153244.478    22153250.7764
  20646817.885   -19806011.867 9 -15410925.19647  20646817.766    20646822.1674
 01  4 23  1 56  0.0000000  0  9 17 21 14 31 23 09 15 03 29
  23295837.279   -13392969.030 7 -10154916.18245  23295836.628    23295845.3994
  21064815.478   -24987628.486 9 -18918697.77747  21064814.982    21064819.8464
  20452594.930   -23585079.179 9 -18332223.49548  20452594.493    20452598.0524
  22721622.393   -12585723.707 8  -9795155.77646  22721621.899    22721628.0834
  22938860.296   -14244411.224 8 -11052648.26646  22938859.718    22938865.4574
  23641726.522    -5320198.592 8  -4134232.57245  23641726.413    23641732.6044
  21854465.662   -18980516.975 8 -14269766.47347  21854464.939    21854470.9764
  22163043.981   -16472940.601 8 -12533027.45546  22163043.704    22163049.9594
  20639049.399   -19846835.245 9 -15442735.56847  20639049.284    20639053.6714
 01  4 23  1 56 30.0000000  0  9 17 21 14 31 23 09 15 03 29
  23313685.728   -13299175.594 7 -10081830.51345  23313685.211    23313693.8264
  21064097.979   -24991398.971 9 -18921635.80747  21064097.479    21064102.3204
  20446032.176   -23619566.475 9 -18359096.67148  20446031.727    20446035.2824
  22720205.792   -12593168.092 8  -9800956.59146  22720205.269    22720211.4614
  22949005.893   -14191095.428 8 -11011103.51746  22949005.364    22949011.1704
  23649342.651    -5280175.804 8  -4103045.94945  23649342.521    23649348.6234
  21868911.610   -18904603.306 8 -14210613.01547  21868910.888    21868916.9274
  22172925.113   -16421015.198 8 -12492566.14846  22172924.823    22172931.0524
  20631367.301   -19887204.702 9 -15474192.23847  20631367.192    20631371.5634
 01  4 23  1 57  0.0000000  0  9 17 21 14 31 23 09 15 03 29
  23331585.014   -13205114.893 7 -10008536.59245  23331584.460    23331593.1474
  21063405.624   -24995037.232 9 -18924470.80847  21063405.138    21063409.9774
  20439565.364   -23653549.701 9 -18385577.06948  20439564.914    20439568.4614
  22718896.115   -12600050.286 8  -9806319.34446  22718895.636    22718901.8024
  22959160.553   -14137732.484 8 -10969522.02346  22959160.054    22959165.8334
  23657063.626    -5239601.592 8  -4071429.64945  23657063.496    23657069.6294
  21883423.442   -18828343.402 8 -14151189.77547  21883422.712    21883428.7634
  22182887.064   -16368665.114 8 -12451773.92446  22182886.757    22182892.9954
  20623771.052   -19927123.152 9 -15505297.47347  20623770.921    20623775.2834
 01  4 23  1 57 30.0000000  0  9 17 21 14 31 23 09 15 03 29
  23349535.007   -13110787.368 7  -9935034.75545  23349534.543    23349543.1864
  21062738.524   -24998542.608 9 -18927202.25947  21062738.060    21062742.8944
  20433194.677   -23687027.720 9 -18411663.79748  20433194.234    20433197.7664
  22717693.643   -12606369.470 8  -9811243.38246  22717693.128    22717699.3164
  22969324.355   -14084321.393 8 -10927903.02446  22969323.828    22969329.6404
  23664889.614    -5198475.986 8  -4039383.68445  23664889.378    23664895.5164
  21898001.136   -18751737.400 8 -14091496.85146  21898000.380    21898006.4504
  22192929.563   -16315891.591 8 -12410651.74946  22192929.235    22192935.4924
  20616260.818   -19966589.438 9 -15536050.38247  20616260.690    20616265.0484
 01  4 23  1 58  0.0000000  0  9 17 21 14 31 23 09 15 03 29
  23367536.342   -13016190.362 7  -9861322.93545  23367535.812    23367544.4984
  21062097.515   -25001911.092 9 -18929827.04547  21062097.034    21062101.8644
  20426920.870   -23719996.597 9 -18437353.79748  20426920.417    20426923.9304
  22716598.927   -12612122.136 8  -9815725.98146  22716598.416    22716604.6134
  22979498.124   -14030858.133 8 -10886243.36746  22979497.545    22979503.3664
  23672820.960    -5156796.265 8  -4006905.95345  23672820.757    23672826.8414
  21912645.215   -18674782.410 8 -14031531.98046  21912644.472    21912650.5834
  22203052.910   -16262693.231 8 -12369198.52846  22203052.586    22203058.8314
  20608837.394   -20005599.629 9 -15566447.89447  20608837.269    20608841.6024
 01  4 23  1 58 30.0000000  0  9 17 21 14 31 23 09 15 03 29
  23385587.224   -12921332.424 7  -9787407.77945  23385586.695    23385595.5434
  21061481.208   -25005149.705 9 -18932350.63047  21061480.740    21061485.5914
  20420742.643   -23752463.356 9 -18462652.53648  20420742.194    20420745.6894
  22715610.605   -12617315.757 8  -9819772.95346  22715610.060    22715616.2804
  22989680.527   -13977349.771 8 -10844548.57146  22989679.896    22989685.7224
  23680856.119    -5114570.842 8  -3974002.99545  23680855.944    23680861.9794
  21927354.145   -18597486.621 8 -13971301.55746  21927353.389    21927359.5364
  22213255.213   -16209079.867 8 -12327421.92746  22213254.903    22213261.1634
  20601499.486   -20044160.482 9 -15596495.26047  20601499.359    20601503.6834
 01  4 23  1 59  0.0000000  0  9 17 21 14 31 23 09 15 03 29
  23403688.589   -12826209.297 7  -9713286.00945  23403688.064    23403697.0604
  21060890.619   -25008253.158 9 -18934768.89647  21060890.139    21060895.0154
  20414661.008   -23784422.411 9 -18487555.65548  20414660.545    20414664.0384
  22714729.631   -12621945.159 8  -9823380.27346  22714729.071    22714735.3314
  22999872.536   -13923790.531 8 -10802814.13246  22999871.860    22999877.7664
  23688996.029    -5071795.288 8  -3940671.36045  23688995.860    23689001.7794
  21942128.772   -18519845.527 8 -13910802.06046  21942128.041    21942134.2014
  22223537.111   -16155048.341 8 -12285319.48446  22223536.776    22223543.0844
  20594248.130   -20082266.389 9 -15626188.12047  20594248.009    20594252.3194
 01  4 23  1 59 30.0000000  0  9 17 21 14 31 23 09 15 03 29
  23421840.101   -12730822.974 7  -9638959.13145  23421839.607    23421848.5364
  21060325.692   -25011221.812 9 -18937082.12647  21060325.200    21060330.0954
  20408675.890   -23815874.323 9 -18512063.60048  20408675.428    20408678.8984
  22713955.910   -12626011.490 8  -9826548.83546  22713955.355    22713961.5034
  23010074.052   -13870181.059 8 -10761040.53246  23010073.398    23010079.3654
  23697240.248    -5028471.385 8  -3906912.44745  23697240.053    23697246.0104
  21956968.863   -18441860.633 8 -13850034.67446  21956968.137    21956974.3154
  22233897.953   -16100601.764 8 -12242893.62746  22233897.653    22233903.9504
  20587083.195   -20119917.995 9 -15655526.98747  20587083.099    20587087.4054
 01  4 23  2  0  0.0000000  0  9 17 21 14 31 23 09 15 03 29
  23440040.986   -12635177.283 7  -9564430.15245  23440040.438    23440049.4404
  21059786.042   -25014057.803 9 -18939291.97747  21059785.534    21059790.4154
  20402786.821   -23846821.359 9 -18536178.13148  20402786.355    20402789.8094
  22713288.723   -12629517.439 8  -9829280.73246  22713288.198    22713294.3804
  23020284.783   -13816523.677 8 -10719229.61746  23020284.109    23020290.0384
  23705588.145    -4984602.519 8  -3872728.91345  23705588.003    23705593.8644
  21971873.643   -18363535.613 8 -13789002.24946  21971872.949    21971879.1104
  22244336.905   -16045744.993 8 -12200148.12846  22244336.576    22244342.8824
  20580004.325   -20157117.474 9 -15684513.55247  20580004.230    20580008.5074
 01  4 23  2  0 30.0000000  0  9 17 21 14 31 23 09 15 03 29
  23458291.367   -12539271.364 7  -9489698.39545  23458290.863    23458299.8574
  21059271.932   -25016759.270 9 -18941397.00747  21059271.420    21059276.3264
  20396994.198   -23877261.576 9 -18559897.74248  20396993.755    20396997.2064
  22712728.463   -12632461.432 8  -9831574.75246  22712727.956    22712734.1594
  23030505.011   -13762816.069 8 -10677379.55746  23030504.313    23030510.2784
  23714040.007    -4940188.173 8  -3838120.31345  23714039.792    23714045.6904
  21986843.381   -18284869.227 8 -13727703.82946  21986842.696    21986848.8764
  22254853.797   -15990478.473 8 -12157083.35546  22254853.475    22254859.8614
  20573011.935   -20193862.618 9 -15713146.09147  20573011.840    20573016.0894
 01  4 23  2  1  0.0000000  0  9 17 21 14 31 23 09 15 03 29
  23476590.845   -12443107.885 7  -9414765.94945  23476590.194    23476599.2824
  21058783.348   -25019326.784 9 -18943397.65747  21058782.818    21058787.7244
  20391297.781   -23907196.240 9 -18583223.42648  20391297.329    20391300.7814
  22712274.844   -12634845.192 8  -9833432.19646  22712274.310    22712280.5504
  23040734.542   -13709059.337 8 -10635491.22046  23040733.902    23040739.8614
  23722595.066    -4895230.629 7  -3803088.43045  23722594.880    23722600.8404
  22001877.679   -18205863.677 8 -13666141.12446  22001876.977    22001883.2214
  22265447.962   -15934806.144 8 -12113702.35246  22265447.611    22265453.9574
  20566105.759   -20230154.650 9 -15741425.54647  20566105.651    20566109.9074
 01  4 23  2  1 30.0000000  0  9 17 21 14 31 23 09 15 03 29
  23494939.396   -12346686.271 7  -9339632.35645  23494938.703    23494947.8024
  21058320.605   -25021758.399 9 -18945292.41147  21058320.098    21058324.9964
  20385697.987   -23936623.239 9 -18606153.52448  20385697.535    20385700.9674
  22711928.150   -12636667.250 8  -9834851.97846  22711927.640    22711933.8094
  23050973.872   -13655251.423 8 -10593563.00046  23050973.263    23050979.1954
  23731253.634    -4849729.071 7  -3767632.67145  23731253.535    23731259.4734
  22016976.684   -18126518.157 8 -13604313.50346  22016975.985    22016982.2214
  22276119.204   -15878728.564 8 -12070005.57346  22276118.844    22276125.2084
  20559286.215   -20265991.371 9 -15769350.22747  20559286.112    20559290.3384
 01  4 23  2  2  0.0000000  0  9 17 21 14 31 23 09 15 03 29
  23513335.975   -12250011.451 7  -9264301.45745  23513335.436    23513344.5864
  21057883.039   -25024057.683 9 -18947084.04947  21057882.551    21057887.4294
  20380194.124   -23965546.106 9 -18628690.78848  20380193.675    20380197.0784
  22711687.521   -12637931.705 8  -9835837.25846  22711687.016    22711693.1074
  23061222.292   -13601395.674 8 -10551597.50946  23061221.668    23061227.6044
  23740014.874    -4803688.273 7  -3731756.71745  23740014.710    23740020.7154
  22032139.511   -18046837.107 8 -13542224.42946  22032138.807    22032145.0144
  22286866.448   -15822251.629 8 -12025997.62046  22286866.124    22286872.5024
  20552552.650   -20301376.370 9 -15796922.90947  20552552.554    20552556.7594
 01  4 23  2  2 30.0000000  0  9 17 21 14 31 23 09 15 03 29
  23531781.508   -12153080.338 7  -9188770.84245  23531780.957    23531790.0354
  21057471.592   -25026219.778 9 -18948768.78647  21057471.096    21057475.9764
  20374786.952   -23993960.685 9 -18650831.98548  20374786.499    20374789.9154
  22711553.769   -12638634.374 8  -9836384.78246  22711553.269    22711559.3874
  23071480.731   -13547487.474 8 -10509591.13646  23071480.196    23071486.0114
  23748879.303    -4757105.178 7  -3695458.16945  23748879.134    23748885.1924
  22047366.841   -17966817.106 8 -13479871.24446  22047366.126    22047372.3444
  22297690.042   -15765373.395 8 -11981676.95646  22297689.691    22297696.0984
  20545905.872   -20336305.220 9 -15824140.14647  20545905.766    20545909.9714
 01  4 23  2  3  0.0000000  0  9 17 21 14 31 23 09 15 03 29
  23550274.760   -12055897.733 7  -9113044.26345  23550274.224    23550283.3754
  21057085.517   -25028248.541 9 -18950349.63447  21057085.023    21057089.9024
  20369475.892   -24021870.353 9 -18672579.74448  20369475.446    20369478.8664
  22711526.166   -12638779.137 8  -9836497.56846  22711525.698    22711531.8104
  23081748.526   -13493530.125 8 -10467546.46346  23081747.969    23081753.7074
  23757846.015    -4709984.416 7  -3658740.66445  23757845.856    23757851.9374
  22062657.741   -17886462.942 8 -13417257.66446  22062657.060    22062663.3004
  22308588.857   -15708099.686 8 -11937048.13846  22308588.555    22308594.9384
  20539345.272   -20370781.136 9 -15851004.45647  20539345.187    20539349.4034
 01  4 23  2  3 30.0000000  0  9 17 21 14 31 23 09 15 03 29
  23568816.100   -11958463.039 7  -9037121.25645  23568815.479    23568824.7514
  21056725.341   -25030141.350 9 -18951824.54547  21056724.853    21056729.7394
  20364261.315   -24049273.109 9 -18693932.51448  20364260.856    20364264.2654
  22711605.017   -12638364.610 8  -9836174.54846  22711604.563    22711610.6634
  23092025.973   -13439521.328 8 -10425461.70746  23092025.494    23092031.2764
  23766915.133    -4662325.084 7  -3621603.51145  23766914.967    23766921.1244
  22078012.436   -17805773.580 8 -13354382.89046  22078011.751    22078018.0744
  22319562.865   -15650431.341 8 -11892111.79946  22319562.518    22319568.9134
  20532871.240   -20404802.207 9 -15877514.33647  20532871.149    20532875.3474
 01  4 23  2  4  0.0000000  0 10 17 21 14 31 23 25 09 15 03 29
  23587404.126   -11860782.436 7  -8961006.62845  23587403.580    23587412.9164
  21056390.037   -25031903.291 9 -18953197.48447  21056389.535    21056394.4334
  20359142.250   -24076173.753 9 -18714894.01848  20359141.799    20359145.1904
  22711789.248   -12637396.461 8  -9835420.14646  22711788.766    22711794.8384
  23102312.358   -13385465.838 8 -10383340.56546  23102311.912    23102317.7174
  24614748.751    -6069061.048 7  -4711056.67145  24614748.176    24614761.6454
  23776085.632    -4614133.580 7  -3584051.65745  23776085.528    23776091.6484
  22093429.832   -17724754.809 8 -13291251.44146  22093429.157    22093435.5094
  22330610.482   -15592375.722 8 -11846873.69946  22330610.140    22330616.6084
  20526482.882   -20438373.159 9 -15903673.48047  20526482.782    20526486.9634
 01  4 23  2  4 30.0000000  0 10 17 21 14 31 23 25 09 15 03 29
  23606039.604   -11762853.209 7  -8884698.26145  23606039.039    23606048.2394
  21056080.629   -25033529.275 9 -18954464.47047  21056080.119    21056085.0194
  20354119.518   -24102568.229 9 -18735461.10248  20354119.067    20354122.4494
  22712079.500   -12635871.168 8  -9834231.60246  22712079.035    22712085.0524
  23112608.558   -13331359.255 8 -10341179.60146  23112608.084    23112613.8044
  24596061.497    -6167260.612 7  -4787575.25345  24596060.912    24596074.3614
  23785358.048    -4565407.052 7  -3546082.91545  23785357.909    23785364.0024
  22108910.495   -17643403.617 8 -13227860.95146  22108909.810    22108916.2334
  22341732.103   -15533931.098 8 -11801332.47346  22341731.791    22341738.2884
  20520180.934   -20471489.911 9 -15929478.69347  20520180.835    20520185.0114
 01  4 23  2  5  0.0000000  0 10 17 21 14 31 23 25 09 15 03 29
  23624722.354   -11664675.228 7  -8808196.05445  23624721.705    23624731.0214
  21055797.307   -25035018.142 9 -18955624.61747  21055796.805    21055801.6824
  20349193.279   -24128455.564 9 -18755633.02348  20349192.847    20349196.2014
  22712475.998   -12633787.911 8  -9832608.28546  22712475.510    22712481.5144
  23122914.681   -13277200.071 8 -10298977.65746  23122914.229    23122919.9604
  24577362.088    -6265524.498 7  -4864144.01845  24577361.677    24577375.0214
  23794732.158    -4516145.331 7  -3507697.13045  23794732.010    23794738.0854
  22124454.432   -17561719.881 8 -13164211.33446  22124453.739    22124460.1724
  22352927.491   -15475098.778 8 -11755489.15846  22352927.221    22352933.7484
  20513965.667   -20504150.966 9 -15954928.83047  20513965.577    20513969.7464
 01  4 23  2  5 30.0000000  0 10 17 21 14 31 23 25 09 15 03 29
  23643451.831   -11566251.100 7  -8731502.06745  23643451.289    23643460.7214
  21055539.859   -25036370.838 9 -18956678.65147  21055539.383    21055544.2514
  20344363.399   -24153836.643 9 -18775410.45348  20344362.961    20344366.3114
  22712978.298   -12631148.119 8  -9830551.29446  22712977.793    22712983.8564
  23133230.757   -13222988.940 8 -10256735.22546  23133230.328    23133236.0114
  24558650.769    -6363851.105 7  -4940761.63445  24558650.481    24558663.6864
  23804207.710    -4466350.833 7  -3468896.19245  23804207.570    23804213.7534
  22140061.267   -17479705.604 8 -13100304.15546  22140060.555    22140066.9944
  22364196.034   -15415882.324 8 -11709346.51246  22364195.779    22364202.3074
  20507836.945   -20536357.340 9 -15980024.66747  20507836.870    20507841.0264
 01  4 23  2  6  0.0000000  0 10 17 21 14 31 23 25 09 15 03 29
  23662227.965   -11467582.372 7  -8654617.46245  23662227.371    23662236.8674
  21055308.431   -25037587.006 9 -18957626.30547  21055307.944    21055312.8144
  20339629.811   -24178711.690 9 -18794793.57848  20339629.368    20339632.7014
  22713586.413   -12627952.658 8  -9828061.34146  22713585.882    22713591.9244
  23143556.618   -13168726.077 8 -10214452.49646  23143556.139    23143561.9314
  24539928.035    -6462238.021 7  -5017426.25345  24539927.633    24539940.9104
  23813784.362    -4416025.201 7  -3429681.37145  23813784.240    23813790.4284
  22155730.773   -17397362.173 8 -13036140.49646  22155730.037    22155736.5094
  22375537.198   -15356284.552 8 -11662906.73246  22375536.938    22375543.4214
  20501794.718   -20568109.475 9 -16004766.55347  20501794.633    20501798.7684
 01  4 23  2  6 30.0000000  0 10 17 21 14 31 23 25 09 15 03 29
  23681050.193   -11368671.308 7  -8577544.02345  23681049.671    23681059.1034
  21055102.940   -25038666.817 9 -18958467.70347  21055102.436    21055107.2984
  20334992.307   -24203081.739 9 -18813783.19648  20334991.868    20334995.1904
  22714299.986   -12624202.732 8  -9825139.32346  22714299.477    22714305.4804
  23153892.248   -13114411.670 8 -10172129.60246  23153891.824    23153897.5864
  24521194.030    -6560683.455 7  -5094136.50145  24521193.772    24521206.7764
  23823461.685    -4365170.671 7  -3390054.44945  23823461.501    23823467.5734
  22171462.524   -17314691.361 8 -12971721.73146  22171461.797    22171468.2694
  22386950.173   -15296309.013 8 -11616172.59046  22386949.937    22386956.4284
  20495838.749   -20599408.045 9 -16029155.01247  20495838.676    20495842.8054
 01  4 23  2  7  0.0000000  0 10 17 21 14 31 23 25 09 15 03 29
  23699918.391   -11269518.870 7  -8500282.51145  23699917.698    23699927.4994
  21054923.394   -25039610.318 9 -18959202.88847  21054922.910    21054927.7484
  20330450.909   -24226946.860 9 -18832379.36448  20330450.492    20330453.8044
  22715118.891   -12619899.252 8  -9821785.96246  22715118.410    22715124.4354
  23164237.871   -13060045.447 8 -10129766.33046  23164237.382    23164243.1414
  24502449.425    -6659184.910 7  -5170890.40645  24502449.278    24502462.0734
  23833239.448    -4313788.371 8  -3350016.27545  23833239.262    23833245.2514
  22187256.377   -17231694.058 8 -12907048.56746  22187255.663    22187262.1764
  22398434.699   -15235957.918 8 -11569145.80146  22398434.407    22398440.9194
  20489969.154   -20630252.784 9 -16053189.83247  20489969.070    20489973.1954
 01  4 23  2  7 30.0000000  0 10 17 21 14 31 23 25 09 15 03 29
  23718831.994   -11170127.651 7  -8422834.94545  23718831.324    23718841.1694
  21054769.617   -25040418.227 9 -18959832.41647  21054769.137    21054773.9954
  20326005.331   -24250308.321 9 -18850583.06948  20326004.910    20326008.2204
  22716042.753   -12615044.004 8  -9818002.66946  22716042.261    22716048.3894
  23174593.115   -13005628.169 8 -10087363.27546  23174592.653    23174598.3694
  24483694.277    -6757741.189 7  -5247687.01945  24483694.212    24483707.0034
  23843117.168    -4261880.776 7  -3309568.76945  23843116.924    23843122.8764
  22203112.066   -17148372.292 8 -12842122.56846  22203111.356    22203117.8554
  22409989.840   -15175234.985 8 -11521829.27446  22409989.587    22409996.1504
  20484185.708   -20660644.795 9 -16076871.87147  20484185.624    20484189.7434
 01  4 23  2  8  0.0000000  0 10 17 21 14 31 23 25 09 15 03 29
  23737791.168   -11070497.092 7  -8345200.86845  23737790.479    23737800.3564
  21054642.090   -25041088.237 9 -18960354.50347  21054641.625    21054646.4574
  20321655.976   -24273164.231 9 -18868392.83548  20321655.561    20321658.8564
  22717071.952   -12609635.695 8  -9813788.41146  22717071.469    22717077.5734
  23184958.553   -12951157.683 8 -10044918.76246  23184958.078    23184963.8264
  24464929.664    -6856347.242 7  -5324522.42145  24464929.632    24464942.4474
  23853094.799    -4209447.436 7  -3268711.61545  23853094.616    23853100.6124
  22219029.585   -17064725.345 8 -12776943.18546  22219028.896    22219035.3854
  22421615.719   -15114140.621 8 -11474223.32346  22421615.478    22421622.0574
  20478488.724   -20690582.365 9 -16100199.80447  20478488.657    20478492.7774
 01  4 23  2  8 30.0000000  0 10 17 21 14 31 23 25 09 15 03 29
  23756795.298   -10970629.660 7  -8267382.23045  23756794.683    23756804.6354
  21054540.756   -25041620.742 9 -18960769.43547  21054540.295    21054545.1194
  20317402.637   -24295515.641 9 -18885809.48448  20317402.215    20317405.5034
  22718206.032   -12603676.197 8  -9809144.65746  22718205.533    22718211.5804
  23195333.980   -12896634.636 8 -10002433.31046  23195333.465    23195339.2774
  24446156.005    -6955001.665 8  -5401395.52245  24446155.969    24446168.7194
  23863172.001    -4156490.880 7  -3227446.74345  23863171.850    23863177.9514
  22235008.558   -16980755.575 8 -12711512.25046  22235007.835    22235014.3734
  22433311.620   -15052678.559 8 -11426330.84646  22433311.352    22433317.9204
  20472878.065   -20720066.453 9 -16123174.37847  20472878.001    20472882.1054
 01  4 23  2  9  0.0000000  0 10 17 21 14 31 23 25 09 15 03 29
  23775844.102   -10870527.960 7  -8189381.00945  23775843.476    23775853.3714
  21054465.424   -25042016.739 9 -18961077.99547  21054464.947    21054469.7484
  20313244.979   -24317364.234 9 -18902834.32748  20313244.544    20313247.8104
  22719444.699   -12597167.481 8  -9804072.94846  22719444.176    22719450.1544
  23205719.129   -12842059.989 8  -9959907.62546  23205718.615    23205724.5304
  24427373.467    -7053703.093 8  -5478305.28245  24427373.422    24427386.0044
  23873348.385    -4103013.729 8  -3185776.22945  23873348.254    23873354.2864
  22251048.516   -16896465.124 8 -12645831.43546  22251047.810    22251054.3484
  22445076.804   -14990852.519 8 -11378154.74946  22445076.527    22445083.0094
  20467353.405   -20749098.575 9 -16145796.76647  20467353.336    20467357.4334
 01  4 23  2  9 30.0000000  0 10 17 21 14 31 23 25 09 15 03 29
  23794937.590   -10770192.007 7  -8111197.25445  23794936.898    23794946.8074
  21054416.312   -25042274.793 9 -18961279.06347  21054415.841    21054420.6444
  20309183.207   -24338708.883 9 -18919466.49348  20309182.765    20309186.0264
  22720787.869   -12590108.637 8  -9798572.56946  22720787.347    22720793.4144
  23216114.458   -12787431.889 8  -9917340.31646  23216113.999    23216119.9214
  24408582.822    -7152447.372 7  -5555248.43845  24408582.701    24408595.1704
  23883623.876    -4049016.027 8  -3143700.05645  23883623.661    23883629.7254
  22267149.563   -16811853.710 8 -12579900.52546  22267148.863    22267155.4504
  22456910.926   -14928663.946 8 -11329696.16446  22456910.624    22456917.1414
  20461915.048   -20777677.185 9 -16168065.77748  20461914.981    20461919.0584
 01  4 23  2 10  0.0000000  0 10 17 21 14 31 23 25 09 15 03 29
  23814075.101   -10669624.123 7  -8032832.77545  23814074.419    23814084.2154
  21054393.255   -25042395.686 9 -18961373.26047  21054392.787    21054397.6104
  20305217.134   -24359550.522 9 -18935706.70048  20305216.711    20305219.9534
  22722235.474   -12582501.446 8  -9792644.90946  22722234.984    22722241.0494
  23226519.897   -12732751.014 8  -9874731.87446  23226519.455    23226525.3154
  24389784.400    -7251232.740 7  -5632223.60145  24389784.175    24389796.4524
  23893997.967    -3994499.988 8  -3101220.00145  23893997.719    23894003.7564
  22283311.298   -16726923.469 8 -12513721.17746  22283310.605    22283317.1804
  22468813.369   -14866116.417 8 -11280957.87846  22468813.074    22468819.6394
  20456562.793   -20805803.350 9 -16189982.23448  20456562.716    20456566.7974
 01  4 23  2 10 30.0000000  0 10 17 21 14 31 23 25 09 15 03 29
  23833256.519   -10568825.892 7  -7954288.81145  23833255.830    23833265.4304
  21054396.481   -25042378.685 9 -18961360.00147  21054396.015    21054400.8704
  20301346.708   -24379889.600 9 -18951555.30848  20301346.290    20301349.5204
  22723787.326   -12574346.728 8  -9786290.60446  22723786.780    22723792.8554
  23236935.480   -12678017.093 8  -9832082.10446  23236934.925    23236940.8684
  24370978.467    -7350057.005 7  -5709229.08245  24370978.204    24370990.2834
  23904470.468    -3939467.440 8  -3058337.47345  23904470.080    23904476.0424
  22299533.461   -16641675.538 8 -12447294.27846  22299532.805    22299539.3744
  22480783.626   -14803212.421 8 -11231941.82046  22480783.318    22480789.9474
  20451296.546   -20833477.444 9 -16211546.42748  20451296.482    20451300.5484
 01  4 23  2 11  0.0000000  0 10 17 21 14 31 23 25 09 15 03 29
  23852481.394   -10467799.360 7  -7875566.94445  23852480.721    23852490.3224
  21054425.941   -25042223.899 9 -18961239.38447  21054425.475    21054430.3244
  20297571.771   -24399726.890 9 -18967012.91648  20297571.334    20297574.5794
  22725443.007   -12565646.043 8  -9779510.85746  22725442.523    22725448.5544
  23247361.046   -12623230.429 8  -9789391.23546  23247360.547    23247366.4394
  24352165.391    -7448917.930 7  -5786263.12645  24352165.187    24352177.0594
  23915040.721    -3883920.564 8  -3015054.15745  23915040.312    23915046.2734
  22315815.807   -16556111.711 8 -12380621.22846  22315815.132    22315821.6584
  22492821.058   -14739955.284 8 -11182650.59346  22492820.764    22492827.3984
  20446116.241   -20860700.039 9 -16232758.80548  20446116.168    20446120.2424
 01  4 23  2 11 30.0000000  0 10 17 21 14 31 23 25 09 15 03 29
  23871749.764   -10366543.875 7  -7796666.69045  23871749.111    23871758.6674
  21054482.020   -25041929.124 9 -18961009.67247  21054481.556    21054486.4164
  20293892.616   -24419060.771 9 -18982078.26148  20293892.201    20293895.4334
  22727202.747   -12556398.339 8  -9772304.87546  22727202.265    22727208.3214
  23257797.138   -12568388.544 8  -9746657.34046  23257796.642    23257802.5434
  24333346.209    -7547810.764 7  -5863322.02645  24333345.996    24333357.8104
  23925708.752    -3827858.911 8  -2971369.72745  23925708.476    23925714.5314
  22332158.368   -16470231.136 8 -12313701.36346  22332157.699    22332164.1804
  22504925.599   -14676345.666 8 -11133084.70046  22504925.284    22504931.9044
  20441022.169   -20887469.383 9 -16253617.98948  20441022.105    20441026.1654
 01  4 23  2 12  0.0000000  0 10 17 21 14 31 23 25 09 15 03 29
  23891061.271   -10265062.137 7  -7717590.11745  23891060.703    23891070.0314
  21054564.528   -25041495.611 9 -18960671.85247  21054564.059    21054568.9094
  20290308.979   -24437892.752 9 -18996752.50748  20290308.562    20290311.7894
  22729066.308   -12546605.613 8  -9764674.18846  22729065.775    22729071.8364
  23268243.658   -12513492.314 8  -9703881.09946  23268243.120    23268249.0034
  24314521.160    -7646734.623 7  -5940405.12045  24314520.917    24314532.9024
  23936474.350    -3771285.227 8  -2927286.31445  23936474.144    23936480.1914
  22348560.745   -16384036.111 8 -12246536.46746  22348560.114    22348566.5784
  22517096.499   -14612387.457 8 -11083247.17246  22517096.169    22517102.8124
  20436014.131   -20913786.765 9 -16274125.01148  20436014.042    20436018.0824
 01  4 23  2 12 30.0000000  0 10 17 21 14 31 23 25 09 15 03 29
  23910414.921   -10163357.673 7  -7638339.99745  23910414.485    23910423.8624
  21054673.156   -25040924.516 9 -18960226.83247  21054672.694    21054677.5694
  20286820.400   -24456225.461 9 -19011037.70548  20286819.977    20286823.1864
  22731032.897   -12536270.975 8  -9756621.22746  22731032.384    22731038.4114
  23278700.036   -12458543.716 8  -9661064.05746  23278699.482    23278705.4354
  24295690.390    -7745688.476 7  -6017511.58245  24295690.245    24295701.9814
  23947336.650    -3714203.333 8  -2882806.89345  23947336.404    23947342.4564
  22365022.267   -16297530.190 8 -12179129.31646  22365021.638    22365028.1434
  22529332.763   -14548085.429 8 -11033141.73946  22529332.467    22529339.0844
  20431091.607   -20939654.545 9 -16294281.69048  20431091.530    20431095.5624
 01  4 23  2 13  0.0000000  0 10 17 21 14 31 23 25 09 15 03 29
  23929811.280   -10061429.433 7  -7558915.51445  23929810.817    23929820.3644
  21054808.437   -25040213.465 9 -18959672.75647  21054807.970    21054812.8844
  20283427.298   -24474056.207 9 -19024931.76648  20283426.876    20283430.0844
  22733102.986   -12525392.614 8  -9748144.58546  22733102.471    22733108.5154
  23289166.904   -12403539.683 8  -9618203.82146  23289166.456    23289172.4464
  24276855.243    -7844667.050 7  -6094637.34245  24276854.854    24276866.5754
  23958295.827    -3656612.100 8  -2837930.58145  23958295.527    23958301.6444
  22381543.242   -16210711.894 8 -12111478.76046  22381542.650    22381549.2234
  22541634.447   -14483439.969 8 -10982768.69946  22541634.141    22541640.7534
  20426255.147   -20965070.148 9 -16314086.02048  20426255.078    20426259.0954
 01  4 23  2 13 30.0000000  0 10 17 21 14 31 23 25 09 15 03 29
  23949249.762    -9959279.819 7  -7479318.54945  23949249.290    23949258.8484
  21054970.323   -25039362.745 9 -18959009.83247  21054969.858    21054974.7484
  20280129.408   -24491386.593 9 -19038435.93848  20280128.989    20280132.1704
  22735276.202   -12513972.401 8  -9739245.71746  22735275.666    22735281.7424
  23299644.346   -12348480.731 8  -9575300.79846  23299643.882    23299649.8884
  24258015.555    -7943668.663 7  -6171781.07045  24258015.265    24258026.6754
  23969351.544    -3598513.998 8  -2792659.28945  23969351.313    23969357.3524
  22398123.296   -16123583.329 8 -12043586.43246  22398122.693    22398129.2834
  22554000.880   -14418454.091 8 -10932130.39746  22554000.550    22554007.2194
  20421504.495   -20990034.942 9 -16333539.07948  20421504.427    20421508.4304
 01  4 23  2 14  0.0000000  0 10 17 21 14 31 23 25 09 15 03 29
  23968730.055    -9856910.786 7  -7399550.59645  23968729.693    23968739.1894
  21055158.826   -25038372.177 9 -18958237.94947  21055158.367    21055163.2374
  20276926.552   -24508217.628 9 -19051551.01348  20276926.126    20276929.3164
  22737552.208   -12502012.018 8  -9729925.93246  22737551.681    22737557.7304
  23310132.140   -12293367.111 8  -9532355.15546  23310131.682    23310137.7114
  24239171.900    -8042691.285 8  -6248941.14445  24239171.662    24239182.8584
  23980503.264    -3539911.332 8  -2746994.83645  23980503.033    23980509.0664
  22414762.093   -16036146.261 8 -11975453.70946  22414761.493    22414768.0624
  22566431.354   -14353131.356 8 -10881229.60146  22566431.044    22566437.7634
  20416839.482   -21014549.639 9 -16352641.40748  20416839.406    20416843.4014
 01  4 23  2 14 30.0000000  0 10 17 21 14 31 23 25 09 15 03 29
  23988251.694    -9754323.844 7  -7319612.83745  23988251.330    23988260.9144
  21055373.987   -25037241.586 9 -18957356.96047  21055373.498    21055378.3634
  20273818.704   -24524549.351 9 -19064277.00648  20273818.298    20273821.4794
  22739930.847   -12489512.381 8  -9720185.96646  22739930.354    22739936.3324
  23320630.474   -12238198.242 8  -9489366.47346  23320629.944    23320636.0804
  24220324.693    -8141732.715 7  -6326115.89245  24220324.429    24220335.5524
  23991750.675    -3480805.706 8  -2700938.46745  23991750.357    23991756.4824
  22431459.446   -15948401.670 8 -11907081.36246  22431458.804    22431465.3624
  22578925.477   -14287474.488 8 -10830068.45546  22578925.165    22578931.9134
  20412260.051   -21038614.464 9 -16371393.18548  20412259.976    20412263.9914
 01  4 23  2 15  0.0000000  0 10 17 21 14 31 23 25 09 15 03 29
  24007814.580    -9651520.428 7  -7239506.42245  24007814.386    24007823.9564
  21055615.814   -25035970.541 9 -18956366.52747  21055615.351    21055620.2044
  20270805.739   -24540382.440 9 -19076614.45148  20270805.333    20270808.5004
  22742411.928   -12476474.464 8  -9710026.54846  22742411.406    22742417.3694
  23331139.416   -12182973.867 8  -9446334.53746  23331138.898    23331144.9474
  24201474.479    -8240789.798 8  -6403302.83645  24201474.218    24201485.1934
  24003093.542    -3421198.694 7  -2654491.40245  24003093.235    24003099.2674
  22448214.983   -15860350.851 8 -11838470.39046  22448214.345    22448220.8964
  22591482.752   -14221485.812 8 -10778648.75046  22591482.452    22591489.1544
  20407766.190   -21062229.615 9 -16389794.57048  20407766.118    20407770.1204
 01  4 23  2 15 30.0000000  0 10 17 21 14 31 23 25 09 15 03 29
  24027418.404    -9548501.965 7  -7159232.42045  24027418.264    24027427.8804
  21055884.589   -25034558.277 9 -18955266.05247  21055884.105    21055888.9524
  20267887.609   -24555717.256 9 -19088563.63648  20267887.194    20267890.3814
  22744995.195   -12462899.297 8  -9699448.49546  22744994.668    22745000.6444
  23341658.935   -12127693.612 8  -9403259.06246  23341658.456    23341664.4574
  24182621.970    -8339859.328 8  -6480499.48645  24182621.660    24182632.6024
  24014531.247    -3361091.845 8  -2607654.83045  24014531.086    24014537.2284
  22465028.582   -15771995.078 8 -11769621.78946  22465027.945    22465034.5244
  22604102.636   -14155168.269 8 -10726972.79246  22604102.306    22604108.9354
  20403357.860   -21085395.354 9 -16407845.76348  20403357.799    20403361.7894
 01  4 23  2 16  0.0000000  0 10 17 21 14 31 23 25 09 15 03 29
  24047062.985    -9445270.124 7  -7078792.15845  24047062.705    24047072.2914
  21056180.340   -25033004.058 9 -18954054.96047  21056179.850    21056184.6984
  20265064.201   -24570554.212 9 -19100124.87648  20265063.788    20265066.9724
  22747680.426   -12448788.005 8  -9688452.68346  22747679.909    22747685.9294
  23352189.127   -12072357.060 8  -9360139.71946  23352188.646    23352194.7164
  24163767.271    -8438939.780 8  -6557704.63945  24163766.963    24163777.8344
  24026063.959    -3300487.322 7  -2560430.46845  24026063.652    24026069.8294
  22481899.873   -15683335.836 8 -11700536.73246  22481899.225    22481905.8894
  22616784.497   -14088524.767 8 -10675042.82846  22616784.176    22616790.8164
  20399035.017   -21108111.937 9 -16425546.97448  20399034.942    20399038.9234
 01  4 23  2 16 30.0000000  0 10 17 21 14 31 23 25 09 15 03 29
  24066747.609    -9341826.453 7  -6998186.81945  24066747.418    24066757.0184
  21056502.994   -25031308.308 9 -18952733.58647  21056502.527    21056507.3784
  20262335.428   -24584893.986 9 -19111298.70148  20262335.017    20262338.1944
  22750467.437   -12434142.017 8  -9677040.22246  22750466.969    22750472.9994
  23362730.099   -12016963.836 8  -9316976.21946  23362729.599    23362735.7354
  24144911.084    -8538027.749 7  -6634915.63945  24144910.887    24144921.6394
  24037690.813    -3239387.064 7  -2512819.84245  24037690.543    24037696.8394
  22498828.711   -15594374.323 8 -11631216.13346  22498828.075    22498834.8124
  22629527.892   -14021557.839 8 -10622860.85146  22629527.594    22629534.2504
  20394797.576   -21130379.850 9 -16442898.56948  20394797.496    20394801.4674
 01  4 23  2 17  0.0000000  0 10 17 21 14 31 23 25 09 15 03 29
  24086472.302    -9238173.100 7  -6917418.11345  24086471.834    24086481.6934
  21056852.563   -25029471.253 9 -18951302.10847  21056852.115    21056856.9214
  20259701.066   -24598737.495 9 -19122085.82548  20259700.661    20259703.8214
  22753355.931   -12418962.985 8  -9665212.40046  22753355.430    22753361.4704
  23373281.842   -11961514.263 8  -9273768.79946  23373281.363    23373287.5324
  24126053.843    -8637121.320 7  -6712131.01645  24126053.661    24126064.4074
  24049411.722    -3177793.200 7  -2464824.55645  24049411.539    24049417.6574
  22515814.793   -15505112.400 8 -11561661.45846  22515814.116    22515820.9074
  22642332.201   -13954270.964 8 -10570429.56846  22642331.880    22642338.5464
  20390645.261   -21152200.194 9 -16459901.40248  20390645.180    20390649.1574
 01  4 23  2 17 30.0000000  0 10 17 21 14 31 23 25 09 15 03 29
  24106236.701    -9134311.483 7  -6836487.10545  24106236.039    24106246.0944
  21057229.221   -25027491.917 9 -18949759.74947  21057228.754    21057233.5614
  20257161.064   -24612085.278 9 -19132486.67248  20257160.640    20257163.8004
  22756345.675   -12403251.807 8  -9652969.93546  22756345.190    22756351.2334
  23383844.418   -11906007.788 8  -9230517.02446  23383843.942    23383850.0434
  24107196.049    -8736217.848 7  -6789348.68145  24107195.936    24107206.5674
  24061226.217    -3115707.271 7  -2416445.87345  24061226.030    24061232.0194
  22532857.760   -15415551.254 8 -11491873.60246  22532857.077    22532863.8664
  22655196.914   -13886666.615 8 -10517750.88746  22655196.574    22655203.2624
  20386578.176   -21173572.670 9 -16476555.24748  20386578.106    20386582.0774
 01  4 23  2 18  0.0000000  0 10 17 21 14 31 23 25 09 15 03 29
  24126040.504    -9030242.497 7  -6755394.51345  24126039.840    24126049.8894
  21057633.065   -25025369.536 9 -18948105.93347  21057632.614    21057637.4044
  20254715.434   -24624937.082 9 -19142501.03648  20254715.013    20254718.1644
  22759436.632   -12387008.911 8  -9640313.13846  22759436.100    22759442.1104
  23394418.060   -11850443.361 8  -9187220.10246  23394417.562    23394423.6434
  24088338.387    -8835313.761 7  -6866565.91245  24088338.321    24088348.8204
  24073134.062    -3053130.626 7  -2367684.79545  24073133.747    24073139.8264
  22549957.499   -15325691.578 8 -11421853.13946  22549956.859    22549963.6774
  22668121.684   -13818747.048 8 -10464826.59346  22668121.296    22668127.9644
  20382596.299   -21194497.538 9 -16492860.30548  20382596.232    20382600.1954
 01  4 23  2 18 30.0000000  0 10 17 21 14 31 23 25 09 15 03 29
  24145883.253    -8925968.370 7  -6674142.06745  24145882.543    24145892.5814
  21058064.204   -25023103.784 9 -18946340.40747  21058063.756    21058068.5454
  20252363.949   -24637294.173 9 -19152129.91648  20252363.530    20252366.6744
  22762628.285   -12370236.253 8  -9627243.54846  22762627.791    22762633.7894
  23405002.619   -11794821.401 8  -9143878.34446  23405002.064    23405008.1884
  24069481.274    -8934407.221 7  -6943781.21545  24069481.175    24069491.6594
  24085134.941    -2990065.803 7  -2318543.34045  24085134.529    24085140.6274
  22567113.657   -15235535.404 8 -11351601.63946  22567113.013    22567119.8804
  22681105.672   -13750515.734 8 -10411659.37946  22681105.307    22681111.9724
  20378699.399   -21214975.622 9 -16508817.23448  20378699.340    20378703.3014
 01  4 23  2 19  0.0000000  0 10 17 21 14 31 23 25 09 15 03 29
  24165764.688    -8821491.331 7  -6592731.52745  24165764.059    24165774.1304
  21058522.498   -25020695.402 9 -18944463.73747  21058522.059    21058526.8544
  20250106.328   -24649157.908 9 -19161374.35948  20250105.903    20250109.0214
  22765920.423   -12352935.732 8  -9613762.62246  22765919.932    22765925.9894
  23415598.015   -11739142.255 8  -9100492.02246  23415597.469    23415603.5684
  24050625.010    -9033496.415 7  -7020993.20045  24050624.840    24050635.1734
  24097227.860    -2926515.175 7  -2269023.29645  24097227.717    24097233.8484
  22584325.934   -15145084.701 8 -11281120.63346  22584325.277    22584332.1084
  22694148.328   -13681976.160 8 -10358251.96346  22694147.998    22694154.6684
  20374887.309   -21235008.164 9 -16524426.98048  20374887.249    20374891.2174
 01  4 23  2 19 30.0000000  0 10 17 21 14 31 23 25 09 15 03 29
  24185684.752    -8716811.223 7  -6511162.73645  24185684.079    24185694.3264
  21059008.378   -25018142.240 9 -18942474.25147  21059007.942    21059012.7004
  20247942.834   -24660527.063 9 -19170233.41848  20247942.431    20247945.5164
  22769313.117   -12335106.947 8  -9599870.07646  22769312.653    22769318.6314
  23426204.783   -11683403.764 8  -9057059.45346  23426204.247    23426210.2194
  24031770.354    -9132576.561 7  -7098198.13145  24031770.122    24031780.4284
  24109413.532    -2862478.746 7  -2219124.71545  24109413.490    24109419.3754
  22601594.290   -15054339.105 8 -11210409.83346  22601593.612    22601600.4924
  22707249.485   -13613129.287 8 -10304605.09546  22707249.149    22707255.8324
  20371160.290   -21254593.663 9 -16539688.36448  20371160.219    20371164.1754
 01  4 23  2 20  0.0000000  0 10 17 21 14 31 23 25 09 15 03 29
  24205642.635    -8611932.432 7  -6429439.12145  24205642.022    24205652.4304
  21059521.434   -25015446.150 9 -18940373.39447  21059520.977    21059525.7294
  20245872.762   -24671405.150 9 -19178709.82648  20245872.364    20245875.4434
  22772805.553   -12316754.061 8  -9585569.12246  22772805.095    22772811.0684
  23436822.267   -11627608.346 8  -9013582.53046  23436821.696    23436827.7944
  24012917.350    -9231647.818 7  -7175396.15345  24012917.215    24012927.4464
  24121690.785    -2797961.280 7  -2168851.31945  24121690.801    24121696.7414
  22618917.981   -14963302.655 8 -11139472.40246  22618917.319    22618924.2024
  22720408.045   -13543981.015 8 -10250723.36646  22720407.709    22720414.3904
  20367517.710   -21273735.463 9 -16554604.01548  20367517.651    20367521.5984
 01  4 23  2 20 30.0000000  0 10 17 21 14 31 23 25 09 15 03 29
  24225638.386    -8506854.663 7  -6347560.47545  24225637.730    24225648.2114
  21060061.983   -25012605.287 9 -18938159.72647  21060061.533    21060066.3094
  20243896.460   -24681790.758 9 -19186802.49348  20243896.062    20243899.1204
  22776397.850   -12297876.436 8  -9570859.30946  22776397.418    22776403.4124
  23447451.059   -11571753.542 8  -8970059.33046  23447450.528    23447456.7234
  23994066.847    -9330705.833 7  -7252583.85545  23994066.744    23994076.9514
  24134059.559    -2732962.804 7  -2118203.08745  24134059.489    24134065.4744
  22636297.099   -14871974.928 8 -11068308.00046  22636296.458    22636303.3204
  22733623.824   -13474531.855 8 -10196607.19346  22733623.460    22733630.1694
  20363959.844   -21292431.979 9 -16569172.70548  20363959.774    20363963.7234
 01  4 23  2 21  0.0000000  0 10 17 21 14 31 23 25 09 15 03 29
  24245671.775    -8401579.352 7  -6265527.91145  24245671.041    24245681.5604
  21060630.263   -25009618.990 9 -18935832.73147  21060629.819    21060634.5794
  20242013.691   -24691684.573 9 -19194511.93748  20242013.296    20242016.3694
  22780089.837   -12278474.927 8  -9555741.25446  22780089.363    22780095.4084
  23458091.224   -11515838.811 8  -8926489.43846  23458090.742    23458097.0244
  23975219.498    -9429747.662 7  -7329758.94645  23975219.501    23975229.4704
  24146519.450    -2667485.056 7  -2067181.40045  24146519.423    24146525.2934
  22653731.404   -14780357.114 8 -10996917.54746  22653730.749    22653737.6934
  22746896.335   -13404784.394 8 -10142258.56246  22746896.002    22746902.7444
  20360486.624   -21310683.844 9 -16583394.91448  20360486.568    20360490.4904
 01  4 23  2 21 30.0000000  0 10 17 21 14 31 23 25 09 15 03 29
  24265742.158    -8296109.373 7  -6183343.64545  24265741.417    24265751.9244
  21061226.158   -25006487.707 9 -18933392.75847  21061225.687    21061230.4504
  20240224.161   -24701088.552 9 -19201839.69548  20240223.765    20240226.8364
  22783881.030   -12258552.106 8  -9540216.98146  22783880.538    22783886.6874
  23468742.661   -11459865.030 8  -8882873.53246  23468742.168    23468748.5454
  23956375.687    -9528771.232 7  -7406919.81545  23956375.687    23956385.5564
  24159069.958    -2601531.249 7  -2015788.77545  24159069.904    24159075.8204
  22671220.449   -14688451.905 8 -10925303.15746  22671219.771    22671226.7724
  22760224.816   -13334742.778 8 -10087680.74546  22760224.514    22760231.2564
  20357097.748   -21328492.337 9 -16597271.63248  20357097.685    20357101.6024
 01  4 23  2 22  0.0000000  0 10 17 21 14 31 23 25 09 15 03 29
  24285849.388    -8190446.143 7  -6101008.78245  24285848.617    24285859.1634
  21061849.653   -25003211.125 9 -18930839.56247  21061849.185    21061853.9524
  20238527.765   -24710003.005 9 -19208785.99948  20238527.379    20238530.4354
  22787771.214   -12238109.203 8  -9524287.46846  22787770.735    22787776.8854
  23479405.457   -11403831.723 8  -8839211.24845  23479404.947    23479411.3004
  23937535.828    -9627774.170 8  -7484064.59745  23937535.819    23937545.5204
  24171711.023    -2535103.229 7  -1964026.61345  24171710.673    24171716.5934
  22688763.965   -14596260.368 8 -10853465.66246  22688763.266    22688770.2924
  22773608.812   -13264409.789 8 -10032875.85346  22773608.529    22773615.2574
  20353793.129   -21345858.093 9 -16610803.36348  20353793.072    20353797.0014
 01  4 23  2 22 30.0000000  0 10 17 21 14 31 23 25 09 15 03 29
  24305992.639    -8084592.301 7  -6018525.40345  24305992.032    24306002.6714
  21062500.881   -24999788.825 9 -18928172.82347  21062500.424    21062505.1884
  20236924.250   -24718429.538 9 -19215352.10548  20236923.849    20236926.8854
  22791759.871   -12217148.671 8  -9507954.59846  22791759.414    22791765.5224
  23490079.538   -11347739.421 8  -8795502.99045  23490079.016    23490085.3684
  23918700.108    -9726755.215 8  -7561192.35245  23918700.099    23918709.6694
  24184441.499    -2468203.663 7  -1911897.01545  24184441.250    24184447.2534
  22706361.427   -14503785.126 8 -10781407.08546  22706360.813    22706367.8134
  22787047.503   -13193789.173 8  -9977846.86046  22787047.205    22787054.0074
  20350572.502   -21362782.501 9 -16623991.18348  20350572.452    20350576.3734
 01  4 23  2 23  0.0000000  0 10 17 21 14 31 23 25 09 15 03 29
  24326172.308    -7978547.902 7  -5935893.54145  24326171.692    24326182.4044
  21063179.997   -24996219.924 9 -18925391.84847  21063179.564    21063184.2984
  20235413.725   -24726367.350 9 -19221537.38748  20235413.315    20235416.3604
  22795847.058   -12195670.455 8  -9491218.34146  22795846.594    22795852.7194
  23500765.219   -11291586.229 8  -8751747.26945  23500764.639    23500771.0154
  23899869.493    -9825709.469 8  -7638299.22545  23899869.465    23899879.0034
  24197261.601    -2400833.286 7  -1859400.55045  24197261.464    24197267.4504
  22724012.981   -14411025.947 8 -10709127.27046  22724012.363    22724019.3284
  22800540.627   -13122882.349 8  -9922594.84546  22800540.334    22800547.2424
  20347436.042   -21379264.535 9 -16636834.28748  20347435.993    20347439.9074
 01  4 23  2 23 30.0000000  0 10 17 21 14 31 23 25 09 15 03 29
  24346387.904    -7872314.783 7  -5853114.61845  24346387.297    24346398.0014
  21063887.259   -24992503.337 9 -18922495.80147  21063886.805    21063891.5514
  20233995.987   -24733817.535 9 -19227342.70148  20233995.586    20233998.6124
  22800032.420   -12173676.214 8  -9474079.98346  22800031.946    22800038.1404
  23511462.432   -11235371.786 8  -8707943.83845  23511461.883    23511468.2664
  23881044.366    -9924634.614 8  -7715383.42745  23881044.417    23881053.7444
  24210170.921    -2332994.274 7  -1806538.90345  24210170.878    24210176.6994
  22741718.275   -14317984.479 8 -10636627.47946  22741717.646    22741724.5294
  22814087.563   -13051692.373 8  -9867122.19746  22814087.306    22814094.2954
  20344383.635   -21395304.875 9 -16649333.22348  20344383.576    20344387.5024
 01  4 23  2 24  0.0000000  0 11 17 21 14 31 23 25 09 15 11 03 29
  24366638.265    -7765898.636 7  -5770193.06845  24366637.737    24366648.1904
  21064621.803   -24988643.182 9 -18919487.86747  21064621.346    21064626.1054
  20232670.106   -24740784.935 9 -19232771.81748  20232669.694    20232672.7454
  22804314.943   -12151171.401 8  -9456543.78946  22804314.482    22804320.6334
  23522170.651   -11179099.803 8  -8664095.54645  23522170.150    23522176.4844
  23862224.640   -10023531.781 8  -7792445.83845  23862224.696    23862233.7664
  24223168.156    -2264692.684 7  -1753316.78645  24223168.149    24223173.9614
  22759476.259   -14224665.799 8 -10563911.67746  22759475.613    22759482.4864
  24713481.747    -4833680.101 8  -3746849.56245  24713481.503    24713488.5484
  22827687.131   -12980225.997 8  -9811434.16046  22827686.881    22827693.9294
  20341414.375   -21410908.398 9 -16661491.78448  20341414.312    20341418.2074
 01  4 23  2 24 30.0000000  0 10 21 14 31 23 25 09 15 11 03 29
  21065384.126   -24984637.112 9 -18916366.23747  21065383.658    21065388.4134
  20231436.221   -24747268.958 9 -19237824.28248  20231435.828    20231438.8634
  22808694.556   -12128156.413 8  -9438610.05846  22808694.119    22808700.2464
  23532890.157   -11122768.510 8  -8620201.05945  23532889.669    23532896.0144
  23843410.918   -10122397.690 8  -7869483.91345  23843410.940    23843419.8594
  24236253.483    -2195929.322 7  -1699734.88145  24236253.351    24236259.1364
  22777286.875   -14131070.386 8 -10490980.25246  22777286.223    22777293.1024
  24694078.730    -4935643.672 8  -3826301.64645  24694078.316    24694085.3744
  22841339.036   -12908485.082 8  -9755532.19446  22841338.740    22841345.8204
  20338528.387   -21426074.258 9 -16673309.31648  20338528.330    20338532.2114
 01  4 23  2 25  0.0000000  0 10 21 14 31 23 25 09 15 11 03 29
  21066175.181   -24980479.929 9 -18913126.86047  21066174.731    21066179.4634
  20230295.141   -24753265.251 9 -19242496.69948  20230294.728    20230297.7554
  22813171.985   -12104627.424 8  -9420275.80646  22813171.500    22813177.6444
  23543621.930   -11066372.470 8  -8576256.12545  23543621.470    23543627.8474
  23824604.804   -10221223.836 8  -7946490.99645  23824604.750    23824613.4974
  24249427.080    -2126700.978 7  -1645790.60445  24249426.932    24249432.6714
  22795150.965   -14037194.452 8 -10417830.23746  22795150.305    22795157.1484
  24674687.949    -5037542.562 8  -3905703.36845  24674687.509    24674694.3954
  22855043.676   -12836467.047 8  -9699414.29246  22855043.403    22855050.4834
  20335726.555   -21440797.909 9 -16684782.26148  20335726.499    20335730.3724
 01  4 23  2 25 30.0000000  0 10 21 14 31 23 25 09 15 11 03 29
  21066994.767   -24976172.965 9 -18909770.77347  21066994.303    21066999.0434
  20229246.296   -24758776.758 9 -19246791.36548  20229245.885    20229248.9174
  22817746.592   -12080587.935 8  -9401543.76646  22817746.093    22817752.2274
  23554365.781   -11009913.354 8  -8532262.04345  23554365.252    23554371.5954
  23805806.230   -10320009.809 8  -8023466.78245  23805806.024    23805814.8804
  24262688.540    -2057011.755 7  -1591487.23145  24262688.331    24262694.1784
  22813067.649   -13943041.786 8 -10344464.57846  22813066.983    22813073.9564
  24655309.544    -5139376.700 8  -3985054.63144  24655309.134    24655315.8254
  22868800.117   -12764176.929 8  -9643084.39246  22868799.839    22868806.8644
  20333008.352   -21455081.980 9 -16695912.67948  20333008.291    20333012.1784
 01  4 23  2 26  0.0000000  0 10 21 14 31 23 25 09 15 11 03 29
  21067842.851   -24971716.060 9 -18906297.84247  21067842.396    21067847.1614
  20228289.505   -24763804.646 9 -19250709.18148  20228289.107    20228292.1364
  22822417.940   -12056040.106 8  -9382415.62346  22822417.390    22822423.5434
  23565121.666   -10953391.139 8  -8488218.77945  23565121.087    23565127.4664
  23787015.641   -10418752.991 8  -8100409.22845  23787015.523    23787024.3904
  24276037.071    -1986864.232 7  -1536826.75945  24276036.850    24276042.6264
  22831036.689   -13848614.173 8 -10270884.68846  22831036.033    22831043.0024
  24635943.699    -5241144.507 7  -4064354.16945  24635943.361    24635949.7954
  22882607.628   -12691617.968 8  -9586544.99146  22882607.370    22882614.3744
  20330373.620   -21468927.515 9 -16706701.38348  20330373.565    20330377.4244
 01  4 23  2 26 30.0000000  0 10 21 14 31 23 25 09 15 11 03 29
  21068719.589   -24967108.457 9 -18902707.48947  21068719.169    21068723.9444
  20227424.581   -24768349.705 9 -19254250.76848  20227424.186    20227427.2174
  22827185.660   -12030985.451 8  -9362892.54346  22827185.119    22827191.2894
  23575889.559   -10896805.284 8  -8444125.93645  23575889.002    23575895.4164
  23768233.737   -10517450.636 8  -8177316.18145  23768233.665    23768242.5194
  24289472.243    -1916260.511 7  -1481810.79045  24289472.168    24289478.1194
  22849057.760   -13753912.966 8 -10197091.58746  22849057.137    22849064.1154
  24616590.875    -5342843.661 7  -4143600.20945  24616590.560    24616596.8824
  22896465.760   -12618793.154 8  -9529798.43846  22896465.457    22896472.5114
  20327822.228   -21482335.179 9 -16717148.88348  20327822.162    20327826.0014
 01  4 23  2 27  0.0000000  0 10 21 14 31 23 25 09 15 11 03 29
  21069624.969   -24962350.770 9 -18899000.18047  21069624.522    21069629.3044
  20226651.191   -24772413.753 9 -19257417.53848  20226650.791    20226653.8364
  22832049.387   -12005426.468 8  -9342976.49146  22832048.901    22832054.9994
  23586669.498   -10840156.408 8  -8399983.97345  23586668.949    23586675.2504
  23749460.925   -10616101.084 8  -8254186.37945  23749460.880    23749469.7694
  24302993.842    -1845203.738 7  -1426441.85245  24302993.698    24302999.7754
  22867130.527   -13658940.506 8 -10123087.14546  22867129.885    22867136.7744
  24597251.346    -5444473.105 7  -4222791.89145  24597250.827    24597257.4904
  22910373.812   -12545706.018 8  -9472847.46646  22910373.518    22910380.5584
  20325353.845   -21495306.411 9 -16727256.30548  20325353.771    20325357.6104
 01  4 23  2 27 30.0000000  0 10 21 14 31 23 25 09 15 11 03 29
  21070559.039   -24957442.244 9 -18895175.33747  21070558.606    21070563.3524
  20225969.294   -24775997.059 9 -19260209.69648  20225968.893    20225971.9304
  22837008.915   -11979364.079 8  -9322668.16846  22837008.409    22837014.5444
  23597461.611   -10783443.374 8  -8355792.02245  23597461.048    23597467.3634
  23730697.808   -10714701.097 8  -8331017.26945  23730697.670    23730706.5504
  24316601.345    -1773695.320 7  -1370720.93545  24316601.298    24316607.2894
  22885254.685   -13563697.838 8 -10048872.13846  22885254.019    22885260.9334
  24577925.667    -5546029.969 7  -4301926.99845  24577925.186    24577931.9214
  22924331.313   -12472359.044 8  -9415694.02446  22924331.046    22924338.0904
  20322968.481   -21507841.479 9 -16737023.86048  20322968.422    20322972.2534
 01  4 23  2 28  0.0000000  0 10 21 14 31 23 25 09 15 11 03 29
  21071521.732   -24952383.091 9 -18891233.12147  21071521.279    21071526.0464
  20225378.478   -24779101.831 9 -19262628.97548  20225378.072    20225381.0864
  22842063.714   -11952801.161 8  -9301969.83646  22842063.249    22842069.3384
  23608265.796   -10726666.909 8  -8311550.63345  23608265.268    23608271.5644
  23711944.556   -10813248.921 8  -8407807.50945  23711944.453    23711953.2304
  24330294.219    -1701738.538 7  -1314650.66845  24330294.218    24330300.1894
  22903429.675   -13468187.617 8  -9974448.64746  22903429.006    22903436.0324
  24558613.930    -5647513.349 7  -4381004.86045  24558613.435    24558620.3084
  22938337.459   -12398756.239 8  -9358341.25546  22938337.190    22938344.2524
  20320665.815   -21519942.008 9 -16746452.81748  20320665.746    20320669.5674
 01  4 23  2 28 30.0000000  0 10 21 14 31 23 25 09 15 11 03 29
  21072513.323   -24947172.048 9 -18887172.55247  21072512.883    21072517.6474
  20224878.713   -24781728.010 9 -19264675.33148  20224878.318    20224881.3024
  22847213.582   -11925738.525 8  -9280882.09946  22847213.064    22847219.2184
  23619082.391   -10669825.836 8  -8267258.91645  23619081.859    23619088.1544
  23693201.835   -10911741.000 8  -8484554.30645  23693201.858    23693210.5734
  24344072.290    -1629334.829 7  -1258232.14045  24344072.219    24344078.1484
  22921655.422   -13372410.560 8  -9899817.24646  22921654.749    22921661.8614
  24539316.624    -5748920.300 7  -4460023.16345  24539316.235    24539323.1514
  22952391.870   -12324899.762 8  -9300790.79846  22952391.609    22952398.7394
  20318445.783   -21531608.183 9 -16755543.31548  20318445.713    20318449.5404
 01  4 23  2 29  0.0000000  0 10 21 14 31 23 25 09 15 11 03 29
  21073533.945   -24941808.523 9 -18882993.16547  21073533.516    21073538.2734
  20224469.785   -24783876.892 9 -19266349.76048  20224469.411    20224472.3784
  22852458.144   -11898178.022 8  -9259406.42346  22852457.623    22852463.7974
  23629911.228   -10612920.163 8  -8222916.84545  23629910.713    23629916.9524
  23674470.172   -11010175.375 8  -8561256.14845  23674470.186    23674478.8964
  24357934.841    -1556486.633 7  -1201467.24445  24357934.782    24357940.5084
  22939931.711   -13276368.535 8  -9824979.36546  22939930.976    22939938.1334
  24520034.253    -5850248.885 7  -4538980.37445  24520033.904    24520040.8214
  22966494.015   -12250792.777 8  -9243045.14146  22966493.777    22966500.8674
  20316308.244   -21542840.931 9 -16764296.07848  20316308.173    20316312.0164
 01  4 23  2 29 30.0000000  0 10 21 14 31 23 25 09 15 11 03 29
  21074583.691   -24936292.209 9 -18878694.72447  21074583.250    21074587.9874
  20224151.501   -24785549.400 9 -19267652.98648  20224151.111    20224154.0864
  22857797.079   -11870121.510 8  -9237544.24846  22857796.597    22857802.8104
  23640752.414   -10555949.479 8  -8178524.13645  23640751.858    23640758.1024
  23655750.167   -11108548.978 8  -8637910.63645  23655750.125    23655758.7624
  24371881.469    -1483196.248 7  -1144357.78045  24371881.478    24371887.1284
  22958258.101   -13180063.035 8  -9749936.19246  22958257.389    22958264.5494
  24500767.450    -5951497.199 7  -4617875.09345  24500766.912    24500773.8364
  22980643.198   -12176438.281 8  -9185106.61746  22980642.952    22980650.0364
  20314252.998   -21553641.030 9 -16772711.71548  20314252.935    20314256.7734
 01  4 23  2 30  0.0000000  0 10 21 14 31 23 25 09 15 11 03 29
  21075662.351   -24930623.692 9 -18874277.68547  21075661.913    21075666.6524
  20223923.482   -24786747.552 9 -19268586.58648  20223923.099    20223926.0554
  22863229.955   -11841571.735 8  -9215297.70446  22863229.495    22863235.7004
  23651605.990   -10498914.163 8  -8134081.06545  23651605.384    23651611.6674
  23637042.032   -11206860.104 8  -8714516.46245  23637041.977    23637050.4324
  24385911.735    -1409466.428 7  -1086905.92345  24385911.695    24385917.4524
  22976634.186   -13083496.314 8  -9674689.46446  22976633.477    22976640.6264
  24481516.156    -6052663.768 7  -4696706.08445  24481515.520    24481522.5634
  22994838.782   -12101840.007 8  -9126978.14746  22994838.504    22994845.5934
  20312279.836   -21564010.014 9 -16780791.42148  20312279.781    20312283.5924
 01  4 23  2 30 30.0000000  0 10 21 14 31 23 25 09 15 11 03 29
  21076770.289   -24924801.299 9 -18869740.74447  21076769.876    21076774.6004
  20223785.697   -24787471.578 9 -19269150.73748  20223785.295    20223788.2494
  22868756.476   -11812529.693 8  -9192667.57846  22868756.040    22868762.2404
  23662471.998   -10441813.171 8  -8089586.79445  23662471.442    23662477.6394
  23618346.434   -11305105.207 8  -8791070.84645  23618346.360    23618354.5854
  24400025.271    -1335298.843 7  -1029112.94445  24400025.254    24400031.0354
  22995059.877   -12986669.281 8  -9599239.90546  22995059.152    22995066.2814
  24462280.938    -6153745.532 7  -4775470.99345  24462280.365    24462287.2904
  23009080.341   -12027000.236 8  -9068661.49746  23009080.065    23009087.1694
  20310388.723   -21573947.885 9 -16788535.18848  20310388.671    20310392.4854
 01  4 23  2 31  0.0000000  0 10 21 14 31 23 25 09 15 11 03 29
  21077907.650   -24918824.527 9 -18865083.50147  21077907.198    21077911.8904
  20223737.954   -24787722.172 9 -19269345.98048  20223737.578    20223740.5404
  22874376.537   -11782996.735 8  -9169654.91846  22874376.109    22874382.1944
  23673350.646   -10384645.619 8  -8045040.65345  23673350.101    23673356.3294
  23599663.951   -11403280.977 8  -8867571.20045  23599663.933    23599671.9974
  24414221.718    -1260695.613 7   -970980.50345  24414221.736    24414227.5534
  23013534.722   -12889583.457 8  -9523588.67946  23013534.002    23013541.1984
  24443062.252    -6254740.231 7  -4854168.07145  24443061.700    24443068.4774
  23023367.349   -11951921.627 8  -9010158.74646  23023367.104    23023374.2474
  20308579.490   -21583455.305 9 -16795943.53248  20308579.433    20308583.2534
 01  4 23  2 31 30.0000000  0 10 21 14 31 23 25 09 15 11 03 29
  21079074.345   -24912693.453 9 -18860306.03247  21079073.881    21079078.5814
  20223780.016   -24787500.995 9 -19269173.61348  20223779.639    20223782.6134
  22880089.450   -11752975.453 8  -9146261.73946  22880089.014    22880095.1134
  23684241.901   -10327411.982 8  -8000443.03745  23684241.371    23684247.5074
  23580995.085   -11501385.609 8  -8944016.11545  23580995.078    23581003.0584
  24428500.399    -1185659.572 7   -912510.80145  24428500.311    24428506.3314
  23032058.364   -12792241.242 8  -9447737.66646  23032057.658    23032064.8474
  24423860.304    -6355646.381 7  -4932796.14645  24423859.744    24423866.5444
  23037699.143   -11876607.752 8  -8951472.65846  23037698.863    23037706.1254
  20306851.862   -21592533.808 9 -16803017.66648  20306851.799    20306855.6224
 01  4 23  2 32  0.0000000  0 10 21 14 31 23 25 09 15 11 03 29
  21080270.687   -24906406.610 9 -18855407.17447  21080270.233    21080274.9214
  20223911.846   -24786808.286 9 -19268633.81548  20223911.458    20223914.4294
  22885895.054   -11722467.013 8  -9122488.94446  22885894.575    22885900.6844
  23695145.846   -10270110.961 8  -7955792.90645  23695145.283    23695151.4764
  23562340.431   -11599415.649 8  -9020402.90845  23562340.372    23562348.2534
  24442861.284    -1110192.194 7   -853705.00145  24442861.249    24442867.1144
  23050630.750   -12694643.193 8  -9371687.29746  23050630.041    23050637.1794
  24404675.812    -6456460.742 8  -5011352.66245  24404675.355    24404682.1034
  23052075.310   -11801060.761 8  -8892604.91946  23052075.021    23052082.2864
  20305205.941   -21601183.158 9 -16809757.39048  20305205.889    20305209.6774
 01  4 23  2 32 30.0000000  0 10 21 14 31 23 25 09 15 11 03 29
  21081496.484   -24899965.069 9 -18850387.78047  21081496.034    21081500.7034
  20224132.951   -24785646.143 9 -19267728.23348  20224132.554    20224135.5414
  22891792.821   -11691474.081 8  -9098338.63646  22891792.332    22891798.4774
  23706062.471   -10212743.232 8  -7911090.80445  23706062.005    23706068.2844
  23543700.341   -11697369.128 8  -9096730.04945  23543700.216    23543708.1224
  24457303.762    -1034296.995 7   -794565.79945  24457303.760    24457309.5534
  23069251.156   -12596791.998 8  -9295439.69046  23069250.491    23069257.7094
  24385508.997    -6557182.537 8  -5089837.06145  24385508.514    24385515.3134
  23066495.127   -11725284.797 8  -8833558.77046  23066494.828    23066501.9784
  20303641.255   -21609405.591 9 -16816164.45748  20303641.202    20303644.9814
 01  4 23  2 33  0.0000000  0  9 21 14 31 23 25 15 11 03 29
  21082752.024   -24893367.104 9 -18845246.48847  21082751.565    21082756.2624
  20224443.309   -24784015.115 9 -19266457.27648  20224442.920    20224445.9114
  22897782.548   -11659997.978 8  -9073811.82946  22897782.065    22897788.2714
  23716992.068   -10155307.783 8  -7866335.92945  23716991.588    23716997.9694
  23525075.267   -11795243.114 8  -9172995.25145  23525075.120    23525083.0394
  23087919.673   -12498688.615 8  -9218995.54946  23087918.966    23087926.1934
  24366360.406    -6657808.650 8  -5168246.91545  24366360.000    24366366.6544
  23080958.003   -11649282.307 8  -8774336.09946  23080957.705    23080964.8144
  20302157.778   -21617201.184 9 -16822238.91548  20302157.739    20302161.4954
 01  4 23  2 33 30.0000000  0  9 21 14 31 23 25 15 11 03 29
  21084037.028   -24886614.006 9 -18839984.31947  21084036.595    21084041.2874
  20224842.282   -24781918.275 9 -19264823.35148  20224841.893    20224844.9034
  22903863.434   -11628042.608 8  -9048911.55746  22903862.976    22903869.1964
  23727934.272   -10097806.166 8  -7821529.50145  23727933.783    23727940.1314
  23506465.521   -11893036.808 8  -9249197.89545  23506465.373    23506473.2944
  23106635.472   -12400336.918 8  -9142357.94146  23106634.749    23106641.9684
  24347229.958    -6758339.114 8  -5246582.23445  24347229.633    24347236.2514
  23095462.998   -11573058.126 8  -8714940.68146  23095462.744    23095469.8484
  20300754.992   -21624572.794 9 -16827982.99548  20300754.940    20300758.6794
 01  4 23  2 34  0.0000000  0  9 21 14 31 23 25 15 11 03 29
  21085352.284   -24879702.477 9 -18834598.69847  21085351.845    21085356.5234
  20225330.348   -24779353.387 9 -19262824.71448  20225329.955    20225332.9534
  22910035.886   -11595606.454 8  -9023636.65546  22910035.432    22910041.6214
  23738889.746   -10040234.602 8  -7776668.57245  23738889.169    23738895.6894
  23487872.104   -11990744.259 8  -9325333.34345  23487872.064    23487879.8934
  23125398.774   -12301735.238 8  -9065525.52846  23125398.099    23125405.3064
  24328118.753    -6858768.401 8  -5324838.70345  24328118.455    24328125.1074
  23110010.283   -11496612.042 8  -8655372.35646  23110010.053    23110017.1314
  20299433.359   -21631518.047 9 -16833394.85448  20299433.295    20299437.0384
 01  4 23  2 34 30.0000000  0  9 21 14 31 23 25 15 11 03 29
  21086697.728   -24872632.058 9 -18829089.26947  21086697.283    21086701.9474
  20225907.085   -24776322.612 9 -19260463.05148  20225906.696    20225909.6784
  22916299.269   -11562692.219 8  -8997989.22546  22916298.816    22916304.9624
  23749858.403    -9982593.622 8  -7731753.56345  23749857.906    23749864.4604
  23469295.651   -12088363.305 8  -9401399.90645  23469295.585    23469303.4054
  23144209.207   -12202885.929 8  -8988500.16046  23144208.478    23144215.8124
  24309027.001    -6959095.197 8  -5403015.31345  24309026.771    24309033.4004
  23124599.131   -11419947.548 8  -8595633.84946  23124598.863    23124605.9304
  20298192.522   -21638038.547 9 -16838475.74048  20298192.454    20298196.1994
 01  4 23  2 35  0.0000000  0  9 21 14 31 23 25 15 11 03 29
  21088073.390   -24865402.938 9 -18823456.17447  21088072.931    21088077.5894
  20226572.100   -24772827.707 9 -19257739.71648  20226571.716    20226574.7044
  22922653.091   -11529302.795 8  -8971971.51346  22922652.668    22922658.8114
  23760840.253    -9924883.681 7  -7686784.82145  23760839.753    23760846.3334
  23450736.330   -12185892.076 8  -9477396.12745  23450736.233    23450744.1104
  23163066.240   -12103791.682 8  -8911283.92246  23163065.523    23163072.8794
  24289955.160    -7059317.880 8  -5481110.78645  24289954.874    24289961.4984
  23139228.699   -11343068.552 8  -8535728.19346  23139228.506    23139235.5924
  20297032.154   -21644136.129 9 -16843227.08048  20297032.087    20297035.8174
 01  4 23  2 35 30.0000000  0  9 21 14 31 23 25 15 11 03 29
  21089479.277   -24858014.870 9 -18817699.22547  21089478.808    21089483.4804
  20227325.205   -24768870.128 9 -19254655.86648  20227324.814    20227327.8004
  22929096.916   -11495440.417 8  -8945585.26746  22929096.467    22929102.6484
  23771835.281    -9867104.432 7  -7641762.07445  23771834.841    23771841.4044
  23432194.648   -12283327.920 8  -9553319.95545  23432194.620    23432202.5134
  23181969.553   -12004454.095 8  -8833878.07745  23181968.857    23181976.2634
  24270903.595    -7159434.543 7  -5559123.66645  24270903.194    24270909.7694
  23153898.596   -11265978.374 8  -8475657.95846  23153898.319    23153905.4144
  20295952.081   -21649812.000 9 -16847649.80248  20295952.015    20295955.7434
 01  4 23  2 36  0.0000000  0  9 21 14 31 23 25 15 11 03 29
  21090915.373   -24850467.922 9 -18811818.46847  21090914.913    21090919.6054
  20228166.131   -24764450.940 9 -19251212.31348  20228165.742    20228168.7164
  22935630.398   -11461106.955 8  -8918831.94446  22935629.934    22935636.1674
  23782843.562    -9809255.453 7  -7596684.97845  23782843.110    23782849.8144
  23413671.148   -12380668.462 8  -9629169.51846  23413671.163    23413678.9884
  23200918.889   -11904874.821 8  -8756283.88745  23200918.188    23200925.6174
  24251872.529    -7259442.966 7  -5637052.17145  24251872.099    24251878.7524
  23168608.077   -11188679.964 8  -8415425.46946  23168607.786    23168614.8984
  20294952.068   -21655066.907 9 -16851744.49648  20294952.007    20294955.7264
 01  4 23  2 36 30.0000000  0  9 21 14 31 23 25 15 11 03 29
  21092382.018   -24842760.486 9 -18805812.66047  21092381.568    21092386.2474
  20229094.778   -24759570.673 9 -19247409.48548  20229094.379    20229097.3454
  22942253.295   -11426303.570 8  -8891712.45346  22942252.839    22942259.0764
  23793865.357    -9751335.474 7  -7551552.56045  23793864.910    23793871.6164
  23395166.732   -12477909.503 8  -9704941.56146  23395166.743    23395174.4164
  23219914.039   -11805054.579 8  -8678501.93345  23219913.348    23219920.7814
  24232862.587    -7359339.810 7  -5714893.71145  24232862.179    24232868.8874
  23183356.822   -11111175.203 8  -8355032.19646  23183356.506    23183363.6454
  20294032.168   -21659900.771 9 -16855511.12148  20294032.114    20294035.8234
 01  4 23  2 37  0.0000000  0  9 21 14 31 23 25 15 11 03 29
  21093879.319   -24834892.063 9 -18799681.40947  21093878.872    21093883.5224
  20230110.884   -24754231.106 9 -19243248.76448  20230110.466    20230113.4164
  22948965.055   -11391033.005 8  -8864228.92346  22948964.612    22948970.8944
  23804900.652    -9693344.851 8  -7506365.08245  23804900.200    23804906.9304
  23376681.493   -12575049.456 8  -9780634.83646  23376681.500    23376689.0774
  23238954.571   -11704996.093 8  -8600534.34645  23238953.897    23238961.2974
  24213874.162    -7459124.024 7  -5792647.52445  24213873.774    24213880.5264
  23198144.002   -11033468.064 8  -8294481.22546  23198143.689    23198150.8824
  20293192.035   -21664315.714 9 -16858951.31648  20293191.986    20293195.6974
 01  4 23  2 37 30.0000000  0  9 21 14 31 23 25 15 11 03 29
  21095407.294   -24826862.443 9 -18793424.54947  21095406.854    21095411.5004
  20231214.086   -24748433.736 9 -19238731.29848  20231213.652    20231216.5924
  22955765.284   -11355297.655 8  -8836383.20646  22955764.825    22955771.1704
  23815949.479    -9635283.492 7  -7461122.48345  23815948.921    23815955.6564
  23358215.898   -12672085.998 8  -9856247.52646  23358215.894    23358223.3924
  23258040.122   -11604701.274 8  -8522382.59745  23258039.394    23258046.9004
  24194907.644    -7558793.520 7  -5870311.97545  24194907.274    24194913.8194
  23212969.046   -10955561.806 8  -8233775.10646  23212968.796    23212976.0114
  20292431.370   -21668312.957 9 -16862066.02548  20292431.302    20292435.0104
 01  4 23  2 38  0.0000000  0  9 21 14 31 23 25 15 11 03 29
  21096966.114   -24818670.668 9 -18787041.33647  21096965.685    21096970.3204
  20232404.207   -24742179.327 9 -19233857.70948  20232403.798    20232406.7474
  22962653.631   -11319099.278 8  -8808176.70746  22962653.166    22962659.5364
  23827011.857    -9577150.618 8  -7415824.18345  23827011.283    23827017.9554
  23339770.608   -12769015.966 8  -9931777.18046  23339770.594    23339778.0414
  23277170.389   -11504171.443 8  -8444047.71745  23277169.601    23277177.1054
  24175963.407    -7658345.603 7  -5947884.89145  24175962.910    24175969.4024
  23227831.430   -10877459.036 8  -8172915.85546  23227831.217    23227838.4814
  20291750.061   -21671892.975 9 -16864855.62248  20291749.984    20291753.6994
 01  4 23  2 38 30.0000000  0  9 21 14 31 23 25 15 11 03 29
  21098555.892   -24810316.436 9 -18780531.53447  21098555.444    21098560.0684
  20233681.006   -24735469.545 9 -19228629.27948  20233680.594    20233683.5564
  22969629.738   -11282440.021 8  -8779611.06946  22969629.236    22969635.5914
  23838088.010    -9518945.980 8  -7370469.95345  23838087.385    23838093.9064
  23321346.112   -12865836.716 8 -10007221.73646  23321346.118    23321353.5294
  23296344.928   -11403408.689 8  -8365531.34545  23296344.206    23296351.7204
  24157041.902    -7757778.178 7  -6025364.68645  24157041.359    24157048.0014
  23242730.769   -10799162.917 8  -8111905.95946  23242730.522    23242737.7804
  20291147.949   -21675057.008 9 -16867321.07148  20291147.901    20291151.5774
 01  4 23  2 39  0.0000000  0  9 21 14 31 23 25 15 11 03 29
  21100176.678   -24801799.014 9 -18773894.56947  21100176.232    21100180.8564
  20235044.315   -24728305.214 9 -19223046.65548  20235043.911    20235046.8754
  22976693.172   -11245321.562 8  -8750687.61646  22976692.666    22976699.0114
  23849177.842    -9460668.706 8  -7325059.12045  23849177.228    23849183.7644
  23302943.011   -12962545.141 8 -10082578.75946  23302942.998    23302950.2904
  23315563.612   -11302414.007 8  -8286834.23645  23315562.892    23315570.4614
  24138143.635    -7857088.675 7  -6102749.36645  24138143.042    24138149.7384
  23257666.411   -10720675.877 8  -8050747.27746  23257666.163    23257673.4304
  20290624.905   -21677805.571 9 -16869462.78848  20290624.833    20290628.5194
 01  4 23  2 39 30.0000000  0  9 21 14 31 23 25 15 11 03 29
  21101828.548   -24793118.354 9 -18767130.40047  21101828.088    21101832.7504
  20236493.758   -24720688.238 9 -19217111.32448  20236493.357    20236496.2994
  22983843.394   -11207746.825 8  -8721408.61446  22983842.857    22983849.2654
  23860281.418    -9402319.158 8  -7279591.96445  23860280.801    23860287.3204
  23284561.664   -13059139.285 8 -10157846.74846  23284561.604    23284568.7894
  23334825.944   -11201189.884 8  -8207958.34745  23334825.267    23334832.8314
  24119268.928    -7956275.436 7  -6180037.64145  24119268.328    24119275.0724
  23272637.650   -10642001.637 8  -7989442.72846  23272637.358    23272644.6744
  20290180.520   -21680140.611 9 -16871282.26948  20290180.450    20290184.1404
 01  4 23  2 40  0.0000000  0  9 21 14 31 23 25 15 11 03 29
  21103511.747   -24784272.894 9 -18760237.82547  21103511.293    21103515.9464
  20238029.238   -24712619.156 9 -19210823.70748  20238028.824    20238031.7864
  22991080.264   -11169717.114 8  -8691775.09546  22991079.757    22991086.0404
  23871399.013    -9343896.190 8  -7234067.61645  23871398.405    23871404.8424
  23266202.687   -13155616.001 8 -10233023.24046  23266202.573    23266209.6684
  23354131.783   -11099737.296 8  -8128904.43945  23354131.112    23354138.6634
  24100418.420    -8055335.478 8  -6257227.17445  24100417.838    24100424.5104
  23287643.960   -10563142.835 8  -7927994.36046  23287643.689    23287651.0894
  20289814.829   -21682062.242 9 -16872779.62048  20289814.774    20289818.4334
 01  4 23  2 40 30.0000000  0  9 21 14 31 23 25 15 11 03 29
  21105226.379   -24775262.559 9 -18753216.76747  21105225.916    21105230.5494
  20239650.435   -24704099.564 9 -19204185.03948  20239650.032    20239652.9844
  22998403.182   -11131234.747 8  -8661788.84646  22998402.677    22998409.0154
  23882530.616    -9285399.517 8  -7188485.81745  23882529.978    23882536.4584
  23247866.602   -13251972.233 8 -10308105.85246  23247866.487    23247873.4834
  23373480.789   -10998058.331 8  -8049674.14345  23373480.066    23373487.5604
  24081592.304    -8154266.674 8  -6334316.31545  24081591.791    24081598.4504
  23302684.831   -10484102.641 8  -7866404.66846  23302684.517    23302692.0374
  20289527.574   -21683571.804 9 -16873955.87448  20289527.513    20289531.1834
 01  4 23  2 41  0.0000000  0  9 21 14 31 23 25 15 11 03 29
  21106972.456   -24766086.798 9 -18746066.81047  21106972.017    21106976.6354
  20241357.012   -24695131.394 9 -19197196.83548  20241356.600    20241359.5544
  23005811.674   -11092302.784 8  -8631452.28346  23005811.178    23005817.5304
  23893676.168    -9226829.446 8  -7142846.83945  23893675.512    23893681.9524
  23229553.766   -13348205.993 8 -10383093.02546  23229553.645    23229560.7014
  23392872.354   -10896155.557 8  -7970269.44045  23392871.632    23392879.0984
  24062791.013    -8253067.612 8  -6411303.96145  24062790.526    24062797.1714
  23317759.525   -10404884.588 8  -7804676.36746  23317759.310    23317766.7284
  20289318.368   -21684671.036 9 -16874812.39148  20289318.337    20289321.9754
 01  4 23  2 41 30.0000000  0  9 21 14 31 23 25 15 11 03 29
  21108750.277   -24756744.163 9 -18738786.82547  21108749.827    21108754.4524
  20243148.916   -24685714.766 9 -19189859.17948  20243148.520    20243151.4554
  23013305.524   -11052922.200 8  -8600766.13146  23013305.061    23013311.4614
  23904836.039    -9168184.252 8  -7097149.30645  23904835.436    23904841.7404
  23211264.931   -13444313.377 8 -10457981.72446  23211264.826    23211271.9064
  23412306.305   -10794029.360 8  -7890690.65445  23412305.638    23412313.1414
  24044015.269    -8351734.712 8  -6488187.33445  24044014.895    24044021.3474
  23332867.760   -10325490.527 8  -7742810.92345  23332867.512    23332874.9484
  20289187.259   -21685359.788 9 -16875349.05848  20289187.218    20289190.8784
 01  4 23  2 42  0.0000000  0  9 21 14 31 23 25 15 11 03 29
  21110559.740   -24747235.391 9 -18731377.38047  21110559.274    21110563.8744
  20245025.615   -24675852.624 9 -19182174.36948  20245025.231    20245028.1204
  23020884.125   -11013096.400 8  -8569733.06546  23020883.654    23020890.0704
  23916010.007    -9109464.973 8  -7051394.05245  23916009.431    23916015.6434
  23193000.420   -13540293.034 8 -10532770.89546  23193000.350    23193007.4434
  23431782.176   -10691682.929 8  -7810940.24645  23431781.565    23431789.1064
  24025265.165    -8450266.955 8  -6564965.60945  24025264.796    24025271.2254
  23348008.597   -10245924.809 8  -7680811.70745  23348008.370    23348015.8984
  20289133.815   -21685640.518 9 -16875567.78148  20289133.775    20289137.4264
 01  4 23  2 42 30.0000000  0  9 21 14 31 23 25 15 11 03 29
  21112401.121   -24737558.703 9 -18723837.09147  21112400.679    21112405.2864
  20246987.074   -24665545.023 9 -19174142.44348  20246986.673    20246989.5654
  23028547.233   -10972826.492 8  -8538353.94446  23028546.739    23028553.1854
  23927198.246    -9050669.991 8  -7005579.81745  23927197.725    23927203.9974
  23174760.995   -13636141.318 8 -10607457.70646  23174760.987    23174767.9054
  23451299.862   -10589116.818 8  -7731018.66445  23451299.293    23451306.8294
  24006541.404    -8548661.025 8  -6641636.23245  24006541.027    24006547.4154
  23363181.885   -10166189.209 8  -7618680.11545  23363181.626    23363189.1064
  20289158.021   -21685513.306 9 -16875468.62848  20289157.978    20289161.6174
 01  4 23  2 43  0.0000000  0  9 21 14 31 23 25 15 11 03 29
  21114274.563   -24727713.639 9 -18716165.60447  21114274.142    21114278.7384
  20249033.028   -24654793.363 9 -19165764.50548  20249032.627    20249035.4954
  23036294.513   -10932114.571 8  -8506630.40746  23036293.986    23036300.4504
  23938400.880    -8991799.136 7  -6959706.47145  23938400.431    23938406.7414
  23156547.094   -13731855.533 8 -10682040.04946  23156547.076    23156553.9044
  23470859.023   -10486333.041 8  -7650927.48645  23470858.423    23470865.9984
  23987844.329    -8646914.788 8  -6718197.52745  23987843.831    23987850.2474
  23378386.879   -10086287.057 8  -7556418.74346  23378386.599    23378394.0194
  20289259.621   -21684979.322 9 -16875052.51248  20289259.588    20289263.2074
 01  4 23  2 43 30.0000000  0  9 21 14 31 23 25 15 11 03 29
  21116179.985   -24717700.481 9 -18708363.13747  21116179.533    21116184.1424
  20251163.004   -24643600.180 9 -19157042.52348  20251162.612    20251165.4614
  23044125.176   -10890964.333 8  -8474565.31746  23044124.724    23044131.1094
  23949618.006    -8932853.123 8  -6913774.55845  23949617.514    23949623.8434
  23138359.077   -13827434.043 8 -10756516.65246  23138359.008    23138365.7944
  23490458.975   -10383334.677 8  -7570669.10145  23490458.354    23490465.9444
  23969174.127    -8745026.998 8  -6794648.52145  23969173.667    23969180.0144
  23393622.784   -10006222.229 8  -7494030.62046  23393622.472    23393629.8944
  20289438.221   -21684040.711 9 -16874321.09748  20289438.184    20289441.8014
 01  4 23  2 44  0.0000000  0  9 21 14 31 23 25 15 11 03 29
  21118117.691   -24707517.729 9 -18700428.51247  21118117.232    21118121.8464
  20253376.899   -24631966.104 9 -19147976.98448  20253376.499    20253379.3594
  23052039.009   -10849377.134 8  -8442159.73746  23052038.526    23052044.9204
  23960849.664    -8873830.683 8  -6867783.08945  23960849.119    23960855.4534
  23120197.466   -13922873.455 8 -10830884.85046  23120197.381    23120204.1174
  23510099.615   -10280122.559 8  -7490244.14645  23510098.968    23510106.6324
  23950531.447    -8842994.454 8  -6870986.70445  23950530.962    23950537.2864
  23408889.212    -9925996.841 8  -7431517.38946  23408888.874    23408896.2914
  20289693.680   -21682698.043 9 -16873274.83748  20289693.647    20289697.2544
 01  4 23  2 44 30.0000000  0  9 21 14 31 23 25 15 11 03 29
  21120087.841   -24697164.309 9 -18692360.90347  21120087.408    21120092.0454
  20255674.482   -24619892.105 9 -19138568.65748  20255674.079    20255676.9354
  23060035.579   -10807354.882 8  -8409415.15846  23060035.110    23060041.5044
  23972095.952    -8814731.007 7  -6821731.43945  23972095.324    23972101.8454
  23102062.930   -14018170.359 8 -10905142.01446  23102062.775    23102069.5124
  23529780.615   -10176698.187 8  -7409653.80645  23529779.942    23529787.6474
  23931916.785    -8940814.384 8  -6947209.95645  23931916.409    23931922.6054
  23424185.676    -9845613.618 8  -7368881.15546  23424185.374    23424192.8094
  20290025.938   -21680951.759 9 -16871914.06848  20290025.907    20290029.5304
 01  4 23  2 45  0.0000000  0  9 21 14 31 23 25 15 11 03 29
  21122090.518   -24686640.080 9 -18684160.19347  21122090.091    21122094.7344
  20258055.325   -24607380.426 9 -19128819.27848  20258054.930    20258057.8014
  23068114.346   -10764900.581 8  -8376333.92146  23068113.907    23068120.2774
  23983356.894    -8755554.166 7  -6775619.65345  23983356.288    23983362.7874
  23083955.889   -14113322.661 8 -10979286.51846  23083955.760    23083962.4454
  23549501.661   -10073063.897 8  -7328899.88745  23549500.950    23549508.6174
  23913330.536    -9038485.205 8  -7023317.01345  23913330.256    23913336.3914
  23439511.488    -9765076.440 8  -7306124.96746  23439511.174    23439518.5544
  20290434.680   -21678803.771 9 -16870240.28648  20290434.645    20290438.2554
 01  4 23  2 45 30.0000000  0  9 21 14 31 23 25 15 11 03 29
  21124125.891   -24675944.019 9 -18675825.59647  21124125.472    21124130.1024
  20260519.377   -24594431.639 9 -19118729.29848  20260518.975    20260521.8484
  23076275.138   -10722015.831 8  -8342917.25146  23076274.688    23076281.0594
  23994632.571    -8696299.355 7  -6729447.11345  23994631.981    23994638.5954
  23065877.074   -14208326.793 8 -11053315.55646  23065876.936    23065883.5904
  23569262.413    -9969220.895 8  -7247983.34545  23569261.630    23569269.3784
  23894773.199    -9136004.096 7  -7099305.65545  23894772.923    23894779.0764
  23454866.109    -9684387.739 8  -7243250.71346  23454865.764    23454873.1564
  20290919.716   -21676254.859 9 -16868254.09848  20290919.669    20290923.2664
 01  4 23  2 46  0.0000000  0  9 21 14 31 23 25 15 11 03 29
  21126193.952   -24665076.232 9 -18667357.18547  21126193.551    21126198.1534
  20263066.243   -24581047.764 9 -19108300.29148  20263065.841    20263068.7054
  23084517.142   -10678703.769 8  -8309167.61146  23084516.692    23084523.1144
  24005923.269    -8636966.677 7  -6683213.87645  24005922.676    24005929.2574
  23047826.795   -14303180.800 8 -11127227.61446  23047826.682    23047833.3304
  23589062.390    -9865171.691 8  -7166906.13445  23589061.682    23589069.3084
  23876245.140    -9233369.148 8  -7175174.43345  23876244.929    23876250.9844
  23470248.831    -9603550.991 8  -7180261.06546  23470248.515    23470255.9384
  20291480.692   -21673306.624 9 -16865956.74848  20291480.650    20291484.2514
 01  4 23  2 46 30.0000000  0  9 21 14 31 23 25 15 11 03 29
  21128294.756   -24654036.519 9 -18658754.80447  21128294.316    21128298.9554
  20265695.495   -24567230.887 9 -19097533.87048  20265695.091    20265697.9584
  23092839.942   -10634967.177 8  -8275087.16846  23092839.500    23092845.9404
  24017228.729    -8577556.216 7  -6636920.05645  24017228.138    24017234.6904
  23029805.560   -14397882.500 8 -11201021.00046  23029805.448    23029812.0524
  23608901.207    -9760918.467 8  -7085669.92945  23608900.448    23608908.1534
  23857746.787    -9330578.473 7  -7250921.88145  23857746.596    23857752.5914
  23485659.134    -9522569.403 8  -7117158.58246  23485658.817    23485666.2674
  20292117.423   -21669960.593 9 -16863349.43048  20292117.369    20292120.9734
 01  4 23  2 47  0.0000000  0  9 21 14 31 23 25 15 11 03 29
  21130428.646   -24642822.723 9 -18650016.77547  21130428.199    21130432.8404
  20268407.109   -24552981.126 9 -19086430.14648  20268406.714    20268409.5844
  23101243.376   -10590806.975 8  -8240676.65146  23101242.893    23101249.3884
  24028549.323    -8518066.133 7  -6590564.18145  24028548.772    24028555.3474
  23011814.134   -14492427.813 8 -11274692.53746  23011814.033    23011820.5514
  23628778.700    -9656461.751 8  -7004275.16445  23628778.037    23628785.6584
  23839278.622    -9427628.532 8  -7326545.20345  23839278.342    23839284.5114
  23501096.739    -9441444.822 8  -7053944.70745  23501096.379    23501103.7924
  20292829.819   -21666216.788 9 -16860432.15948  20292829.766    20292833.3614
 01  4 23  2 47 30.0000000  0  9 21 14 31 23 25 15 11 03 29
  21132595.615   -24631435.210 9 -18641143.38147  21132595.179    21132599.8244
  20271200.691   -24538300.703 9 -19074990.84148  20271200.300    20271203.1514
  23109726.781   -10546226.455 8  -8205938.59846  23109726.299    23109732.8154
  24039884.927    -8458496.913 7  -6544146.66045  24039884.464    24039890.9934
  22993852.692   -14586815.228 8 -11348241.02046  22993852.617    22993859.0884
  23648694.474    -9551804.191 8  -6922723.88545  23648693.830    23648701.3844
  23820841.089    -9524517.965 8  -7402043.38845  23820840.814    23820846.8684
  23516560.676    -9360181.148 8  -6990622.40145  23516560.394    23516567.8174
  20293617.545   -21662077.244 9 -16857206.51548  20293617.481    20293621.0774
 01  4 23  2 48  0.0000000  0  9 21 14 31 23 25 15 11 03 29
  21134795.878   -24619872.892 9 -18632133.77847  21134795.446    21134800.0704
  20274075.880   -24523191.385 9 -19063217.32648  20274075.490    20274078.3474
  23118289.648   -10501228.137 8  -8170875.00846  23118289.172    23118295.7114
  24051235.765    -8398848.134 7  -6497667.14045  24051235.226    24051241.9794
  22975921.853   -14681041.694 8 -11421664.08446  22975921.750    22975928.2814
  23668648.047    -9446947.808 8  -6841017.69745  23668647.367    23668654.9424
  23802434.644    -9621244.380 8  -7477414.55245  23802434.228    23802440.3054
  23532050.526    -9278781.697 8  -6927194.30445  23532050.201    23532057.7074
  20294480.288   -21657543.271 9 -16853673.53248  20294480.244    20294483.8364
 01  4 23  2 48 30.0000000  0  9 21 14 31 23 25 15 11 03 29
  21137029.594   -24608134.659 9 -18622987.09747  21137029.139    21137033.7624
  20277032.530   -24507653.944 9 -19051110.21748  20277032.143    20277034.9944
  23126931.736   -10455813.665 8  -8135487.12646  23126931.278    23126937.8284
  24062601.839    -8339118.882 7  -6451124.89545  24062601.378    24062608.1614
  22958022.164   -14775103.871 8 -11494959.14646  22958022.192    22958028.6914
  23688639.258    -9341893.882 8  -6759157.55445  23688638.597    23688646.1904
  23784059.777    -9717804.683 8  -7552656.25745  23784059.349    23784065.3264
  23547565.724    -9197248.478 8  -6863661.97645  23547565.439    23547573.0214
  20295417.962   -21652615.602 9 -16849833.77348  20295417.935    20295421.5084
 01  4 23  2 49  0.0000000  0  9 21 14 31 23 25 15 11 03 29
  21139296.762   -24596220.517 9 -18613703.34147  21139296.320    21139300.9494
  20280070.207   -24491690.819 9 -19038671.40248  20280069.820    20280072.6624
  23135652.418   -10409986.287 8  -8099777.50446  23135651.981    23135658.5634
  24073983.178    -8279309.571 7  -6404520.26445  24073982.758    24073989.6084
  22940154.174   -14869000.023 8 -11568124.82146  22940154.182    22940160.7054
  23708667.513    -9236645.096 8  -6677145.59445  23708666.901    23708674.4824
  23765716.905    -9814197.413 8  -7627767.38545  23765716.347    23765722.3494
  23563105.712    -9115585.526 8  -6800028.56045  23563105.402    23563113.0084
  20296430.197   -21647296.108 9 -16845688.69048  20296430.164    20296433.7494
 01  4 23  2 49 30.0000000  0  9 21 14 31 23 25 15 11 03 29
  21141597.620   -24584129.334 9 -18604281.62747  21141597.197    21141601.8064
  20283188.694   -24475302.791 9 -19025901.49548  20283188.301    20283191.1724
  23144451.278   -10363748.062 8  -8063747.72846  23144450.830    23144457.4444
  24085380.045    -8219419.244 7  -6357852.52645  24085379.519    24085386.5174
  22922318.332   -14962727.404 8 -11641159.00246  22922318.300    22922324.8174
  23728732.635    -9131202.855 8  -6594982.88945  23728732.010    23728739.4704
  23747406.371    -9910419.845 8  -7702745.80445  23747405.833    23747411.8144
  23578669.897    -9033795.388 8  -6736296.03245  23578669.577    23578677.1854
  20297516.838   -21641585.708 9 -16841239.00848  20297516.802    20297520.3824
 01  4 23  2 50  0.0000000  0  9 21 14 31 23 25 15 11 03 29
  21143932.415   -24571859.953 9 -18594721.06247  21143931.980    21143936.5864
  20286387.887   -24458490.919 9 -19012801.32148  20286387.486    20286390.3734
  23153327.995   -10317100.976 8  -8027399.37746  23153327.495    23153334.0984
  24096792.418    -8159446.997 7  -6311120.93845  24096791.938    24096798.9644
  22904515.349   -15056282.195 8 -11714058.70646  22904515.325    22904521.7524
  23748834.241    -9025568.433 8  -6512670.42845  23748833.665    23748841.1004
  23729128.685   -10006469.014 8  -7777589.21445  23729128.207    23729134.2264
  23594257.870    -8951880.457 8  -6672466.25945  23594257.446    23594265.1354
  20298677.746   -21635485.045 9 -16836485.22548  20298677.718    20298681.2924
 01  4 23  2 50 30.0000000  0  9 21 14 31 23 25 15 11 03 29
  21146300.887   -24559413.438 9 -18585022.47247  21146300.451    21146305.0594
  20289667.123   -24441258.227 9 -18999373.23348  20289666.726    20289669.5994
  23162281.729   -10270048.744 8  -7990735.33046  23162281.206    23162287.8104
  24108220.321    -8099393.794 7  -6264326.27745  24108219.807    24108226.6834
  22886745.473   -15149663.172 8 -11786822.96146  22886745.406    22886751.8194
  23768971.747    -8919744.961 8  -6430210.66645  23768971.163    23768978.7774
  23710884.160   -10102343.644 8  -7852296.62845  23710883.827    23710889.8594
  23609868.697    -8869845.133 8  -6608542.69445  23609868.388    23609876.0034
  20299912.388   -21628996.707 9 -16831429.35948  20299912.363    20299915.9544
 01  4 23  2 51  0.0000000  0  9 21 14 31 23 25 15 11 03 29
  21148703.606   -24546786.995 9 -18575183.67047  21148703.178    21148707.8004
  20293026.526   -24423604.484 9 -18985617.05748  20293026.130    20293028.9994
  23171312.497   -10222591.818 8  -7953755.92946  23171311.985    23171318.5814
  24119663.891    -8039257.469 8  -6217466.83345  24119663.364    24119670.2224
  22869009.519   -15242865.466 8 -11859447.99546  22869009.484    22869015.8824
  23789145.214    -8813732.499 7  -6347603.64545  23789144.578    23789152.3924
  23692673.697   -10198039.731 8  -7926864.90045  23692673.394    23692679.4424
  23625502.168    -8787690.717 8  -6544526.31445  23625501.866    23625509.4354
  20301220.916   -21622120.396 9 -16826071.17948  20301220.877    20301224.4374
 01  4 23  2 51 30.0000000  0  9 21 14 31 23 25 15 11 03 29
  21151140.515   -24533980.714 9 -18565204.73747  21151140.090    21151144.7434
  20296465.533   -24405532.226 9 -18971534.76748  20296465.160    20296468.0114
  23180419.574   -10174733.849 8  -7916464.03146  23180419.080    23180425.6474
  24131123.257    -7979038.396 7  -6170542.91445  24131122.691    24131129.5064
  22851307.841   -15335887.659 8 -11931932.68346  22851307.789    22851314.1704
  23809354.178    -8707534.042 7  -6264851.69745  23809353.478    23809361.4294
  23674497.399   -10293556.061 8  -8001293.10745  23674497.177    23674503.1824
  23641157.614    -8705420.848 8  -6480419.98045  23641157.277    23641164.9504
  20302602.897   -21614858.087 9 -16820412.21848  20302602.851    20302606.4224
 01  4 23  2 52  0.0000000  0  9 21 14 31 23 25 15 11 03 29
  21153611.713   -24520994.575 9 -18555085.65747  21153611.290    21153615.9114
  20299983.797   -24387043.646 9 -18957128.06748  20299983.404    20299986.2604
  23189602.354   -10126478.009 8  -7878862.09646  23189601.903    23189608.4394
  24142598.153    -7918737.037 7  -6123554.89045  24142597.707    24142604.6374
  22833640.769   -15428727.758 8 -12004275.46646  22833640.700    22833647.1304
  23829598.071    -8601152.247 8  -6181956.88645  23829597.323    23829605.2644
  23656355.750   -10388890.791 8  -8075579.82045  23656355.476    23656361.4554
  23656834.365    -8623039.345 8  -6416226.64345  23656834.024    23656841.7574
  20304057.885   -21607212.043 9 -16814454.24548  20304057.843    20304061.4094
 01  4 23  2 52 30.0000000  0  9 21 14 31 23 25 15 11 03 29
  21156117.362   -24507827.438 9 -18544825.53147  21156116.935    21156121.5494
  20303581.158   -24368139.310 9 -18942397.40248  20303580.754    20303583.6034
  23198860.545   -10077826.119 8  -7840951.56246  23198860.093    23198866.6194
  24154089.159    -7858352.032 7  -6076501.67945  24154088.692    24154095.5684
  22816009.107   -15521382.035 8 -12076473.48446  22816009.056    22816015.4754
  23849876.581    -8494588.212 7  -6098920.08845  23849875.804    23849883.9754
  23638249.336   -10484040.759 8  -8149722.55645  23638248.991    23638254.9474
  23672531.923    -8540548.352 8  -6351948.00345  23672531.567    23672539.3974
  20305585.863   -21599182.384 9 -16808197.35148  20305585.815    20305589.3684
 01  4 23  2 53  0.0000000  0  9 21 14 31 23 25 15 11 03 29
  21158657.633   -24494478.239 9 -18534423.54747  21158657.197    21158661.8164
  20307257.317   -24348821.056 9 -18927344.20148  20307256.919    20307259.7504
  23208193.531   -10028780.916 8  -7802734.54846  23208193.033    23208199.5884
  24165596.110    -7797882.988 7  -6029382.98545  24165595.606    24165602.3994
  22798413.283   -15613848.034 8 -12148524.78046  22798413.277    22798419.6224
  23870189.417    -8387843.837 7  -6015742.75245  23870188.692    23870196.9084
  23620178.445   -10579003.507 8  -8223719.40345  23620178.061    23620184.0844
  23688249.722    -8457950.980 8  -6287586.47845  23688249.397    23688257.2064
  20307186.507   -21590770.818 9 -16801642.87048  20307186.467    20307190.0094
 01  4 23  2 53 30.0000000  0  9 21 14 31 23 25 15 11 03 29
  21161232.602   -24480946.445 9 -18523879.27847  21161232.154    21161236.7984
  20311011.841   -24329090.847 9 -18911969.99748  20311011.429    20311014.2404
  23217600.858    -9979345.027 8  -7764213.11746  23217600.399    23217606.9274
  24177119.056    -7737329.962 7  -5982198.83645  24177118.499    24177125.2414
  22780853.783   -15706123.418 8 -12220427.54946  22780853.783    22780860.0434
  23890536.188    -8280921.164 7  -5932426.48545  23890535.506    23890543.6644
  23602143.549   -10673777.080 8  -8297568.86045  23602143.177    23602149.0704
  23703987.070    -8375250.557 8  -6223144.65545  23703986.772    23703994.6314
  20308859.573   -21581978.759 9 -16794791.89548  20308859.529    20308863.0814
 01  4 23  2 54  0.0000000  0  9 21 14 31 23 25 15 11 03 29
  21163842.740   -24467230.041 9 -18513191.15547  21163842.297    21163846.9344
  20314844.742   -24308948.657 9 -18896274.77048  20314844.336    20314847.1654
  23227082.363    -9929519.606 8  -7725388.14046  23227081.916    23227088.4524
  24188658.286    -7676691.014 7  -5934947.74345  24188657.721    24188664.5114
  22763331.486   -15798203.650 8 -12292178.25146  22763331.483    22763337.6784
  23910916.750    -8173820.993 7  -5848971.91445  23910916.087    23910924.2334
  23584145.424   -10768357.604 8  -8371267.88045  23584145.056    23584150.8884
  23719743.766    -8292448.497 8  -6158623.61645  23719743.563    23719751.3324
  20310604.994   -21572806.459 9 -16787644.63148  20310604.931    20310608.5054
 01  4 23  2 54 30.0000000  0  9 21 14 31 23 25 15 11 03 29
  21166487.544   -24453331.422 9 -18502361.04547  21166487.106    21166491.7504
  20318755.108   -24288399.412 9 -18880262.35548  20318754.719    20318757.5434
  23236636.863    -9879310.333 8  -7686264.06146  23236636.431    23236642.9634
  24200213.347    -7615968.781 7  -5887631.74145  24200212.821    24200219.6064
  22745846.229   -15890089.410 8 -12363777.40946  22745846.139    22745852.2714
  23931330.154    -8066548.387 8  -5765382.97945  23931329.495    23931337.5994
  23566183.877   -10862745.658 8  -8444816.91845  23566183.461    23566189.3804
  23735518.627    -8209551.088 8  -6094028.30645  23735518.333    23735526.1564
  20312421.992   -21563258.018 9 -16780204.26948  20312421.943    20312425.4824
 01  4 23  2 55  0.0000000  0  9 21 14 31 23 25 15 11 03 29
  21169167.590   -24439247.496 9 -18491386.54647  21169167.171    21169171.8354
  20322743.090   -24267442.488 9 -18863932.26948  20322742.688    20322745.5084
  23246264.389    -9828717.464 8  -7646841.07446  23246263.907    23246270.4384
  24211784.732    -7555160.740 7  -5840248.87945  24211784.230    24211791.0174
  22728398.732   -15981776.056 8 -12435221.41846  22728398.667    22728404.7504
  23951776.521    -7959102.945 7  -5681659.35545  23951775.910    23951783.8614
  23548259.848   -10956936.841 8  -8518212.55245  23548259.489    23548265.3214
  23751311.563    -8126559.039 8  -6029359.21945  23751311.209    23751319.0654
  20314310.697   -21553332.680 9 -16772470.22348  20314310.645    20314314.1764
 01  4 23  2 55 30.0000000  0  9 21 14 31 23 25 15 11 03 29
  21171883.146   -24424976.915 9 -18480266.60447  21171882.721    21171887.4254
  20326808.440   -24246078.751 9 -18847285.19148  20326808.044    20326810.8634
  23255964.649    -9777742.662 8  -7607120.48846  23255964.161    23255970.6194
  24223372.693    -7494265.598 7  -5792798.15045  24223372.258    24223379.0594
  22710989.922   -16073259.653 8 -12506507.22646  22710989.849    22710995.8754
  23972255.502    -7851485.696 7  -5597801.87145  23972254.873    23972262.9104
  23530373.836   -11050927.630 8  -8591452.03545  23530373.502    23530379.3864
  23767122.114    -8043474.559 8  -5964618.12145  23767121.734    23767129.6394
  20316271.043   -21543030.829 9 -16764442.78648  20316270.988    20316274.5164
 01  4 23  2 56  0.0000000  0  9 21 14 31 23 25 15 11 03 29
  21174634.133   -24410520.573 9 -18469001.91047  21174633.686    21174638.3444
  20330950.639   -24224311.294 9 -18830323.52148  20330950.256    20330953.0784
  23265736.697    -9726390.204 8  -7567105.60246  23265736.216    23265742.6794
  24234977.032    -7433284.554 7  -5745280.48245  24234976.585    24234983.3554
  22693619.864   -16164539.529 8 -12577634.27546  22693619.734    22693625.7254
  23992766.508    -7743700.223 8  -5513813.29545  23992765.823    23992773.9214
  23512526.057   -11144717.457 8  -8664534.91545  23512525.777    23512531.7484
  23782949.428    -7960302.249 8  -5899808.58745  23782948.997    23782956.8044
  20318302.446   -21532355.674 9 -16756124.46348  20318302.392    20318305.9094
 01  4 23  2 56 30.0000000  0  9 21 14 31 23 25 15 11 03 29
  21177420.749   -24395876.782 9 -18457591.15947  21177420.297    21177424.9414
  20335169.520   -24202140.869 9 -18813047.85448  20335169.135    20335171.9744
  23275580.264    -9674661.761 8  -7526797.75846  23275579.781    23275586.3344
  24246597.875    -7372216.279 7  -5697694.83445  24246597.470    24246604.1954
  22676289.144   -16255612.042 8 -12648599.75646  22676289.062    22676295.0534
  24013309.214    -7635747.552 8  -5429694.45045  24013308.473    24013316.6924
  23494717.168   -11238302.906 8  -8737458.56345  23494716.986    23494722.9544
  23798792.893    -7877044.289 8  -5834932.28345  23798792.549    23798800.3124
  20320404.858   -21521307.457 9 -16747515.44848  20320404.807    20320408.3094
 01  4 23  2 57  0.0000000  0  9 21 14 31 23 25 15 11 03 29
  21180243.038   -24381045.405 9 -18446034.23747  21180242.583    21180247.2474
  20339464.714   -24179569.456 9 -18795459.72548  20339464.322    20339467.1404
  23285494.781    -9622560.543 8  -7486199.42846  23285494.288    23285500.8524
  24258235.411    -7311060.763 7  -5650041.20445  24258234.953    24258241.6024
  22658998.430   -16346474.781 8 -12719401.76546  22658998.332    22659004.3434
  24033883.359    -7527629.924 8  -5345447.04445  24033882.629    24033890.8264
  23476947.708   -11331681.898 8  -8810221.32845  23476947.418    23476953.4404
  23814652.074    -7793703.682 8  -5769991.62845  23814651.779    23814659.4594
  20322577.883   -21509888.102 9 -16738617.23148  20322577.812    20322581.3114
 01  4 23  2 57 30.0000000  0  9 21 14 31 23 25 15 11 03 29
  21183101.181   -24366025.869 9 -18434330.69347  21183100.725    21183105.3604
  20343835.791   -24156599.246 9 -18777560.84348  20343835.396    20343838.2004
  23295479.623    -9570089.952 8  -7445313.28546  23295479.145    23295485.6834
  24269889.522    -7249818.097 7  -5602319.64345  24269889.046    24269895.7074
  22641748.139   -16437125.216 8 -12790038.35346  22641747.994    22641754.0024
  24054488.414    -7419349.868 8  -5261073.08045  24054487.714    24054495.8614
  23459217.828   -11424852.625 8  -8882821.82945  23459217.592    23459223.5004
  23830526.413    -7710283.821 8  -5704989.19845  23830526.070    23830533.7304
  20324821.178   -21498099.410 9 -16729431.22048  20324821.119    20324824.6004
 01  4 23  2 58  0.0000000  0  9 21 14 31 23 25 15 11 03 29
  21185995.626   -24350815.536 9 -18422478.47347  21185995.171    21185999.7714
  20348282.782   -24133230.019 9 -18759351.04048  20348282.387    20348285.2024
  23305534.713    -9517250.438 8  -7404139.65446  23305534.174    23305540.7774
  24281560.461    -7188485.923 7  -5554528.34945  24281560.226    24281566.9034
  22624539.012   -16527558.943 8 -12860506.08446  22624538.937    22624544.9124
  24075124.522    -7310907.218 8  -5176572.43545  24075123.888    24075131.7994
  23441528.428   -11517810.734 8  -8955256.66145  23441528.168    23441534.0154
  23846415.598    -7626786.009 8  -5639926.01145  23846415.340    23846422.8594
  20327134.866   -21485940.799 9 -16719956.95748  20327134.807    20327138.2964
 01  4 23  2 58 30.0000000  0  9 21 14 31 23 25 15 11 03 29
  21188925.788   -24335417.284 9 -18410479.82847  21188925.342    21188929.9524
  20352804.724   -24109466.981 9 -18740834.37248  20352804.327    20352807.1394
  23315658.770    -9464048.115 8  -7362683.33446  23315658.295    23315664.8454
  24293248.060    -7127067.370 7  -5506669.76045  24293247.884    24293254.3614
  22607371.075   -16617776.772 8 -12930805.57246  22607370.983    22607376.9314
  24095790.454    -7202307.419 8  -5091949.31145  24095789.791    24095797.6474
  23423879.383   -11610557.209 8  -9027526.59945  23423879.066    23423884.8634
  23862318.493    -7543216.492 8  -5574806.95145  23862318.161    23862325.6894
  20329518.017   -21473417.242 9 -16710198.32548  20329517.958    20329521.4344
 01  4 23  2 59  0.0000000  0  9 21 14 31 23 25 15 11 03 29
  21191892.470   -24319827.152 9 -18398331.66147  21191892.048    21191896.6614
  20357401.838   -24085308.873 9 -18722009.86148  20357401.454    20357404.2684
  23325852.061    -9410482.516 8  -7320943.93846  23325851.599    23325858.0044
  24304952.739    -7065559.090 7  -5458741.24745  24304952.282    24304959.0554
  22590245.305   -16707772.913 8 -13000932.32546  22590245.249    22590251.1174
  24116486.404    -7093549.612 7  -5007203.08745  24116485.754    24116493.7984
  23406271.596   -11703086.540 8  -9099627.32745  23406271.316    23406276.9214
  23878234.826    -7459575.407 8  -5509632.14745  23878234.572    23878242.2284
  20331970.900   -21460527.244 9 -16700154.15448  20331970.830    20331974.2814
 01  4 23  2 59 30.0000000  0  9 21 14 31 23 25 15 11 03 29
  21194895.660   -24304045.242 9 -18386034.06247  21194895.249    21194899.8454
  20362073.675   -24060758.089 9 -18702879.36348  20362073.280    20362076.0974
  23336113.652    -9356557.309 8  -7278924.32146  23336113.215    23336119.6484
  24316674.293    -7003961.546 7  -5410743.20345  24316673.787    24316680.7694
  22573162.081   -16797545.644 8 -13070885.00146  22573162.025    22573167.7844
  24137211.894    -6984636.821 7  -4922336.11245  24137211.197    24137219.4084
  23388705.444   -11795397.203 8  -9171557.65345  23388705.146    23388710.7744
  23894164.008    -7375866.823 8  -5444404.76945  23894163.854    23894171.4764
  20334493.107   -21447272.880 9 -16689826.06148  20334493.043    20334496.5134
 01  4 23  3  0  0.0000000  0  9 21 14 31 23 25 15 11 03 29
  21197935.480   -24288070.793 9 -18373586.43547  21197935.045    21197939.6544
  20366819.794   -24035816.988 9 -18683444.72748  20366819.404    20366822.2194
  23346443.176    -9302275.648 8  -7236626.94246  23346442.744    23346449.1544
  24328412.797    -6942274.839 7  -5362675.66945  24328412.461    24328419.3604
  22556121.648   -16887093.120 8 -13140662.14846  22556121.582    22556127.3314
  24157966.453    -6875571.360 7  -4837350.18445  24157965.658    24157973.9594
  23371181.288   -11887487.484 8  -9243316.26146  23371181.038    23371186.5054
  23910105.536    -7292093.709 7  -5379127.09745  23910105.338    23910113.0854
  20337084.238   -21433656.335 9 -16679215.75648  20337084.180    20337087.6374
 01  4 23  3  0 30.0000000  0  9 21 14 31 23 25 15 11 03 29
  21201012.053   -24271903.043 9 -18360988.17947  21201011.645    21201016.2734
  20371640.040   -24010486.374 9 -18663706.56548  20371639.657    20371642.4524
  23356840.130    -9247639.351 8  -7194053.23546  23356839.706    23356846.1174
  24340168.626    -6880497.597 7  -5314537.57845  24340168.422    24340175.2974
  22539124.824   -16976411.446 8 -13210260.74246  22539124.799    22539130.5184
  24178749.793    -6766354.191 7  -4752246.04445  24178748.960    24178757.5174
  23353699.715   -11979353.844 8  -9314900.36646  23353699.351    23353704.8504
  23926058.859    -7208258.165 7  -5313800.78145  23926058.644    23926066.5854
  20339744.220   -21419677.997 9 -16668323.52448  20339744.158    20339747.6144
 01  4 23  3  1  0.0000000  0  9 21 14 31 23 25 15 11 03 29
  21204125.581   -24255541.249 9 -18348238.72047  21204125.180    21204129.8024
  20376533.947   -23984768.624 9 -18643666.74548  20376533.569    20376536.3714
  23367303.912    -9192652.121 8  -7151206.07146  23367303.433    23367309.8434
  24351941.846    -6818630.196 7  -5266329.22645  24351941.492    24351948.3324
  22522171.992   -17065498.688 8 -13279679.26446  22522171.955    22522177.6554
  24199561.472    -6656988.169 7  -4667025.92245  24199560.752    24199569.4714
  23336261.046   -12070994.581 8  -9386308.65146  23336260.643    23336266.0864
  23942023.379    -7124364.065 7  -5248428.85845  23942023.242    23942031.1824
  20342472.639   -21405339.973 9 -16657151.02248  20342472.609    20342476.0544
 01  4 23  3  1 30.0000000  0  9 21 14 31 23 25 15 11 03 29
  21207276.268   -24238984.332 9 -18335337.21547  21207275.849    21207280.4684
  20381501.346   -23958664.712 9 -18623326.01848  20381500.961    20381503.7504
  23377834.126    -9137315.593 8  -7108086.72546  23377833.682    23377840.0064
  24363732.315    -6756671.312 7  -5218049.61645  24363731.999    24363738.8404
  22505263.764   -17154351.703 8 -13348915.27746  22505263.701    22505269.3814
  24220401.375    -6547474.470 7  -4581690.74045  24220400.585    24220409.2284
  23318865.917   -12162406.317 8  -9457538.50046  23318865.595    23318870.9304
  23957998.771    -7040413.434 7  -5183012.84445  23957998.602    23958006.5264
  20345269.400   -21390642.850 9 -16645698.69648  20345269.353    20345272.7874
 01  4 23  3  2  0.0000000  0  9 21 14 31 23 25 15 11 03 29
  21210463.936   -24222232.991 9 -18322284.21447  21210463.522    21210468.1384
  20386541.650   -23932177.780 9 -18602686.83348  20386541.271    20386544.0304
  23388430.044    -9081633.881 8  -7064698.39646  23388429.616    23388435.9224
  24375539.905    -6694622.126 7  -5169699.62945  24375539.525    24375546.5244
  22488400.400   -17242968.988 8 -13417967.60446  22488400.335    22488405.9814
  24241268.753    -6437816.537 7  -4496243.16445  24241267.979    24241276.6224
  23301514.614   -12253588.204 8  -9528589.23946  23301514.267    23301519.5274
  23973983.981    -6956410.885 7  -5117556.39645  23973983.677    23973991.7474
  20348133.848   -21375589.772 9 -16633969.00848  20348133.810    20348137.2674
 01  4 23  3  2 30.0000000  0  9 21 14 31 23 25 15 11 03 29
  21213688.849   -24205285.929 9 -18309078.70047  21213688.419    21213693.0284
  20391654.621   -23905308.798 9 -18581749.94848  20391654.222    20391656.9994
  23399091.316    -9025608.820 8  -7021042.54446  23399090.847    23399097.1814
  24387364.912    -6632481.550 7  -5121278.43645  24387364.529    24387371.3264
  22471582.503   -17331347.063 8 -13486833.53246  22471582.457    22471588.0674
  24262163.351    -6328015.480 7  -4410684.04845  24262162.604    24262171.1434
  23284207.610   -12344537.068 8  -9599458.38046  23284207.229    23284212.4944
  23989978.656    -6872358.280 8  -5052060.93045  23989978.354    23989986.4614
  20351066.001   -21360181.210 9 -16621962.32048  20351065.940    20351069.3964
 01  4 23  3  3  0.0000000  0  9 21 14 31 23 25 15 11 03 29
  21216951.503   -24188140.727 9 -18295718.79347  21216951.040    21216955.6824
  20396840.186   -23878058.308 9 -18560515.78248  20396839.792    20396842.5844
  23409817.551    -8969242.205 8  -6977120.54046  23409817.071    23409823.5054
  24399207.681    -6570247.849 7  -5072784.66845  24399207.260    24399214.1934
  22454810.887   -17419482.192 8 -13555510.15946  22454810.828    22454816.4354
  24283084.933    -6218072.013 7  -4325013.98445  24283084.201    24283092.7664
  23266945.596   -12435249.195 8  -9670143.05846  23266945.239    23266950.4984
  24005982.718    -6788257.175 8  -4986527.68945  24005982.414    24005990.5154
  20354065.749   -21344417.486 9 -16609678.88348  20354065.694    20354069.1364
 01  4 23  3  3 30.0000000  0  9 21 14 31 23 25 15 11 03 29
  21220251.823   -24170797.464 9 -18282204.55647  21220251.366    21220255.9984
  20402097.909   -23850428.722 9 -18538986.22348  20402097.502    20402100.2984
  23420608.111    -8912537.784 8  -6932935.31346  23420607.611    23420614.0904
  24411068.110    -6507921.384 7  -5024218.61845  24411067.740    24411074.5244
  22438085.906   -17507372.297 8 -13623995.86446  22438085.837    22438091.4104
  24304033.174    -6107988.962 7  -4239235.14945  24304032.418    24304041.0204
  23249728.947   -12525722.887 8  -9740641.92246  23249728.608    23249733.8944
  24021995.201    -6704111.512 8  -4920959.71445  24021994.908    24022002.9704
  20357132.603   -21328300.839 9 -16597120.44448  20357132.560    20357136.0114
 01  4 23  3  4  0.0000000  0  9 21 14 31 23 25 15 11 03 29
  21223589.772   -24153256.337 9 -18268536.13547  21223589.325    21223593.9544
  20407427.197   -23822423.188 9 -18517163.71048  20407426.792    20407429.5674
  23431462.183    -8855499.372 8  -6888489.83746  23431461.637    23431468.2494
  24422945.954    -6445503.185 7  -4975581.09645  24422945.477    24422952.3994
  22421407.776   -17595016.139 8 -13692289.67146  22421407.702    22421413.2224
  24325007.400    -5997769.658 8  -4153350.12645  24325006.638    24325015.2204
  23232557.924   -12615956.718 8  -9810953.88646  23232557.605    23232562.8784
  24038015.393    -6619925.377 8  -4855360.20545  24038015.108    24038023.1884
  20360266.110   -21311833.979 9 -16584289.10348  20360266.061    20360269.5364
 01  4 23  3  4 30.0000000  0  9 21 14 31 23 25 15 11 03 29
  21226965.793   -24135515.143 9 -18254711.82147  21226965.358    21226969.9694
  20412827.942   -23794042.032 9 -18495048.51048  20412827.534    20412830.3064
  23442379.507    -8798128.706 8  -6843785.44646  23442378.929    23442385.5324
  24434841.507    -6382991.688 7  -4926870.85545  24434840.992    24434847.9924
  22404777.186   -17682410.111 8 -13760388.77146  22404777.116    22404782.6204
  24346007.292    -5887414.916 7  -4067359.58145  24346006.550    24346015.2114
  23215433.193   -12705947.304 8  -9881076.30646  23215432.891    23215438.1404
  24054042.930    -6535700.511 8  -4789730.52545  24054042.613    24054050.7714
  20363466.239   -21295017.028 9 -16571184.96748  20363466.186    20363469.6734
 01  4 23  3  5  0.0000000  0  9 21 14 31 23 25 15 11 03 29
  21230380.082   -24117572.944 9 -18240730.88347  21230379.634    21230384.2554
  20418299.888   -23765286.683 9 -18472641.72948  20418299.486    20418302.2664
  23453359.635    -8740428.019 8  -6798823.91446  23453359.047    23453365.6144
  24446755.032    -6320385.785 7  -4878087.06845  24446754.444    24446761.3924
  22388194.846   -17769550.418 8 -13828290.20646  22388194.745    22388200.2864
  24367032.826    -5776925.953 7  -3981264.46245  24367032.154    24367040.7354
  23198355.300   -12795691.606 8  -9951006.80346  23198354.984    23198360.2724
  24070077.427    -6451439.156 8  -4724072.42445  24070077.122    24070085.2274
  20366732.749   -21277851.171 9 -16557808.95948  20366732.714    20366736.2024
 01  4 23  3  5 30.0000000  0  9 21 14 31 23 25 15 11 03 29
  21233832.428   -24099430.363 9 -18226593.80647  21233832.014    21233836.6444
  20423842.509   -23736159.801 9 -18449945.44648  20423842.118    20423844.8904
  23464401.881    -8682400.728 8  -6753607.87546  23464401.313    23464407.8324
  24458686.558    -6257685.961 7  -4829230.09045  24458685.934    24458692.8484
  22371660.971   -17856435.927 8 -13895993.10746  22371660.892    22371666.4014
  24388083.350    -5666305.858 8  -3895067.16445  24388082.631    24388091.1824
  23181324.513   -12885187.956 8 -10020744.12246  23181324.273    23181329.6034
  24086118.165    -6367145.191 8  -4658388.89945  24086117.877    24086125.8904
  20370065.291   -21260338.571 9 -16544162.75948  20370065.257    20370068.7254
